GFSCGP_850_thetae_003.txt.gz
Theta_e
318 317 316 316 317 318 316 316 316 317 317 317 316 315 315 317 316 316 317 317 317 317 317 317 317 316 316 315 314 313 312 311 310 310 309 308 308 307 307 308 308 309 309 308
315 318 317 317 317 317 316 317 318 318 318 318 317 317 315 315 315 317 317 317 317 316 316 316 316 316 315 315 314 313 312 311 310 310 310 309 308 307 307 307 308 308 307 307
316 318 317 317 318 317 316 318 317 318 318 318 318 317 315 315 316 317 317 317 316 316 316 315 315 315 314 314 314 314 313 312 311 310 309 309 308 307 307 308 308 307 307 307
318 318 316 316 318 316 316 318 318 319 319 320 318 318 316 314 314 315 317 317 316 316 316 315 315 315 314 314 314 313 313 313 312 311 310 309 309 308 307 307 307 306 306 306
318 315 314 317 316 316 318 318 318 319 319 320 319 318 315 315 315 314 315 317 317 316 316 315 315 315 315 314 314 313 313 313 313 313 312 311 310 309 308 307 306 306 306 306
316 317 316 315 317 317 318 320 320 322 319 320 320 318 316 318 316 316 316 316 316 316 315 316 315 315 315 315 314 314 314 314 314 313 313 312 311 310 309 308 306 306 305 305
320 317 316 318 318 318 317 319 318 318 318 320 319 318 317 318 316 315 314 315 316 316 315 316 316 316 315 315 315 315 314 314 314 314 314 313 312 311 310 309 307 306 305 304
321 320 318 318 318 318 318 319 317 322 317 318 318 320 318 316 316 316 316 316 316 317 316 317 317 316 316 315 314 314 314 313 313 312 312 312 312 311 311 310 307 305 305 303
320 322 319 318 317 317 319 319 319 318 309 313 318 319 318 316 319 319 318 318 318 318 317 317 316 316 315 315 314 313 313 312 311 310 310 310 309 308 310 307 305 304 302 300
320 321 320 320 319 318 319 318 318 314 320 321 319 319 319 319 318 318 317 317 317 317 316 315 315 314 314 314 313 313 312 311 309 308 307 307 307 307 307 304 302 301 300 299
319 319 318 319 321 320 318 317 319 321 318 323 322 320 318 319 317 318 317 317 317 315 313 313 313 314 313 313 312 312 311 308 307 305 305 305 305 304 304 302 299 299 301 297
317 317 314 319 318 318 317 320 320 320 323 316 315 321 318 316 318 318 318 315 314 314 314 313 313 312 312 311 311 310 309 308 305 303 304 304 303 302 300 298 297 296 295 295
317 313 314 317 317 317 319 318 318 316 312 318 319 319 317 318 318 316 314 314 314 314 313 313 313 312 311 310 309 309 307 306 305 303 302 302 300 298 297 295 294 295 295 295
316 317 315 316 318 318 318 318 317 317 309 316 316 318 316 316 314 314 314 314 314 314 313 313 312 311 310 310 308 308 307 307 305 302 301 299 297 296 295 295 295 295 294 293
316 315 317 317 318 318 319 317 317 317 315 316 316 316 315 313 313 313 314 313 313 313 312 311 310 310 309 308 308 308 307 306 305 301 299 296 296 295 296 296 296 295 293 292
318 313 317 317 317 318 316 314 315 315 314 315 315 314 313 313 314 314 313 313 312 312 311 310 309 309 307 307 308 308 306 305 302 300 298 298 298 299 298 297 295 293 293 292
314 310 311 319 315 313 311 312 314 314 313 313 313 312 313 313 313 314 313 313 312 311 311 310 309 307 307 307 307 305 302 302 303 301 300 300 300 298 295 294 293 293 292 292
308 307 306 315 309 319 314 313 313 313 314 313 314 314 314 313 313 312 313 313 312 310 310 310 307 306 307 306 304 301 301 301 301 300 298 297 296 296 294 294 293 292 291 289
314 306 312 317 315 314 314 314 314 312 312 314 314 313 314 313 312 312 312 311 310 310 310 307 307 305 305 304 301 299 299 298 298 297 296 294 294 294 293 292 291 289 288 287
310 307 309 308 311 315 310 312 315 314 314 313 314 314 312 312 311 309 311 309 310 310 308 307 305 304 304 300 300 300 297 297 296 295 294 293 292 292 291 289 288 287 287 286
306 302 307 301 312 310 310 313 315 313 315 314 314 313 313 311 311 311 308 309 307 308 307 305 303 302 300 301 299 297 295 294 294 292 292 292 290 289 288 288 287 286 285 285
308 307 310 308 315 312 313 312 310 311 313 313 313 312 311 311 310 308 306 306 307 307 305 303 301 301 300 299 296 293 293 292 293 292 291 289 288 287 287 287 286 285 285 285
311 309 307 309 309 311 312 312 312 312 312 313 313 311 310 308 307 304 303 305 304 303 302 300 299 299 298 295 294 293 294 293 291 290 288 287 287 287 287 286 285 285 284 284
312 313 310 309 311 312 312 311 311 312 313 312 311 310 305 305 304 303 304 303 303 301 299 298 298 297 296 295 294 293 292 291 290 287 287 287 287 287 286 285 285 284 284 283
311 311 309 310 311 311 311 311 312 312 312 311 309 306 304 303 303 303 302 300 299 298 297 297 297 295 294 294 293 292 291 289 287 287 287 286 286 285 285 284 284 284 283 282
311 311 311 311 311 311 311 311 311 311 307 306 305 303 303 303 304 303 300 298 298 297 297 297 295 294 293 293 292 290 288 288 287 286 286 286 286 285 284 283 283 282 282 282

GFSCGP_850_thetae_009.txt.gz
Theta_e
316 313 314 314 314 314 315 315 316 315 314 316 315 313 313 312 312 312 311 314 316 316 316 316 316 316 316 316 315 314 314 314 313 313 312 312 312 312 311 311 310 309 309 308
314 315 315 314 314 314 315 316 315 314 314 315 315 314 309 310 311 311 313 315 316 316 316 316 316 316 315 315 315 314 314 314 313 313 313 313 313 312 312 312 311 310 309 309
314 316 314 315 313 314 314 316 316 316 314 315 315 316 312 312 313 313 314 314 315 315 315 315 315 315 314 314 314 314 314 313 313 313 313 313 313 312 312 312 312 312 311 309
316 313 314 314 315 314 315 314 315 316 317 318 314 317 314 312 313 313 312 313 314 315 315 315 315 315 314 314 314 314 313 313 313 313 313 313 313 313 312 311 310 311 312 310
316 313 314 314 315 315 316 315 315 317 316 316 315 314 315 312 314 312 312 314 315 316 315 315 315 314 314 314 314 313 313 313 313 314 313 313 314 312 311 309 309 310 311 311
315 315 314 315 315 316 315 316 315 315 315 317 317 316 312 312 312 313 314 315 315 315 315 315 315 315 315 314 314 314 314 314 313 313 314 313 312 311 310 309 308 307 307 308
317 317 316 316 316 315 314 315 314 314 314 317 316 315 313 313 313 313 313 314 315 315 315 315 315 314 314 314 314 313 313 313 312 312 311 311 309 308 307 307 306 305 305 305
319 316 318 316 316 317 317 316 313 317 315 315 315 317 315 313 315 313 315 315 314 316 316 315 315 314 314 313 313 312 312 312 312 311 310 308 307 306 306 306 305 304 304 305
317 318 316 317 317 316 318 316 315 313 304 310 315 316 314 313 314 316 316 315 314 314 314 314 313 313 313 312 312 311 311 310 308 307 306 305 304 303 305 305 303 303 303 304
317 320 317 316 317 316 316 315 316 312 312 319 318 317 317 315 315 314 313 312 312 313 313 313 313 312 312 311 310 309 307 306 305 305 304 304 303 302 303 303 302 302 301 300
315 316 315 314 316 317 315 315 315 316 313 319 316 318 314 314 313 313 311 312 312 313 313 313 313 312 311 309 308 307 307 305 305 305 305 305 303 302 301 301 301 300 297 296
315 311 312 316 313 314 316 315 314 316 317 312 309 316 313 313 312 312 312 313 313 313 313 312 312 311 308 308 308 306 305 304 304 305 306 303 301 301 299 299 298 297 297 298
314 310 311 312 311 312 316 315 314 310 307 313 312 313 311 313 312 312 313 313 313 312 312 312 312 310 308 308 308 305 305 305 306 305 304 302 300 299 298 297 296 295 295 295
314 312 312 313 312 313 315 315 315 313 310 313 315 315 314 312 311 312 313 313 312 312 312 312 311 308 309 308 306 304 303 304 305 303 301 299 300 297 295 294 294 294 294 295
312 314 313 312 312 313 315 315 316 316 314 315 314 313 312 310 311 313 313 312 312 311 311 311 309 308 309 309 305 306 305 304 302 300 299 300 297 294 294 294 295 295 295 294
312 310 313 313 313 313 315 314 314 314 314 313 312 311 309 312 313 312 312 312 311 310 311 310 308 308 309 307 307 306 303 302 299 298 299 299 297 295 295 296 295 293 294 294
312 306 306 309 309 308 309 310 312 312 310 311 310 309 311 311 312 312 312 312 311 310 310 308 307 307 306 307 304 302 301 299 297 297 297 298 297 296 295 294 292 292 292 291
305 304 303 304 311 312 311 310 310 310 310 309 309 311 312 312 312 312 312 311 310 309 305 304 303 305 306 304 302 300 300 299 299 299 295 294 293 292 292 292 292 291 289 288
307 306 307 310 311 309 311 310 312 311 310 310 312 311 311 311 311 311 311 310 308 304 303 302 304 305 303 299 299 299 298 295 295 293 292 293 292 291 291 289 288 287 287 286
305 299 303 308 312 313 309 307 310 312 311 311 313 311 310 309 310 309 309 307 303 303 304 304 303 301 298 299 299 299 298 295 294 293 292 292 291 289 288 287 287 286 286 286
302 306 307 305 307 306 306 309 310 311 310 310 310 310 309 308 310 309 306 303 302 301 303 301 299 297 299 299 298 296 294 293 293 293 292 290 288 287 287 286 286 286 285 285
307 306 304 305 308 308 310 311 310 310 310 310 309 310 311 310 307 304 301 300 301 302 300 297 297 298 298 297 295 294 293 293 293 291 289 287 286 286 286 286 286 285 284 284
311 307 306 306 307 308 310 310 310 310 310 309 310 310 307 305 302 300 300 301 302 299 296 296 297 297 296 296 293 294 293 292 292 288 287 286 286 286 286 285 285 284 283 283
310 310 306 308 309 310 310 311 311 310 310 310 306 304 303 300 299 298 299 302 301 298 295 296 297 297 295 296 293 293 292 291 288 287 287 287 286 286 285 285 285 284 283 282
311 311 309 310 311 311 311 310 310 309 310 307 305 302 301 299 299 301 301 302 299 297 296 297 296 295 293 293 292 292 291 288 287 287 287 287 286 286 286 285 284 283 282 282
311 310 310 312 311 310 310 310 309 306 303 302 300 300 300 301 301 300 301 300 299 298 295 295 294 294 293 293 292 292 290 288 287 288 288 287 286 286 285 285 284 282 281 281

GFSCGP_850_thetae_012.txt.gz
Theta_e
315 311 312 313 313 313 314 314 315 313 313 315 314 312 311 310 310 310 310 311 313 315 315 316 316 316 315 316 316 315 314 313 313 313 313 313 313 313 313 312 312 311 311 311
312 314 313 312 312 313 314 315 313 313 313 315 314 314 310 310 310 310 311 314 315 315 315 315 316 316 315 315 315 314 314 314 313 313 313 312 312 312 313 313 312 312 311 310
314 314 313 313 312 314 314 314 314 315 313 314 312 314 312 311 312 312 313 314 315 315 315 315 315 315 315 314 314 314 313 313 313 312 312 312 312 313 313 313 311 311 309 309
315 312 313 314 315 313 316 313 314 314 316 317 312 316 314 310 312 310 312 314 314 315 315 315 315 315 315 314 314 313 313 313 312 312 312 313 313 312 312 311 310 309 308 308
314 313 314 315 315 314 315 314 315 316 316 315 314 313 313 310 312 311 312 314 314 314 314 315 315 314 314 313 313 313 313 313 313 313 313 313 312 310 309 309 308 307 306 306
315 314 314 315 314 315 314 315 313 313 313 316 316 314 312 312 312 311 312 313 314 314 314 314 314 313 314 313 313 313 314 313 313 312 312 311 309 308 308 306 305 305 305 305
316 316 315 315 316 314 314 312 312 314 313 316 315 314 312 312 311 312 313 316 314 313 313 313 313 313 313 313 313 313 312 312 311 310 308 307 306 305 304 303 302 302 303 303
318 314 316 316 316 316 316 314 312 315 313 314 313 316 316 313 313 315 315 314 314 315 315 314 314 313 313 312 312 311 310 310 308 306 305 305 303 303 302 301 300 301 302 302
316 317 315 316 315 315 317 315 313 312 302 309 314 315 313 312 312 312 313 313 313 313 313 313 313 312 312 312 311 309 308 307 306 304 304 303 302 302 301 301 300 302 301 301
316 319 315 315 316 315 315 313 315 311 313 316 316 315 315 314 313 311 310 310 312 312 312 313 312 312 312 311 308 307 307 305 304 303 302 302 302 302 301 300 300 300 300 300
314 314 313 313 314 316 315 314 313 314 312 312 315 315 312 312 311 311 311 312 312 312 312 312 312 312 312 310 308 307 305 302 301 302 303 304 302 300 299 300 299 298 297 296
313 310 311 314 313 313 314 315 312 309 313 310 307 314 310 310 311 311 312 313 313 312 312 311 311 312 312 308 308 307 304 304 304 304 304 302 300 299 300 298 296 295 295 295
313 310 309 309 310 310 315 315 312 308 307 314 315 313 310 311 312 312 312 313 312 312 311 311 310 311 310 308 309 309 306 306 305 304 302 300 298 299 298 296 294 294 294 294
313 310 310 310 310 309 313 314 313 313 314 314 313 314 313 312 309 311 313 313 312 311 311 310 310 311 308 307 308 308 307 306 303 301 300 298 297 298 295 294 294 294 294 295
311 314 311 311 311 311 313 313 313 313 312 315 314 312 312 311 308 312 313 313 312 312 311 310 310 307 305 305 305 303 305 303 300 300 298 297 297 296 294 293 294 294 294 294
310 309 312 311 309 310 311 311 312 312 312 312 313 312 310 310 312 312 311 311 312 311 310 308 304 303 303 302 302 304 302 299 299 298 297 297 296 296 296 295 294 293 292 292
311 305 306 307 308 307 306 308 311 312 310 310 311 309 309 311 311 310 310 311 311 309 306 305 304 302 301 303 302 299 298 298 299 299 298 295 293 293 292 292 291 292 292 290
304 302 303 304 310 309 310 309 310 310 308 308 307 307 310 311 309 309 310 310 309 306 304 301 301 304 303 301 298 298 299 298 297 297 295 294 293 292 291 290 289 288 288 287
306 304 308 313 312 308 311 309 311 311 308 309 309 311 310 310 309 309 310 309 307 304 300 300 303 303 299 297 298 299 297 297 295 293 293 292 292 291 289 287 287 287 286 286
303 298 302 308 311 311 308 307 308 310 310 310 312 310 310 309 308 308 304 302 300 299 299 302 301 297 296 298 298 297 296 293 293 293 293 291 290 288 287 286 286 286 286 285
302 305 306 307 310 308 306 307 309 311 310 310 309 309 309 306 307 303 302 300 299 300 301 301 297 296 296 296 296 296 294 293 292 292 291 289 287 286 286 286 285 285 285 284
306 303 301 303 308 308 307 309 310 310 309 309 309 308 309 306 305 301 300 299 299 300 301 298 295 296 296 297 296 294 292 292 292 292 289 287 286 286 286 286 285 285 285 284
307 307 309 309 306 307 308 309 311 310 310 309 308 308 305 303 302 301 299 300 300 301 300 297 295 295 296 295 293 295 293 292 291 289 287 287 287 287 286 286 285 285 284 283
308 310 307 308 309 309 312 312 310 309 309 308 306 303 303 300 299 300 300 300 300 301 299 298 296 295 293 293 292 292 292 291 290 287 287 287 288 287 286 286 285 285 283 282
310 309 309 308 311 311 311 310 310 309 307 305 302 301 299 300 301 301 301 298 299 299 298 298 296 294 293 293 293 293 292 291 289 287 287 287 288 287 286 286 285 284 283 282
312 310 310 311 311 311 311 310 308 305 303 301 298 299 300 300 300 300 298 297 297 297 297 297 295 295 294 294 293 292 291 290 289 288 287 288 288 288 286 285 284 283 282 281

GFSCGP_850_thetae_015.txt.gz
Theta_e
314 316 315 314 313 313 314 314 316 315 314 317 316 316 314 311 311 310 310 311 314 319 318 316 316 316 316 316 318 317 316 313 313 313 313 313 313 312 312 312 313 313 312 312
316 315 313 312 313 314 314 315 315 315 314 316 317 317 313 312 311 310 312 313 314 315 315 315 315 316 315 315 316 315 314 313 312 312 311 311 311 312 312 313 313 312 312 311
316 313 312 313 314 317 316 316 315 316 315 315 315 317 315 312 312 312 313 314 314 315 315 315 315 315 314 314 314 313 312 312 311 311 311 311 312 313 313 313 312 311 309 308
313 312 314 316 316 315 317 313 316 316 318 320 314 320 317 313 313 312 313 313 313 314 314 314 314 313 313 313 312 312 312 312 312 312 312 312 312 311 310 309 308 307 306 305
313 314 315 317 315 314 318 314 316 316 318 318 319 319 318 314 314 313 312 312 313 313 313 313 313 312 312 311 312 312 312 312 312 312 312 311 310 308 306 305 304 304 303 302
315 314 314 315 314 314 314 316 314 314 317 322 317 317 319 316 313 314 314 314 313 313 313 312 312 312 313 313 313 313 312 312 311 310 309 309 308 307 304 303 302 301 301 300
316 316 316 314 317 316 317 315 319 323 324 324 315 317 317 314 313 313 314 312 313 313 313 312 312 312 313 313 312 312 312 311 309 310 309 307 305 303 302 301 300 300 300 300
319 318 317 316 316 316 317 317 321 319 322 321 315 318 318 314 313 314 313 312 312 313 313 313 313 312 312 312 312 311 310 309 310 310 308 303 302 302 301 300 299 299 299 300
319 318 315 316 315 315 318 320 314 315 306 319 318 317 314 313 314 313 312 312 312 312 312 312 312 312 312 312 311 310 308 307 304 301 301 301 302 301 299 299 298 298 300 300
316 319 315 315 315 315 317 314 319 319 321 320 319 318 318 315 314 313 312 312 312 312 312 312 311 311 311 312 311 309 308 305 304 304 303 304 302 300 299 298 298 299 299 298
313 315 315 314 316 317 318 317 316 316 317 321 319 319 315 315 313 313 312 312 313 313 312 311 311 310 311 311 310 308 308 308 306 306 305 303 301 299 298 298 299 298 297 297
313 313 314 315 313 313 314 315 314 316 315 316 316 316 312 313 312 312 312 312 313 312 312 311 310 309 311 311 308 307 308 307 306 305 304 301 299 298 297 297 297 295 296 294
313 314 314 311 312 312 316 315 312 311 312 317 318 316 311 311 313 312 312 312 312 311 312 311 310 310 310 309 306 305 303 302 303 302 299 299 298 297 297 295 294 294 294 294
313 312 313 314 311 312 314 314 313 315 318 316 316 315 315 314 313 312 311 312 311 310 311 311 310 309 307 304 303 302 302 303 301 298 298 298 297 297 296 293 293 293 294 294
313 316 313 313 313 312 313 314 313 315 315 317 316 315 314 314 312 311 311 310 310 310 310 309 307 305 303 302 301 302 302 299 298 297 298 298 297 297 297 296 295 294 294 292
310 314 312 312 310 310 311 312 312 313 314 314 314 315 313 310 311 311 310 309 310 309 307 304 302 301 301 303 303 301 297 297 298 297 298 297 297 295 294 292 291 290 290 290
312 311 310 312 308 309 312 309 312 312 312 313 313 312 310 311 311 310 310 309 307 304 303 300 299 299 302 303 298 297 297 298 297 296 295 293 292 292 291 291 290 288 287 287
306 308 307 313 309 315 312 309 310 311 311 310 309 309 309 311 310 309 307 306 305 304 304 302 299 301 302 298 296 297 297 296 295 293 293 293 292 291 290 289 287 286 286 286
306 307 310 313 313 311 312 310 311 311 311 309 310 311 310 311 310 309 306 305 304 302 298 299 300 301 298 296 296 296 296 296 293 293 292 292 292 290 287 286 286 286 285 285
304 302 311 310 314 315 312 308 308 310 314 310 310 310 310 310 310 311 304 304 300 298 299 300 301 299 296 295 296 296 296 295 293 292 291 291 289 286 286 286 286 285 285 285
306 306 310 311 311 311 309 307 308 314 314 310 309 309 308 308 307 305 303 300 299 300 300 301 301 298 295 295 294 294 295 295 293 292 291 290 287 287 287 286 286 286 285 285
309 310 308 307 309 311 307 308 312 311 309 309 309 308 308 306 303 301 300 300 300 298 300 301 299 298 296 294 293 292 291 292 292 292 291 288 287 287 287 287 286 286 285 284
312 310 311 310 312 308 307 309 309 309 309 308 308 306 304 302 300 299 300 300 300 298 298 300 299 298 298 293 293 291 290 292 292 291 290 287 287 287 288 287 286 285 285 284
308 307 309 309 311 310 311 311 309 309 307 307 306 304 300 300 300 300 300 300 299 297 296 297 297 297 297 294 293 293 293 292 292 291 289 287 287 287 288 287 286 285 283 282
311 309 309 309 311 310 310 310 310 308 305 303 300 300 299 299 299 299 299 299 298 296 296 295 296 297 296 295 294 293 293 293 291 290 289 288 287 287 287 286 284 283 282 282
311 311 311 313 311 310 310 309 306 304 299 298 297 295 294 294 296 299 299 297 296 295 295 294 295 295 294 293 292 291 290 291 290 290 289 288 287 287 287 285 284 283 282 281

GFSCGP_850_thetae_018.txt.gz
Theta_e
318 321 321 319 319 319 318 319 319 318 318 320 321 321 318 317 317 318 318 317 318 322 319 318 316 315 315 316 322 324 322 318 315 313 313 314 314 313 313 313 313 312 312 312
320 320 318 318 318 318 319 319 319 319 318 320 321 320 318 317 317 317 318 318 319 318 317 316 316 315 315 316 316 316 317 316 313 312 311 311 311 312 312 313 312 312 313 310
319 317 316 318 320 321 320 320 320 320 320 320 321 321 319 317 317 317 317 317 317 317 316 316 315 315 315 315 315 315 314 312 312 311 312 313 313 313 312 311 311 310 308 306
318 317 319 320 320 320 320 318 320 320 321 322 321 323 320 318 318 317 317 317 316 316 315 315 315 313 313 313 312 312 312 312 312 312 311 310 310 310 309 309 308 307 305 304
317 319 320 321 319 319 321 319 320 321 322 322 323 323 322 319 318 318 318 317 316 315 315 315 314 314 313 312 312 312 312 312 311 310 310 309 310 310 311 312 311 307 305 304
319 317 319 320 318 318 319 320 320 321 324 326 322 323 323 321 318 318 318 317 317 316 315 314 314 314 314 313 313 312 312 311 310 310 309 308 307 307 307 306 305 304 303 302
320 320 320 319 320 320 321 322 324 327 327 326 320 322 322 318 318 317 317 317 317 316 316 315 315 314 314 314 313 312 312 311 310 309 308 308 305 306 305 304 303 302 301 301
321 322 321 319 320 321 321 322 325 324 324 323 320 321 321 317 317 316 316 316 316 315 315 314 314 314 314 313 313 312 312 311 309 308 305 302 305 305 305 303 302 301 301 300
321 321 319 318 318 319 321 323 319 322 316 325 321 321 319 317 317 316 315 315 315 315 315 314 314 314 313 313 313 312 312 311 310 308 307 306 304 304 303 300 298 299 299 300
319 322 318 318 318 319 321 319 323 322 328 319 318 319 319 320 319 317 316 315 315 315 315 314 314 313 313 312 312 312 310 310 310 309 307 305 305 303 300 298 298 297 299 300
317 319 318 318 320 321 321 321 320 320 321 321 319 317 320 318 317 316 315 315 315 315 314 314 313 313 312 312 311 310 310 309 308 306 305 304 302 300 298 298 297 298 299 299
318 319 317 316 317 317 318 319 318 317 317 319 320 318 316 316 316 315 315 314 314 314 313 313 313 312 312 310 309 308 307 306 305 304 303 302 299 298 298 297 297 297 297 297
318 319 316 316 318 317 319 318 317 317 317 319 321 319 315 315 315 315 314 314 314 313 312 312 312 311 310 308 306 305 304 304 303 301 300 300 299 298 297 297 297 297 297 296
316 318 316 314 314 315 315 315 315 316 319 318 318 317 316 315 315 314 314 314 313 312 312 311 311 309 308 305 304 304 303 301 300 300 300 300 299 298 297 297 296 295 295 295
319 317 317 316 315 315 316 315 315 316 317 318 317 316 316 315 314 314 314 313 312 311 311 309 308 305 303 303 304 302 300 299 300 299 298 298 295 294 295 295 294 294 293 292
317 318 316 316 315 314 315 315 315 315 316 316 316 316 314 313 313 314 313 312 311 311 308 307 304 302 302 303 302 300 299 299 298 297 297 296 295 294 294 293 292 291 290 289
318 318 317 320 313 314 318 315 315 315 315 315 316 315 313 314 313 313 312 311 310 308 305 304 302 301 302 302 300 299 298 297 297 296 295 295 294 293 292 291 289 289 288 288
314 316 313 319 317 322 315 314 314 314 314 314 314 313 313 313 313 312 310 309 306 304 302 302 301 301 302 300 299 298 297 296 296 295 295 293 292 291 290 289 288 288 288 288
313 315 315 317 317 315 314 313 314 313 314 314 313 313 313 312 312 311 306 305 305 302 301 301 301 301 302 300 298 298 297 296 296 295 294 293 291 290 288 288 288 288 287 287
310 311 318 314 317 317 315 312 310 312 315 313 313 312 311 311 314 311 306 304 302 302 301 300 300 301 300 299 298 297 296 296 295 294 293 292 290 289 288 288 288 287 287 287
312 312 315 315 316 315 314 311 310 315 316 311 311 309 309 310 306 304 303 302 302 301 300 299 299 300 299 298 298 297 295 294 293 292 292 292 290 288 288 288 288 288 287 286
316 318 314 313 312 315 311 311 314 313 311 311 310 308 307 306 305 302 302 301 301 301 300 299 298 298 298 298 297 296 295 294 293 293 293 291 289 288 288 288 288 288 287 286
315 314 315 314 316 313 312 312 312 312 311 309 307 305 304 303 302 302 300 300 300 300 299 298 297 297 297 297 297 296 295 295 294 293 293 291 289 288 288 288 288 287 286 285
314 311 314 314 313 313 313 313 311 310 307 306 304 304 302 301 300 300 299 299 299 299 298 297 296 295 295 296 296 296 295 294 293 292 292 291 290 289 288 288 287 286 285 284
315 313 314 314 313 313 312 311 309 306 305 303 302 301 299 298 298 298 298 297 297 296 296 295 294 294 293 293 293 293 292 291 291 291 290 290 289 289 288 287 286 284 283 282
313 314 315 314 313 311 310 307 306 304 302 301 299 297 297 297 296 296 295 295 295 295 295 294 293 293 292 292 292 291 289 290 289 288 289 289 288 288 287 286 285 284 283 281

GFSCGP_850_thetae_021.txt.gz
Theta_e
321 323 323 321 320 320 320 320 321 321 321 321 322 322 321 321 321 322 321 321 321 322 325 322 321 321 322 324 326 328 328 325 322 320 318 317 317 316 316 316 316 316 315 314
320 322 320 320 320 321 321 321 322 321 321 321 323 322 321 320 321 321 322 322 323 322 320 320 320 321 321 320 320 319 318 317 316 315 315 315 315 315 316 316 315 313 312 311
322 321 319 321 321 322 323 322 323 322 322 322 322 323 321 320 320 319 320 320 320 319 319 318 319 319 319 319 318 317 317 316 315 313 315 315 315 315 314 314 313 313 312 311
321 320 321 321 322 322 323 321 322 322 322 324 323 325 322 321 321 320 320 319 319 319 318 318 318 318 319 318 317 316 316 315 315 313 313 313 314 314 314 314 313 312 311 309
321 321 322 322 322 321 323 322 322 323 324 324 323 323 323 321 321 320 320 319 319 318 318 318 318 318 318 318 317 317 316 315 314 313 313 313 313 313 312 311 310 309 307 306
321 320 322 322 321 320 322 323 323 324 325 326 325 324 325 323 322 321 320 320 320 319 318 318 317 317 317 317 317 316 315 315 314 314 313 312 311 310 309 308 307 306 306 305
322 322 322 321 323 323 323 324 328 329 328 328 324 322 325 322 321 321 320 319 319 319 318 318 318 317 317 316 316 316 315 315 314 312 311 310 309 309 308 307 306 305 304 303
323 326 322 321 322 323 323 324 328 326 326 325 323 321 325 321 319 318 318 318 318 318 317 317 317 317 316 316 316 316 315 314 313 313 312 311 310 309 308 306 305 303 302 301
323 324 321 321 321 322 323 325 322 325 323 325 322 323 322 320 320 319 318 318 318 317 317 317 316 316 316 315 315 315 314 313 312 312 311 310 308 307 306 304 302 301 300 301
321 325 320 320 320 322 322 321 326 324 326 321 319 319 321 322 321 320 318 317 317 317 317 316 315 315 315 314 314 313 312 311 311 310 309 308 306 305 303 301 300 300 300 301
319 320 321 319 322 321 322 323 322 320 321 322 320 319 320 319 319 318 316 316 317 316 316 315 314 314 314 313 313 311 310 309 308 307 306 305 303 302 300 300 299 299 299 299
319 320 319 318 319 320 320 321 320 320 317 320 321 320 318 318 317 317 317 316 316 315 315 314 314 313 313 312 311 309 308 306 306 304 303 302 302 301 300 299 299 298 298 298
320 322 320 319 320 320 320 320 318 317 317 317 325 320 317 317 317 316 316 316 315 315 314 313 313 312 311 310 309 307 306 305 303 301 301 301 301 301 299 299 297 297 297 297
318 320 318 319 318 317 316 316 316 317 319 320 320 318 318 317 317 315 315 315 315 314 313 313 312 310 309 307 305 305 304 302 301 300 300 299 299 298 297 297 296 296 295 294
320 320 319 318 317 316 316 316 316 316 317 319 318 318 318 317 316 315 315 314 313 313 312 312 310 308 306 304 304 304 302 301 299 299 299 298 298 297 296 296 295 294 293 292
318 320 319 317 316 315 316 315 316 316 317 317 317 317 316 315 314 315 314 313 313 312 311 309 306 305 303 303 303 302 301 300 299 298 298 297 297 296 295 294 293 292 291 290
320 320 318 320 317 317 321 317 316 316 316 316 317 316 315 315 314 314 313 312 313 310 307 304 304 303 303 303 302 301 300 299 298 297 297 297 296 295 294 293 291 290 290 290
320 318 317 320 317 324 318 316 315 315 315 315 315 315 315 314 314 312 312 310 309 307 306 305 303 302 302 302 302 300 299 298 298 297 297 296 295 294 293 291 290 290 289 289
317 319 317 319 319 316 316 315 315 315 315 315 315 315 314 313 312 312 309 308 307 306 305 303 302 301 300 301 301 300 299 298 297 296 296 295 294 294 292 290 290 290 289 289
315 317 320 317 320 319 317 315 313 314 317 315 314 314 313 312 314 312 308 306 306 304 303 302 301 300 300 300 300 299 299 298 297 296 295 294 294 293 291 290 290 289 289 289
314 314 319 317 318 316 315 314 313 316 318 314 313 312 310 310 308 307 306 304 303 303 302 301 301 300 299 298 298 298 297 297 297 296 295 294 294 293 291 290 290 289 289 288
316 318 316 316 315 316 314 313 316 315 314 313 311 309 306 306 306 305 304 303 302 301 301 301 300 299 298 297 296 296 296 297 297 296 296 295 294 292 291 290 290 289 289 288
316 316 317 317 318 315 314 313 314 314 314 311 308 306 306 305 304 302 301 300 300 300 299 299 298 297 296 295 295 295 295 295 295 295 295 293 293 291 291 290 290 289 288 287
316 315 317 316 315 314 314 314 313 311 309 308 306 305 304 303 301 300 300 299 298 297 296 296 296 295 295 294 294 293 293 293 293 293 293 293 292 291 290 289 289 287 287 285
317 315 316 317 315 314 314 311 310 308 307 306 304 303 301 299 299 298 297 296 296 295 295 295 295 295 294 294 293 293 292 292 291 291 291 290 291 290 289 289 288 287 286 284
314 316 318 317 314 312 312 309 308 307 305 303 301 300 300 299 297 297 296 296 295 295 295 295 294 294 294 293 293 292 291 290 289 289 289 290 290 289 288 287 286 286 285 284

GFSCGP_850_thetae_024.txt.gz
Theta_e
321 322 323 321 320 320 320 320 320 321 321 320 320 321 322 321 322 322 322 322 323 324 323 323 323 323 323 327 328 330 330 329 325 322 319 318 317 317 316 316 316 316 315 315
320 322 321 320 320 320 321 321 322 322 321 320 322 322 322 321 322 322 322 323 323 322 322 322 322 322 322 321 320 321 320 318 317 317 316 316 316 315 315 315 316 314 314 313
323 321 320 320 321 322 322 322 324 322 322 322 321 322 321 321 321 321 321 322 321 320 320 321 321 321 320 319 318 318 317 317 316 313 316 315 314 315 315 314 314 315 314 314
322 320 320 321 322 322 322 323 322 322 322 322 323 323 322 321 321 321 320 320 319 319 319 320 320 320 319 318 318 317 317 316 316 314 313 313 314 314 314 314 314 313 311 308
322 321 322 323 322 321 322 322 322 322 323 323 323 324 324 322 321 321 321 320 320 319 320 319 319 319 319 318 318 317 316 316 315 315 315 314 314 312 310 310 309 309 307 306
322 321 322 322 321 321 321 324 324 324 324 331 324 324 324 322 322 322 321 321 320 320 319 319 318 319 319 318 317 317 316 316 315 315 313 312 311 310 310 309 308 307 306 305
322 322 322 321 323 323 323 324 332 334 333 333 325 323 326 323 322 322 321 320 320 319 319 318 318 318 317 317 317 317 317 316 315 314 313 313 311 311 309 308 307 306 304 301
324 326 323 322 322 322 324 323 333 329 332 328 324 322 324 322 320 320 319 319 319 319 318 318 317 317 317 317 316 315 316 315 313 312 312 312 311 309 308 307 306 304 301 300
323 324 321 321 321 321 323 326 321 324 324 327 320 325 322 321 320 319 319 319 318 318 318 317 317 316 316 315 315 314 314 313 312 311 309 308 308 307 306 305 303 300 299 299
321 326 320 320 320 323 321 320 325 330 328 323 319 320 324 322 321 320 319 317 317 317 317 316 316 315 315 314 314 314 312 311 310 309 308 306 305 304 303 302 300 300 300 299
320 321 321 320 322 319 321 322 322 320 324 325 323 320 319 320 320 319 317 317 317 317 316 316 315 314 314 313 313 312 310 309 308 306 305 303 302 301 302 301 300 300 299 298
318 320 325 319 318 319 319 320 320 328 322 325 325 320 318 318 318 318 317 317 317 316 315 314 314 313 312 311 311 310 308 307 306 304 302 301 301 301 302 301 298 297 297 297
320 324 326 321 321 320 318 319 319 319 321 320 322 320 319 318 318 317 316 316 316 315 314 313 313 312 311 310 309 307 306 305 304 302 301 300 300 300 299 297 296 296 296 295
319 321 320 322 319 317 317 317 317 317 323 321 321 318 318 318 318 316 316 316 315 314 313 313 312 310 309 308 306 305 305 304 302 301 300 299 299 299 297 296 296 296 295 294
321 321 320 319 316 316 316 316 316 317 317 318 318 317 317 317 317 316 315 314 314 314 314 311 310 308 306 305 304 304 304 302 301 300 299 299 298 298 297 296 295 294 293 291
319 322 321 319 316 315 315 315 316 316 316 316 317 317 317 316 315 315 315 314 313 313 311 309 307 306 305 304 303 303 303 301 300 300 299 298 298 297 296 295 294 293 291 290
321 324 321 322 318 318 323 320 316 316 316 316 318 317 315 316 315 314 313 313 312 310 308 307 306 306 304 303 302 301 302 301 300 299 299 298 298 297 295 294 294 291 291 290
321 320 319 320 317 321 318 315 316 316 316 315 315 316 315 314 313 312 311 310 309 308 307 307 305 303 302 301 300 301 301 301 301 300 299 298 297 296 295 294 293 291 290 290
319 320 318 323 320 317 316 317 316 315 315 316 317 315 314 313 311 311 310 307 307 306 305 304 303 302 302 301 300 299 298 298 298 298 298 298 296 295 295 294 292 291 290 290
317 320 321 317 318 318 318 316 314 314 317 316 315 314 313 310 311 310 308 306 305 304 303 302 302 301 301 300 299 298 297 296 297 297 297 297 296 295 294 293 292 290 290 290
315 316 321 316 315 317 315 315 314 316 318 315 313 312 310 309 308 307 306 305 303 302 301 300 299 299 299 298 297 296 295 295 295 295 295 296 296 295 295 294 291 290 290 289
315 316 315 315 317 316 315 314 315 316 315 313 311 310 308 307 307 305 303 302 301 300 299 298 297 297 296 296 295 295 294 294 294 294 293 293 293 294 292 291 290 290 289 288
319 320 321 318 318 315 315 315 314 314 312 310 309 308 307 306 304 302 301 300 298 298 297 296 296 295 295 295 295 294 294 293 293 293 292 292 292 292 292 292 290 289 288 288
316 315 321 319 316 315 315 314 312 310 309 308 308 306 304 303 301 301 299 298 298 297 296 296 295 295 295 295 294 294 294 293 292 292 291 290 291 290 291 290 289 288 288 287
319 316 317 318 316 315 314 313 311 310 308 307 305 303 302 301 300 299 298 297 297 296 296 295 295 295 294 294 294 294 293 292 291 290 289 289 290 290 290 289 288 287 286 286
315 315 318 318 316 315 314 311 310 308 307 305 302 301 301 299 298 297 297 296 296 295 294 294 294 294 294 294 294 292 291 291 289 289 288 287 288 288 288 287 286 286 285 285

GFSCGP_850_thetae_027.txt.gz
Theta_e
321 318 318 317 318 318 319 319 317 318 318 319 318 316 317 320 320 320 321 322 322 323 323 323 323 323 323 325 323 325 328 329 328 323 320 317 318 317 316 315 316 316 315 314
319 319 318 319 319 319 319 320 321 318 319 318 318 319 317 319 319 321 321 321 321 321 321 322 323 322 323 325 326 326 327 323 318 317 316 316 316 315 316 316 316 314 314 314
319 319 319 320 320 321 321 321 320 320 319 319 319 319 318 318 320 320 320 320 320 321 321 320 319 319 318 318 318 317 316 315 315 314 315 315 314 314 315 314 314 313 312 311
319 319 320 320 321 319 323 322 321 321 319 319 317 318 318 318 318 319 319 319 320 320 320 320 319 318 317 317 317 316 316 316 315 315 315 314 314 313 313 312 310 309 309 308
320 320 321 322 321 320 322 321 321 321 320 320 320 319 317 319 319 318 319 319 319 319 319 319 318 318 318 317 317 316 316 316 315 315 315 314 313 312 311 310 310 309 308 308
319 321 320 320 321 320 320 322 322 321 321 321 323 322 322 318 320 320 320 319 319 319 319 318 318 318 318 317 317 317 316 316 315 314 313 313 312 311 311 311 310 309 307 306
320 321 320 321 321 321 320 321 322 323 322 322 326 325 325 321 320 320 319 319 319 319 318 318 318 318 317 317 317 317 316 316 315 314 312 312 311 310 309 309 307 306 306 303
323 323 319 320 320 320 321 321 319 326 323 322 321 324 321 318 319 320 319 319 319 318 318 318 317 317 316 316 315 315 314 314 313 311 311 310 309 308 307 305 304 303 300 299
324 321 320 319 319 320 320 320 319 320 321 317 319 320 319 318 318 319 318 318 318 318 317 317 316 315 315 315 314 314 314 313 311 310 309 308 306 304 303 302 301 300 299 299
320 322 319 319 319 322 319 318 319 319 321 322 318 323 324 319 319 319 317 317 317 317 316 315 315 314 314 314 313 312 312 310 309 308 307 305 304 302 301 301 301 300 300 299
318 320 319 318 318 318 318 320 319 319 316 318 316 316 318 320 319 319 316 317 316 316 315 314 314 313 313 312 311 311 310 308 307 306 306 305 302 300 300 301 301 301 295 295
317 318 315 318 318 318 318 319 319 314 319 313 313 315 316 315 317 316 315 316 316 315 314 314 313 313 311 310 310 309 307 306 305 305 303 301 300 300 299 299 299 297 294 295
318 318 316 318 319 319 317 318 318 318 311 314 308 311 315 317 317 316 315 315 314 314 313 312 312 311 309 308 307 306 304 304 304 303 302 301 300 299 299 298 298 296 295 295
319 319 316 316 317 315 315 315 315 316 312 314 313 316 315 317 317 314 314 314 314 313 312 312 311 309 306 305 305 304 303 304 303 303 301 300 299 299 298 298 298 296 294 294
318 319 318 318 315 315 314 314 314 315 314 313 313 316 316 314 314 314 313 313 313 312 311 310 308 306 305 305 304 303 303 302 302 301 301 300 299 299 298 298 297 295 293 293
318 316 316 315 316 314 314 313 315 315 315 315 315 316 315 314 313 312 312 312 310 309 308 307 307 306 305 304 303 302 300 301 301 301 301 300 299 298 298 297 296 294 293 291
319 312 310 313 314 313 312 315 316 315 315 315 314 314 313 311 311 311 310 310 308 306 306 306 305 304 303 302 301 301 300 299 298 297 297 299 298 298 298 297 295 294 292 291
313 313 307 306 307 306 316 314 314 315 314 313 314 313 312 311 311 310 309 308 305 305 304 303 303 303 302 302 301 300 298 297 297 296 296 295 296 296 296 295 295 294 291 290
317 309 305 311 311 311 314 315 314 313 314 315 314 313 311 309 309 309 308 305 305 304 304 302 300 299 299 299 298 297 296 296 295 295 294 294 294 294 294 294 294 292 291 290
314 309 307 304 309 306 312 314 314 314 310 314 313 311 309 309 304 305 305 305 304 302 301 298 297 297 296 296 296 295 295 295 294 294 293 293 293 292 293 294 294 293 290 290
305 310 309 303 305 308 312 314 313 312 310 313 312 311 309 307 307 306 306 302 301 300 298 297 297 296 296 295 295 295 295 294 294 294 293 293 292 291 291 292 291 290 290 289
307 307 308 310 312 309 313 314 311 311 314 312 310 309 308 307 306 305 302 301 299 298 297 297 296 296 295 295 295 295 294 294 294 293 293 291 291 290 291 291 291 290 289 288
312 310 309 309 308 311 314 314 314 314 312 310 310 308 307 306 303 302 300 299 298 297 297 296 295 295 295 295 294 294 294 294 293 293 291 290 289 289 290 291 290 288 288 288
312 314 309 312 314 315 315 314 314 312 311 309 307 306 304 303 301 300 298 297 296 296 296 295 294 294 294 294 294 294 293 293 292 291 290 289 288 289 290 290 289 288 287 287
312 314 314 310 314 314 313 313 312 310 308 306 306 303 301 301 299 297 297 296 295 294 294 293 294 294 294 294 294 294 292 291 291 290 289 288 288 287 288 288 287 286 285 285
316 312 309 307 314 314 313 312 311 309 306 305 303 301 300 298 297 296 295 294 294 294 293 293 292 293 293 294 294 292 291 291 290 290 289 288 286 285 286 286 285 285 285 284

GFSCGP_850_thetae_030.txt.gz
Theta_e
320 317 316 316 315 316 318 316 316 317 317 318 314 315 317 316 320 320 321 321 322 324 324 326 326 327 328 329 328 328 326 325 324 324 322 320 317 316 315 316 315 314 314 314
316 317 317 317 318 319 319 319 318 317 318 315 315 315 315 317 319 320 320 321 321 321 322 322 323 322 322 323 318 317 317 316 316 316 316 316 315 315 315 315 315 314 313 313
317 317 318 320 318 319 320 319 319 319 318 317 315 317 318 317 319 319 320 321 320 320 319 318 318 319 318 317 316 315 315 315 315 314 314 314 313 313 313 313 313 312 311 310
317 318 319 320 319 318 322 320 320 319 317 317 316 315 317 316 316 317 318 320 320 319 318 317 317 316 316 316 316 315 315 315 315 315 315 313 312 313 312 312 311 311 310 309
319 319 319 320 320 319 320 319 320 320 318 319 319 315 316 317 318 317 317 319 319 319 318 318 318 318 317 317 317 316 316 315 315 315 314 314 313 312 312 311 311 310 308 307
318 320 319 319 319 319 319 321 320 319 318 319 321 319 317 317 318 318 317 318 319 318 318 318 318 317 317 317 317 317 316 316 316 315 315 314 312 312 311 310 309 308 307 306
319 320 319 320 320 319 318 320 319 322 319 320 323 324 321 319 319 319 317 317 318 318 318 318 318 317 317 317 317 316 315 315 315 314 313 311 311 309 308 307 306 305 303 299
320 321 319 318 319 319 319 320 317 324 320 319 319 322 319 318 319 319 319 318 318 318 317 317 317 317 317 316 315 314 314 314 313 313 312 310 309 308 306 304 303 301 300 300
321 320 319 318 318 318 319 318 317 318 315 314 318 319 318 317 318 318 318 318 318 318 317 317 316 315 314 314 313 312 312 312 311 310 309 307 306 306 305 302 300 300 300 300
319 320 319 319 318 319 317 316 319 315 319 322 317 321 322 319 318 317 317 317 317 315 314 314 314 313 312 312 311 311 310 310 309 308 307 306 306 304 302 300 299 298 298 298
318 317 317 318 316 317 316 318 317 316 313 316 315 315 315 318 318 316 315 316 315 314 313 313 312 312 311 311 310 309 307 307 306 305 305 304 303 303 301 300 299 298 298 298
316 314 313 317 317 317 317 318 316 313 317 311 311 313 314 314 315 315 316 314 313 312 312 312 312 311 311 309 307 306 305 304 304 304 303 303 302 301 300 300 299 298 298 298
316 315 313 316 316 316 316 317 317 313 308 313 307 310 312 315 314 313 313 313 312 312 312 313 312 311 310 307 305 304 303 303 303 302 302 302 300 300 300 299 299 298 297 296
318 316 314 315 316 313 314 314 315 314 310 312 311 313 312 314 312 312 312 312 312 312 311 309 308 306 305 305 304 304 303 301 301 301 301 300 300 300 299 299 298 297 297 295
315 317 317 316 313 314 313 313 312 313 313 313 312 313 314 312 311 312 312 311 310 309 307 307 306 305 305 304 302 302 301 300 300 299 298 298 297 297 296 297 297 297 297 295
315 314 313 312 314 313 312 311 313 313 314 314 313 315 312 311 312 311 311 310 309 307 305 304 304 303 303 302 302 301 301 300 300 298 297 296 296 295 293 293 294 294 294 293
315 309 307 307 310 310 309 314 315 314 312 313 312 312 310 310 310 310 309 308 305 304 304 303 303 301 301 301 300 298 297 296 296 295 295 294 294 293 293 292 292 292 294 294
311 309 303 303 302 302 310 312 313 314 314 312 312 311 310 310 310 309 307 304 304 304 303 301 299 298 298 297 296 296 295 295 295 294 294 293 293 293 293 292 292 293 294 293
312 304 305 302 308 306 311 314 313 312 314 313 312 310 309 309 308 308 305 304 304 302 299 297 297 297 296 296 295 295 295 295 294 294 294 294 293 292 291 290 290 292 292 291
310 304 303 305 302 302 307 313 313 312 310 313 312 310 309 308 302 303 305 306 301 299 298 297 297 297 296 295 295 295 294 294 294 294 294 293 292 291 290 290 291 291 290 289
304 302 306 296 299 305 307 312 313 311 310 313 312 311 309 306 307 305 304 301 300 298 297 297 296 296 296 295 295 295 294 294 294 294 293 292 290 290 290 290 291 290 290 289
308 307 305 302 300 308 309 312 310 309 313 313 311 310 309 307 306 305 301 300 298 297 297 296 296 295 294 294 294 294 293 293 293 293 292 290 290 289 289 290 290 289 288 288
311 307 308 309 309 308 312 313 313 313 314 311 311 310 307 306 304 301 299 298 297 297 296 295 294 293 293 293 294 294 294 293 293 291 291 290 289 288 289 289 290 288 287 287
310 311 308 309 311 311 313 314 314 314 313 311 309 307 306 303 300 299 298 297 297 296 294 293 292 291 291 292 292 293 293 293 291 291 290 290 288 287 287 288 288 287 286 285
308 313 312 308 312 313 313 313 313 312 311 309 306 305 302 300 298 298 297 296 295 294 293 291 290 290 290 290 291 292 291 290 290 290 289 289 288 286 285 286 286 285 285 284
313 311 308 308 312 313 313 313 312 311 308 307 302 301 299 299 297 297 296 295 294 293 291 290 290 290 290 290 290 290 291 290 290 289 288 288 286 285 285 285 285 284 284 283

GFSCGP_850_thetae_033.txt.gz
Theta_e
318 314 315 315 315 315 316 315 316 316 314 314 313 313 312 316 318 320 320 321 324 326 327 329 329 329 329 330 329 330 327 326 326 325 323 322 320 316 315 315 315 315 314 314
315 317 316 316 318 317 317 316 317 317 316 313 315 314 315 317 318 319 319 319 320 321 323 325 327 327 327 325 323 320 320 319 319 317 316 315 314 314 314 314 313 312 311 311
316 317 317 317 317 320 319 318 318 318 315 313 315 315 316 316 318 319 320 320 320 320 319 319 321 321 320 318 315 315 315 315 314 314 314 314 313 312 311 311 311 310 310 310
316 318 318 318 318 318 321 319 319 318 315 315 314 316 317 316 316 317 319 319 318 318 318 317 316 315 316 316 316 315 315 315 315 314 314 313 313 313 313 312 312 311 310 309
318 319 318 319 319 318 319 318 318 318 316 316 317 316 315 316 317 317 317 319 318 317 317 317 317 317 317 316 316 316 316 315 315 315 314 314 314 312 312 311 311 310 309 307
317 318 318 318 318 318 318 319 318 317 317 318 320 316 315 316 317 315 316 319 318 318 318 318 317 317 316 316 316 316 316 315 315 314 314 313 312 311 311 310 309 307 304 302
318 318 317 318 320 318 317 318 318 321 318 320 319 321 317 316 315 316 316 318 318 318 318 318 317 317 317 316 316 316 315 314 314 313 312 312 311 309 308 307 305 300 298 297
319 319 318 317 318 319 319 318 315 325 319 317 317 320 319 317 317 318 318 318 317 317 318 318 317 317 317 316 314 314 313 312 312 311 310 309 308 307 306 303 303 301 299 298
319 319 318 317 317 317 319 316 315 316 313 313 316 318 317 316 316 316 316 316 317 318 317 317 316 316 314 314 313 312 311 310 309 309 308 307 306 304 303 303 300 300 300 298
318 319 317 317 317 316 315 315 318 313 317 321 316 319 318 317 317 317 318 319 317 315 314 314 313 313 313 312 311 310 309 307 307 306 305 304 303 302 302 300 300 299 299 298
317 315 315 318 315 316 315 316 314 314 312 315 314 315 312 316 316 316 316 315 314 313 313 313 312 311 311 309 309 308 306 305 304 303 303 302 302 301 300 300 299 299 299 298
315 312 313 316 314 315 315 317 313 309 314 309 309 312 311 314 315 315 313 313 313 312 311 311 311 311 310 309 307 304 304 303 303 302 301 302 301 300 300 299 298 297 297 298
315 313 312 315 315 314 316 316 313 310 308 312 307 310 311 313 312 312 312 311 311 311 311 311 309 307 305 305 304 304 303 302 301 300 300 300 300 298 298 297 295 293 292 296
316 314 312 313 314 313 313 313 314 312 310 312 309 312 313 312 311 311 311 311 311 310 309 307 305 305 305 304 303 302 301 300 300 300 299 298 297 295 295 294 293 292 292 294
313 314 316 313 311 313 312 312 312 313 312 312 311 311 311 311 309 311 311 310 310 308 307 305 304 303 303 303 302 301 300 300 299 297 296 295 294 294 294 293 293 292 292 292
313 312 312 312 312 311 312 310 309 309 310 312 312 314 311 311 311 311 310 309 308 306 303 303 303 303 302 301 300 299 297 296 295 294 294 294 294 294 294 293 293 291 292 294
312 308 306 305 308 306 305 308 312 313 312 311 313 311 309 309 310 310 309 308 305 304 303 304 302 300 299 297 296 296 295 294 294 294 294 294 294 293 293 293 291 290 290 293
309 306 300 302 302 302 307 309 311 312 313 312 311 309 309 310 310 310 309 306 304 303 304 300 298 297 296 296 296 295 294 294 294 294 294 293 293 293 293 291 290 290 290 291
309 303 304 302 305 305 309 312 313 312 311 311 310 308 309 309 309 308 307 304 304 304 300 297 297 297 296 296 296 295 295 294 294 294 293 293 293 292 291 290 290 290 291 290
307 301 302 304 300 301 305 311 312 311 311 312 310 308 308 308 303 304 307 305 304 299 297 297 297 296 296 295 295 294 294 293 293 293 293 293 292 290 289 289 289 290 290 290
305 301 303 295 299 304 305 311 312 312 307 312 312 311 309 305 307 307 305 304 300 297 297 297 296 296 295 294 293 292 292 292 293 293 293 291 290 290 289 289 289 289 290 289
308 306 306 300 301 309 307 310 310 309 310 313 313 312 311 309 307 306 301 299 297 297 296 296 296 294 292 291 291 291 292 292 292 292 291 291 290 289 288 289 289 289 288 287
308 306 307 308 308 308 310 311 313 312 312 313 313 312 311 308 306 302 300 298 297 297 296 295 293 292 291 290 290 290 291 291 291 290 290 289 289 289 287 288 288 288 287 286
309 308 305 308 309 309 311 311 312 312 313 313 312 311 309 306 304 300 298 297 296 296 294 293 292 290 290 290 290 290 290 290 290 289 289 289 288 288 286 286 286 286 285 285
308 309 309 306 308 313 313 312 313 313 313 312 310 308 306 305 300 298 297 296 295 294 293 291 290 290 290 290 290 290 290 290 290 290 289 288 287 286 285 285 285 285 284 284
310 309 307 308 311 313 312 313 314 313 311 309 307 305 303 300 299 297 296 295 294 293 291 290 290 290 290 289 289 289 289 289 289 289 288 287 286 285 284 284 284 284 283 283

GFSCGP_850_thetae_036.txt.gz
Theta_e
317 313 313 314 314 314 315 314 315 314 314 312 315 315 314 317 319 319 320 321 323 325 326 327 327 325 326 327 328 328 326 325 324 320 318 320 319 315 314 313 313 313 312 310
314 315 315 316 315 315 314 314 316 316 313 314 316 315 314 316 317 318 318 319 323 325 327 327 328 329 329 327 324 321 320 317 316 315 315 314 313 312 311 311 310 310 310 310
315 316 316 317 317 318 318 317 318 317 315 313 314 314 315 316 318 318 319 320 322 324 324 323 323 320 318 315 314 314 314 313 312 311 311 310 311 312 312 312 311 311 311 311
316 317 317 316 317 317 320 318 317 316 313 316 313 316 317 316 317 317 318 318 319 320 319 319 317 315 315 316 315 315 315 314 314 313 314 314 313 312 312 311 311 311 310 307
318 318 317 317 318 317 319 316 317 316 315 314 315 316 314 316 319 317 317 317 318 318 317 315 316 317 316 316 315 316 315 315 315 315 314 314 312 312 311 311 310 308 304 300
316 317 316 317 317 317 316 318 316 315 315 317 318 315 314 316 317 316 316 317 317 317 316 316 317 316 316 316 316 315 315 315 315 314 313 312 311 310 309 308 305 303 301 300
317 317 315 317 319 317 316 317 317 320 317 319 317 317 315 314 314 316 316 318 317 317 317 317 317 316 316 316 316 316 315 314 313 311 311 310 309 308 306 304 303 301 300 300
318 318 317 315 317 318 318 316 317 324 320 318 316 320 318 314 315 318 318 318 318 317 317 317 317 316 316 316 316 314 313 312 310 309 308 307 306 304 303 302 301 300 300 299
318 318 317 316 316 317 318 315 313 315 312 312 315 317 316 314 314 316 317 318 318 317 317 317 317 316 315 314 313 312 311 309 308 307 306 304 303 302 301 300 300 300 299 299
317 319 315 316 316 314 315 314 317 312 316 319 315 317 318 317 316 314 314 316 316 315 315 315 315 314 313 312 311 311 309 307 306 304 303 302 301 301 301 300 299 299 298 297
315 313 314 316 314 316 315 315 312 313 311 314 312 314 311 316 315 315 314 316 316 314 313 313 312 312 311 311 310 308 306 304 303 303 302 301 301 301 300 299 298 297 295 294
314 311 313 316 314 314 314 315 311 307 312 308 309 311 311 310 314 315 315 314 313 312 311 311 310 310 310 309 306 305 304 303 302 302 302 300 300 298 297 296 294 293 293 293
313 312 313 314 312 313 316 315 311 308 307 311 307 308 310 311 312 314 312 311 311 310 310 310 309 307 305 305 304 304 303 302 301 300 299 298 296 295 294 293 293 293 293 292
313 312 312 314 312 312 312 314 312 311 309 310 309 310 313 312 310 309 310 310 310 310 310 308 307 305 305 304 303 302 302 300 299 298 295 294 293 293 293 293 293 293 292 291
311 314 314 311 311 311 311 311 312 312 310 311 310 309 309 311 309 309 310 310 310 309 308 306 304 304 303 303 302 301 300 298 296 294 293 294 294 294 293 292 292 292 291 290
311 312 311 313 310 310 311 309 308 309 309 309 310 310 309 310 311 310 310 310 309 308 306 303 303 303 301 301 300 297 296 294 294 293 294 294 294 293 292 292 292 291 290 290
310 307 307 308 306 304 305 307 308 309 309 308 311 309 308 309 310 310 310 309 309 306 303 303 303 301 299 297 297 296 295 294 294 293 294 294 293 293 292 292 290 290 289 290
307 305 299 301 300 301 306 308 308 309 310 308 310 309 309 310 310 311 310 309 307 304 303 303 300 298 297 296 296 295 295 294 293 293 293 292 292 292 292 290 290 289 289 290
306 302 301 301 303 304 308 309 311 311 310 310 309 308 308 310 309 309 309 308 305 303 304 300 297 297 296 296 295 294 293 292 291 292 292 292 292 292 291 290 289 289 289 289
305 301 303 299 300 300 305 309 311 310 310 309 310 307 307 308 305 307 310 308 304 304 300 297 297 296 296 295 294 292 291 290 291 291 291 291 291 290 290 289 288 289 289 289
306 302 301 293 298 303 303 309 311 312 308 310 311 310 308 306 309 310 310 307 305 301 298 297 296 295 295 293 291 290 290 290 290 290 290 290 290 290 289 288 288 289 289 289
309 308 309 300 298 308 306 310 310 309 309 311 312 312 311 309 309 307 306 305 300 298 297 296 295 294 292 291 290 290 290 290 290 290 289 289 289 289 288 288 288 287 287 287
308 306 305 306 307 307 308 309 312 311 311 312 312 312 311 310 308 306 302 301 299 297 296 295 294 292 291 290 290 290 290 289 289 289 289 289 288 288 288 287 286 286 286 286
307 306 304 307 308 307 310 310 310 311 312 311 312 313 312 310 307 304 303 298 297 296 295 294 292 291 290 290 290 289 289 289 289 289 289 289 288 287 287 286 285 285 284 284
307 307 306 305 307 309 311 312 312 311 311 312 312 312 311 308 305 303 299 296 296 295 294 292 290 290 290 289 289 289 289 289 289 288 288 288 287 287 286 285 284 284 284 283
308 307 306 306 309 310 311 312 313 313 313 312 312 310 307 305 301 298 298 296 294 293 291 290 290 290 290 289 289 289 289 288 288 287 288 287 287 286 285 284 283 283 283 282

GFSCGP_850_thetae_039.txt.gz
Theta_e
316 318 318 315 314 313 314 315 316 315 313 319 318 319 318 318 320 320 320 322 323 324 324 325 326 325 325 325 324 325 327 327 324 322 321 318 317 313 311 311 311 310 310 310
317 317 315 316 315 316 315 317 317 315 314 318 319 320 319 318 318 319 320 320 323 325 328 328 329 329 328 327 327 327 324 315 315 316 315 314 312 311 311 311 311 311 311 310
318 317 315 317 318 320 318 319 318 318 316 316 318 320 320 319 318 317 318 320 324 327 326 324 325 321 317 316 315 314 312 312 312 312 311 311 311 311 311 311 311 311 310 310
318 316 316 317 318 318 321 317 316 316 317 320 315 320 319 320 320 319 318 319 321 322 321 319 316 314 314 314 314 313 314 313 313 313 313 314 313 312 311 311 310 310 308 303
318 317 317 319 317 316 320 317 317 316 318 318 318 320 318 320 323 321 319 318 319 319 318 315 315 315 315 315 315 315 315 315 315 314 314 313 312 311 311 310 309 304 302 300
317 316 316 317 316 316 317 319 318 318 320 323 319 319 319 322 322 322 319 318 317 317 316 315 316 316 315 315 316 315 315 315 315 314 313 311 310 309 307 306 304 302 301 300
318 318 316 316 319 317 319 320 323 324 326 324 318 321 322 317 317 322 320 318 317 316 315 316 316 316 316 316 318 316 315 315 313 311 310 309 308 306 303 302 301 301 300 299
320 319 317 315 318 320 319 320 326 324 326 324 317 323 322 317 315 319 319 318 317 316 316 316 316 316 316 316 316 315 315 313 311 308 308 306 303 302 301 301 300 300 299 299
321 319 316 315 316 317 319 318 315 319 314 319 318 319 318 316 316 317 318 317 317 317 317 316 316 316 316 316 315 313 312 310 308 307 304 303 302 301 301 301 300 299 298 298
318 320 315 315 315 315 318 315 321 318 319 318 317 318 321 319 318 317 318 318 317 317 317 317 317 316 316 313 312 310 308 307 305 303 303 302 302 301 301 300 299 298 296 295
315 318 317 316 316 318 318 318 315 316 316 317 318 316 316 319 318 318 318 317 316 316 315 315 314 314 312 310 309 307 305 304 303 303 302 302 301 300 299 297 295 293 293 293
314 315 318 317 314 314 315 316 315 316 314 313 315 317 312 314 316 316 316 315 315 315 314 312 310 310 309 308 305 304 305 304 303 302 302 300 299 296 294 293 292 293 292 292
314 315 318 317 315 314 316 315 312 310 312 315 322 315 311 313 313 315 315 314 314 313 311 309 309 309 307 306 305 305 303 302 301 300 299 297 294 293 293 293 293 292 291 291
313 313 317 320 316 314 314 316 312 315 317 314 315 314 311 315 314 311 312 312 312 310 309 309 307 306 305 304 304 303 302 300 299 298 295 293 293 293 293 293 292 291 291 291
314 316 314 312 311 311 311 312 314 314 313 317 313 313 313 312 314 312 310 310 309 309 309 307 306 305 304 303 304 301 299 297 296 294 293 293 294 293 293 292 291 291 290 290
311 316 311 313 311 310 312 311 310 312 312 312 311 313 310 310 311 310 309 308 308 309 308 307 304 303 302 301 300 297 297 297 295 293 293 294 294 293 292 291 291 290 290 290
311 312 312 314 307 306 311 311 312 310 310 313 314 314 311 311 311 311 309 309 310 309 307 304 303 303 300 298 297 297 297 295 293 292 293 293 292 291 291 291 290 290 289 289
309 307 304 309 304 309 310 309 309 310 310 310 311 311 311 311 310 311 310 311 310 308 305 303 303 300 297 297 297 296 295 293 292 291 291 291 291 291 290 290 290 290 289 289
306 306 306 312 309 307 308 307 311 312 313 310 311 310 309 309 310 310 311 311 310 307 304 303 301 298 297 297 296 295 293 291 291 290 290 290 290 290 290 290 290 289 289 288
306 304 312 306 309 309 308 307 310 310 316 310 311 309 308 309 314 314 311 310 308 304 303 302 297 297 296 296 295 292 291 290 290 290 290 290 289 289 289 289 289 289 288 288
310 308 312 302 311 309 306 307 310 313 313 308 311 310 308 311 312 311 311 310 307 304 302 299 298 297 296 294 292 290 290 290 290 290 289 289 289 289 288 288 288 288 287 287
313 312 311 303 309 313 306 310 314 313 309 310 311 311 311 311 309 310 310 308 305 300 301 298 296 296 294 292 290 290 290 290 289 289 289 289 289 288 288 287 287 287 286 286
312 311 312 310 313 307 307 310 311 311 310 310 311 311 311 310 309 308 306 305 300 304 297 298 297 294 292 290 290 290 289 289 289 289 289 289 288 288 288 287 287 286 286 285
308 305 309 309 309 307 308 310 310 310 310 311 311 312 311 310 307 305 300 300 299 296 298 296 294 292 290 290 290 289 289 289 289 289 289 288 287 287 287 286 286 285 284 284
308 307 308 308 308 309 309 310 311 311 312 311 311 311 311 309 306 303 301 297 298 297 296 293 291 290 290 290 290 289 289 289 289 289 288 287 287 287 287 286 285 285 284 283
307 309 310 312 308 308 309 312 312 312 312 311 310 310 308 307 302 298 298 298 298 295 293 291 290 290 290 290 289 290 289 289 289 288 287 287 287 287 286 286 285 285 284 283

GFSCGP_850_thetae_042.txt.gz
Theta_e
320 321 320 319 319 319 320 320 318 318 318 321 320 322 321 326 327 327 327 326 326 326 326 326 324 325 325 325 324 324 324 326 325 323 321 320 318 314 311 311 311 311 310 310
321 321 320 319 319 320 319 320 321 320 318 322 323 324 322 323 327 327 327 327 327 327 328 328 328 329 328 328 327 325 327 323 319 319 317 316 313 312 311 311 311 311 310 310
321 321 319 321 321 321 321 322 322 321 320 322 323 324 324 322 323 324 325 327 327 329 329 329 329 330 328 327 327 326 321 313 315 316 314 313 312 312 312 311 311 310 310 308
322 319 321 322 322 322 322 320 321 321 322 322 321 322 325 325 323 323 324 326 328 327 326 325 322 324 324 324 322 319 318 316 312 313 315 315 315 315 313 312 310 309 309 307
322 321 321 322 321 320 322 320 321 321 322 322 322 322 325 325 325 324 324 326 326 325 322 319 318 318 317 315 317 316 315 316 314 314 315 315 315 313 311 310 310 307 305 303
321 319 321 321 320 320 321 323 323 323 323 323 322 322 319 324 325 325 324 326 325 323 320 317 317 317 317 315 315 316 316 315 314 315 314 313 312 311 310 308 307 305 304 303
321 321 320 320 322 322 323 322 321 322 324 323 323 323 321 322 322 325 325 325 323 320 319 318 318 317 317 317 317 316 316 316 315 314 312 310 310 308 306 305 304 303 302 302
321 322 320 320 322 322 322 322 321 318 321 322 322 324 325 322 321 321 324 324 322 319 318 318 318 318 317 317 317 316 316 315 313 310 309 307 306 305 304 304 303 303 302 302
322 321 319 319 321 321 322 322 321 324 320 324 321 323 322 321 321 320 324 323 320 319 319 319 319 318 318 318 317 316 315 313 309 308 306 304 303 301 303 301 302 302 302 300
322 322 320 319 319 320 322 320 322 322 321 318 318 319 319 322 322 321 324 322 320 320 319 319 319 318 317 316 315 314 312 310 307 305 303 303 302 302 300 300 301 299 297 296
322 322 321 319 320 321 321 322 320 320 321 318 317 317 321 321 322 322 323 321 320 320 319 319 318 316 315 313 312 310 308 306 305 303 303 302 302 300 299 298 296 296 295 295
320 323 324 322 318 318 320 321 320 319 318 320 321 317 317 320 321 321 321 321 321 320 318 317 315 313 311 310 309 308 305 305 303 302 301 300 299 298 297 296 295 295 295 294
320 322 324 322 320 319 320 320 319 317 319 319 325 316 317 318 319 320 321 320 320 318 315 314 312 311 310 309 307 305 304 305 302 300 299 299 297 296 296 296 295 295 294 294
316 321 322 323 321 321 320 319 318 318 319 317 318 315 316 317 319 319 319 320 318 315 314 312 311 310 308 306 305 304 306 302 300 298 297 297 296 296 296 295 295 294 294 293
320 322 319 317 316 316 317 318 319 318 318 319 316 315 314 315 316 317 318 318 317 315 313 312 311 309 308 305 303 304 301 299 297 297 296 296 296 295 295 295 294 294 293 293
318 321 318 319 316 315 316 316 316 318 318 318 317 317 317 315 315 316 316 316 315 314 313 311 310 308 306 303 302 300 299 297 297 296 295 295 296 295 294 294 293 293 293 292
320 320 319 318 313 314 319 317 317 316 317 317 318 317 316 315 315 315 315 315 315 314 312 310 308 305 303 301 299 298 297 297 295 294 294 294 293 293 293 293 292 292 292 292
317 318 316 319 311 324 314 312 313 316 317 316 315 315 314 315 315 315 315 315 314 312 311 309 305 302 301 299 298 299 297 295 293 293 293 293 293 293 293 292 292 292 292 290
313 315 315 324 315 314 313 311 311 313 314 315 315 315 314 314 314 315 313 313 313 312 310 307 303 302 298 299 298 297 296 293 292 293 293 293 293 292 292 292 291 291 289 289
312 313 319 315 328 329 314 313 313 314 316 314 315 315 315 314 318 313 313 312 312 310 307 303 300 299 297 297 299 296 294 293 293 293 292 292 292 292 291 291 290 290 290 289
319 317 323 318 324 317 312 310 313 315 314 313 314 315 314 315 315 313 313 311 309 307 302 299 297 298 298 299 295 293 293 292 292 290 290 292 291 291 291 290 290 289 289 289
319 321 321 315 323 322 310 313 317 316 315 312 314 314 314 314 311 310 311 308 304 300 297 297 300 298 299 295 293 292 292 292 290 289 290 291 291 291 290 290 289 289 289 288
318 318 319 317 317 313 311 314 314 313 313 313 313 313 312 313 310 308 307 303 300 298 300 299 297 296 295 292 290 290 292 290 289 289 289 291 291 290 289 289 289 288 288 287
314 311 315 314 314 313 312 312 312 312 312 312 312 312 312 312 310 306 302 299 298 298 297 298 297 294 292 290 290 290 290 289 289 289 290 290 290 290 289 289 288 288 287 287
314 312 314 314 313 312 311 311 312 313 313 312 312 311 311 311 306 300 298 298 297 298 297 296 293 291 290 290 290 289 289 289 289 289 290 290 290 289 289 289 288 287 287 286
311 314 315 316 311 312 313 312 311 312 312 311 308 306 305 304 299 298 297 298 297 296 294 294 294 290 290 290 289 290 289 289 289 289 289 290 289 289 288 288 288 287 286 285

GFSCGP_850_thetae_045.txt.gz
Theta_e
321 322 320 320 320 320 320 318 319 319 319 319 319 321 323 325 325 326 328 327 327 327 327 328 329 329 328 331 332 331 328 325 326 325 319 321 321 317 313 313 311 311 311 311
322 322 322 321 320 319 319 321 319 320 319 321 320 322 323 326 326 325 326 328 328 328 329 330 331 331 332 332 330 330 326 326 327 325 323 320 318 316 315 314 313 312 311 310
323 322 322 321 320 320 320 321 323 322 321 320 323 323 325 325 326 327 327 327 328 328 330 331 332 332 331 329 328 329 329 326 324 320 319 318 317 316 314 314 313 312 310 309
323 322 322 320 320 321 322 323 322 322 323 322 323 322 325 326 326 327 327 328 328 330 331 332 332 332 331 331 329 328 324 321 319 318 317 317 316 316 316 315 314 312 309 308
322 322 321 321 323 322 324 322 322 322 322 322 324 322 324 327 326 326 327 328 329 330 330 329 329 329 327 326 324 321 320 319 319 318 318 318 317 317 315 313 313 311 309 307
321 322 323 324 322 322 323 323 323 323 322 325 322 323 322 326 326 326 326 327 329 328 327 324 323 322 322 323 321 320 320 319 318 318 318 317 317 314 313 312 311 309 307 305
322 322 322 322 323 323 323 323 326 325 323 324 324 323 321 323 324 325 326 327 328 327 323 321 320 319 319 320 320 320 319 318 318 318 318 316 314 312 310 309 307 305 304 304
322 324 322 322 324 324 323 323 323 320 321 322 324 320 325 325 324 324 326 327 327 326 322 320 320 319 319 320 320 319 319 319 318 317 315 313 310 309 307 306 305 305 304 303
324 322 322 322 322 322 324 322 324 324 327 323 319 322 325 324 324 323 326 327 326 324 322 320 320 320 320 320 320 320 319 317 316 314 312 309 308 306 305 305 304 304 304 302
322 323 322 321 322 322 323 323 323 322 322 320 319 319 323 323 322 323 326 326 326 323 321 321 321 321 321 320 321 320 318 316 313 311 309 308 305 304 304 304 303 302 299 298
322 322 323 321 321 321 324 323 321 322 322 322 319 320 320 320 322 323 324 326 325 323 322 322 321 321 321 320 319 319 317 314 310 308 306 304 305 304 303 302 300 298 297 297
322 322 322 323 322 322 322 322 322 322 321 321 324 319 319 320 321 321 322 324 324 323 322 322 322 321 320 318 317 315 313 310 308 306 307 304 304 302 301 299 298 297 297 296
323 321 321 323 322 322 322 321 321 321 321 321 328 320 320 319 319 319 320 322 322 322 322 322 321 320 318 316 315 313 310 308 307 309 304 302 301 300 299 298 298 297 296 296
319 320 321 323 322 323 324 322 322 321 323 320 319 319 318 319 318 318 318 319 321 322 322 321 319 317 316 314 313 310 308 307 306 304 301 300 300 299 298 297 297 296 296 295
323 323 322 321 321 320 321 320 320 321 321 322 320 317 316 317 317 317 317 318 319 321 321 319 317 316 314 312 310 307 306 304 303 301 300 299 298 298 298 297 296 296 295 295
322 323 322 322 321 320 320 320 319 319 319 318 318 318 318 317 317 316 316 317 318 320 319 318 317 315 313 310 307 306 304 303 300 299 298 297 297 297 297 296 295 295 294 294
324 324 322 322 318 318 320 320 319 319 319 319 320 319 318 318 316 316 316 317 317 318 318 317 316 314 312 309 306 304 302 300 299 299 297 296 296 296 295 295 294 294 294 294
324 324 322 321 315 324 317 315 315 317 318 318 318 317 316 316 316 316 317 317 317 317 317 316 314 312 309 306 303 302 300 300 298 296 295 295 295 295 294 294 294 294 293 293
319 320 320 325 318 317 316 314 314 314 315 315 316 315 315 316 316 316 316 316 316 316 316 315 313 309 305 302 300 300 300 298 296 295 294 294 294 294 294 294 293 293 293 292
316 318 320 318 325 326 318 315 315 315 316 314 314 315 315 316 317 318 316 315 315 315 314 312 308 304 302 300 300 299 299 297 295 294 294 294 293 293 293 293 293 292 292 290
322 321 325 322 325 322 317 314 314 317 318 314 315 315 315 315 317 316 315 315 315 314 312 308 304 301 300 299 300 297 295 294 294 294 293 293 293 293 293 293 292 292 291 290
322 325 323 324 322 324 313 315 316 318 314 315 315 315 316 316 316 314 314 314 312 310 306 302 300 299 299 298 295 294 294 294 294 293 293 292 292 293 293 292 292 292 290 289
321 321 322 320 320 316 314 314 315 314 314 314 314 315 315 315 315 313 313 310 307 303 301 299 298 297 296 295 293 294 294 293 292 291 292 292 292 293 292 292 291 290 289 289
318 316 318 316 315 315 314 314 314 314 315 315 314 314 314 314 314 312 309 305 302 299 299 298 297 296 295 293 294 292 291 290 291 291 292 292 292 292 291 291 291 289 289 288
317 316 316 317 315 314 314 315 315 314 314 315 314 313 313 314 312 308 303 301 300 298 297 295 294 295 295 293 291 291 292 291 291 291 291 291 291 291 291 291 290 289 288 288
315 317 318 318 315 315 315 313 312 313 312 311 310 307 307 307 304 301 299 298 297 295 295 295 294 293 293 292 292 292 292 291 291 291 291 291 291 291 291 290 289 289 288 288

GFSCGP_850_thetae_051.txt.gz
Theta_e
321 320 319 320 319 318 318 319 317 318 318 319 322 320 321 323 324 323 323 322 321 321 322 324 328 329 328 329 329 329 328 328 325 323 322 323 324 324 321 318 314 310 310 310
319 322 321 322 322 320 319 319 321 320 318 317 316 317 318 320 323 324 322 321 321 321 322 322 324 329 331 331 330 330 329 327 326 324 324 324 321 320 318 316 311 311 311 310
320 321 322 322 322 323 323 323 321 322 321 319 319 317 318 319 322 325 324 323 322 322 325 326 326 329 332 332 332 331 330 327 325 326 324 321 319 317 315 312 312 312 311 311
321 321 321 321 322 322 323 322 322 321 320 320 320 320 322 321 320 321 325 324 324 324 326 327 328 328 331 332 332 330 329 328 325 326 324 318 316 314 313 315 315 314 313 313
321 321 322 322 323 322 323 321 321 323 322 321 321 321 321 321 322 321 321 326 326 326 326 328 329 330 331 332 331 330 329 325 327 325 320 317 316 316 315 316 315 314 313 310
320 320 321 322 323 321 320 321 323 322 323 322 322 322 322 320 322 323 323 325 327 328 328 330 331 332 331 331 331 328 326 325 324 320 319 318 317 317 316 315 314 313 311 310
320 320 321 321 321 321 321 321 323 323 322 324 324 324 323 322 321 322 322 323 327 329 330 331 332 332 329 326 327 329 328 326 321 319 318 317 318 317 316 314 313 312 310 307
321 321 321 321 321 323 322 323 322 325 326 324 323 326 324 322 322 323 323 323 327 331 331 331 331 330 328 326 328 328 324 321 320 319 319 319 318 317 314 312 310 309 308 306
322 324 322 323 322 321 323 323 323 322 323 319 319 321 323 322 322 324 323 324 330 329 329 328 330 329 329 327 322 321 320 320 320 319 319 319 318 317 314 311 309 307 306 305
323 324 322 323 323 321 321 321 322 319 319 320 319 320 323 322 322 322 324 328 328 328 327 325 327 326 325 324 322 321 320 320 319 319 318 318 317 314 309 307 307 307 304 303
321 319 322 322 323 322 320 320 320 319 321 320 320 318 319 320 320 319 322 328 328 327 326 323 323 322 321 321 321 321 320 320 319 319 318 317 314 311 309 307 305 303 302 301
321 320 323 323 321 320 320 320 321 317 320 319 315 318 318 317 318 320 320 326 328 327 326 324 322 320 320 320 321 321 321 320 319 317 315 313 310 308 307 304 302 302 300 298
322 320 318 320 319 321 321 320 319 319 318 320 315 317 316 317 317 319 320 325 327 327 326 325 323 321 321 321 321 321 321 319 316 314 312 309 308 305 303 302 301 299 298 298
322 322 320 318 318 319 321 320 320 319 316 318 317 319 317 316 316 317 318 319 325 327 326 325 323 322 321 321 321 321 320 319 315 311 309 306 304 303 301 300 299 298 298 297
319 319 319 318 318 320 320 320 319 320 319 318 318 319 317 316 315 316 318 318 318 320 325 324 323 322 322 322 320 318 318 316 312 310 306 305 301 299 300 299 298 298 297 297
320 320 320 322 321 318 318 318 318 317 317 317 317 317 317 317 316 316 315 315 317 317 318 321 322 323 322 320 319 317 315 312 309 305 304 301 299 300 299 298 298 296 296 295
321 320 317 322 314 315 313 316 316 317 317 317 317 315 314 314 314 315 316 317 316 316 317 320 321 321 320 318 317 315 311 308 306 304 301 300 300 297 297 295 295 294 294 294
322 321 314 314 311 312 316 315 314 314 314 313 313 314 314 314 315 315 315 315 315 316 316 317 318 318 317 315 313 310 307 305 303 300 300 298 296 295 295 295 293 294 294 294
321 317 316 313 313 316 316 314 315 314 314 313 312 312 314 315 317 315 315 313 313 315 316 317 316 315 312 310 308 306 303 301 300 297 296 295 295 295 295 293 294 294 294 293
318 317 311 313 314 311 315 314 314 314 313 314 314 314 315 315 312 313 315 314 315 315 315 313 311 309 307 304 304 302 299 298 296 296 295 297 298 294 293 293 293 293 293 293
311 309 310 307 310 314 318 314 314 311 312 315 315 315 316 315 316 315 315 314 313 311 309 308 307 304 301 301 300 299 298 297 295 299 300 297 294 293 293 293 292 292 293 293
315 314 310 313 317 317 315 314 313 315 315 315 315 314 315 315 316 315 313 309 309 306 304 304 303 300 299 299 299 296 297 300 300 296 297 294 293 291 291 291 291 292 292 292
318 318 316 316 315 316 315 315 316 315 315 315 315 315 315 315 315 312 307 306 304 303 302 300 300 299 298 299 300 301 300 298 295 294 293 292 290 290 290 291 291 291 291 291
318 318 316 314 316 315 316 315 315 315 315 315 314 314 313 314 312 305 304 302 302 300 300 300 299 300 301 300 297 295 293 293 292 291 291 290 290 290 290 290 290 290 291 291
316 315 316 314 316 315 313 314 315 314 313 313 311 310 310 311 305 304 301 301 300 300 301 301 299 296 295 294 294 293 293 292 292 292 291 291 291 290 290 290 290 290 290 291
316 316 310 312 315 313 310 311 311 310 308 307 308 306 305 305 303 302 300 300 300 300 299 295 295 294 293 293 292 292 292 292 292 292 292 292 291 291 291 290 290 290 291 291

GFSCGP_850_thetae_054.txt.gz
Theta_e
320 319 319 319 319 321 319 319 317 317 317 322 322 320 319 323 325 320 323 326 322 324 325 325 324 325 325 325 319 317 318 322 324 327 325 323 322 320 322 320 318 314 311 309
318 321 320 320 321 321 321 320 319 318 317 321 318 319 319 320 323 321 319 321 322 323 323 324 325 325 325 327 325 324 324 324 326 325 323 322 322 323 323 319 314 311 310 310
317 319 321 321 321 322 321 321 320 319 319 316 315 318 317 319 323 322 321 320 321 323 325 326 326 326 326 327 328 329 328 327 326 324 322 323 324 321 318 315 312 311 311 311
319 320 320 320 321 321 321 321 321 321 317 316 317 318 320 317 320 321 321 320 320 321 324 326 328 328 328 328 329 330 330 329 327 326 324 324 321 319 318 317 312 313 314 313
318 320 321 320 320 321 321 320 321 321 319 319 320 318 317 319 319 319 321 320 320 321 322 323 325 326 329 329 330 330 330 329 327 325 325 321 320 319 316 313 315 315 314 313
318 320 319 319 321 321 320 320 321 320 320 321 322 318 318 318 319 321 320 323 321 322 322 325 326 327 329 329 330 331 330 329 328 326 325 323 317 314 315 315 315 315 314 311
319 319 320 321 320 319 320 318 319 320 320 321 321 321 319 320 320 319 320 323 323 323 325 326 328 328 329 330 331 330 329 327 326 327 324 319 318 316 316 316 315 315 313 311
319 319 320 320 320 321 321 319 318 322 322 320 321 323 321 320 320 322 321 321 325 325 325 327 328 329 330 331 331 329 328 324 326 323 319 319 317 317 316 315 314 313 310 305
319 322 321 321 321 319 321 321 319 320 320 318 319 318 320 320 322 322 321 322 323 327 327 328 329 330 331 330 327 327 326 326 325 319 318 318 317 316 314 311 308 306 306 305
319 322 320 321 321 320 318 319 322 319 318 319 317 318 322 322 323 323 321 323 326 330 330 330 331 331 329 327 326 328 325 324 322 319 318 318 318 318 316 314 311 307 308 306
318 318 319 321 321 319 319 318 318 317 317 318 318 317 314 320 320 322 322 324 328 329 329 329 329 329 328 328 326 324 322 321 320 319 319 319 317 316 311 307 307 307 305 306
318 318 319 320 320 320 319 319 319 315 317 316 313 315 315 316 317 319 322 326 328 328 328 327 327 326 327 326 325 323 322 321 320 320 319 317 314 312 312 310 307 307 301 300
318 318 319 320 319 319 321 318 317 318 314 317 314 316 315 314 317 318 319 323 327 328 327 327 325 325 324 324 323 322 321 320 319 319 317 315 313 311 309 308 305 302 299 298
320 319 317 319 318 316 319 319 318 316 313 316 315 317 317 315 314 315 317 319 323 327 327 326 324 323 322 322 322 322 321 321 319 316 314 313 311 309 308 304 300 299 299 298
317 318 318 317 318 319 319 319 319 318 317 317 316 316 316 315 313 314 316 317 322 326 326 326 324 322 320 320 320 321 321 320 318 316 313 311 309 305 300 300 299 299 298 297
317 317 318 319 317 316 317 317 316 317 316 316 316 316 312 313 313 313 314 316 316 319 321 324 324 322 321 320 321 321 320 317 314 311 310 307 303 300 300 300 300 297 296 296
318 317 314 317 312 315 314 315 315 316 315 316 315 314 312 311 311 313 315 315 316 317 319 320 321 321 321 321 321 320 317 312 308 306 304 300 299 300 299 297 296 297 296 294
317 316 310 312 310 313 316 314 314 313 312 312 312 312 312 312 313 313 314 315 316 317 318 321 322 322 321 320 318 314 309 306 304 302 300 298 298 297 297 299 297 295 294 294
319 313 313 312 313 314 315 313 311 312 313 312 311 311 314 314 314 314 314 314 314 314 315 316 318 318 316 313 310 308 305 302 300 298 296 296 298 300 298 296 295 293 293 293
314 312 313 311 312 312 313 313 313 311 312 313 314 314 313 313 311 311 313 314 314 314 314 314 313 312 310 306 305 303 300 299 297 295 296 298 300 296 294 293 292 292 293 293
310 309 310 304 308 309 312 313 313 310 309 314 315 315 315 313 313 311 312 312 311 310 309 308 307 306 304 301 301 300 297 297 298 300 301 297 296 294 293 291 291 291 291 291
313 312 308 309 309 314 315 314 312 310 313 314 314 314 316 314 311 309 310 308 307 307 304 303 303 300 299 299 299 299 300 301 301 298 296 296 294 292 291 290 290 290 290 290
316 312 312 313 312 313 314 314 314 314 314 314 314 314 314 313 309 306 305 304 303 302 301 300 300 299 299 299 300 300 300 298 296 293 292 291 290 290 290 290 289 290 290 290
316 317 315 313 314 314 314 315 315 315 314 313 314 314 314 311 306 304 302 300 300 299 299 299 300 300 299 296 295 294 293 292 291 291 291 291 291 291 290 290 290 290 290 290
314 314 313 314 313 313 314 313 314 313 312 313 312 311 310 310 303 302 300 299 299 299 299 298 296 295 294 293 293 292 292 292 291 292 292 292 292 292 292 291 291 291 290 290
313 313 311 311 314 312 311 309 311 311 310 309 309 307 304 304 302 300 299 300 299 296 295 295 294 293 292 292 292 292 292 292 292 292 292 291 291 290 290 291 291 291 291 291

GFSCGP_850_thetae_057.txt.gz
Theta_e
319 317 318 317 317 320 320 320 318 316 315 320 320 320 317 321 326 327 331 330 331 331 327 324 326 327 328 329 328 327 326 325 324 326 327 327 327 326 321 318 318 318 317 314
317 320 319 318 320 320 321 321 320 317 316 319 318 319 317 319 323 328 329 330 330 330 329 324 326 328 327 328 327 323 321 321 322 325 326 326 325 322 319 319 319 317 313 310
316 317 319 320 320 320 320 320 319 319 317 318 316 317 317 319 323 324 325 330 329 325 325 324 326 326 326 326 324 319 314 315 322 326 327 326 321 320 322 322 320 316 311 310
317 318 318 319 319 319 319 318 320 320 316 315 315 316 317 317 322 320 321 324 325 322 322 324 325 324 325 325 325 325 320 321 324 327 328 325 321 322 323 322 318 314 310 312
318 319 319 319 318 319 319 319 320 320 319 318 319 317 316 316 320 321 320 318 321 322 322 324 324 324 325 324 325 326 324 325 327 327 326 323 322 324 322 318 315 311 312 312
316 319 318 317 319 319 319 320 318 317 318 319 319 318 316 317 318 320 322 320 319 320 320 322 323 324 325 325 325 326 327 328 328 328 327 326 324 321 319 317 313 313 313 312
318 318 319 320 319 318 318 316 317 319 318 320 318 319 319 317 316 316 318 321 320 319 320 322 325 325 325 325 326 327 328 328 329 328 327 325 323 319 316 314 314 314 314 313
317 317 318 319 319 320 320 316 316 319 320 318 319 321 319 318 319 319 319 321 322 320 320 321 323 324 326 327 327 328 328 329 329 328 326 325 324 318 316 316 316 315 314 311
318 318 320 320 320 318 320 320 317 318 317 318 317 315 318 318 320 319 319 323 323 321 320 321 322 323 325 327 328 329 328 327 327 325 326 326 321 318 317 316 316 314 312 310
315 318 320 320 320 319 318 318 319 317 319 319 315 317 318 320 319 321 318 320 324 324 323 323 324 325 327 327 329 328 328 327 324 325 325 322 319 319 317 317 316 314 310 307
316 315 317 320 319 318 318 318 317 316 314 317 317 317 312 318 318 320 320 321 323 325 326 326 325 325 327 329 330 328 326 325 324 325 322 319 318 317 317 314 312 311 310 309
316 315 316 318 318 319 316 317 316 315 317 314 312 314 313 314 316 319 322 323 323 326 327 328 328 328 329 330 329 327 326 326 325 325 320 318 317 315 313 312 310 309 308 307
317 316 317 317 317 318 319 317 317 315 312 315 314 315 313 312 314 318 319 323 324 327 329 329 329 329 327 327 328 326 327 326 324 323 319 318 317 312 311 309 309 309 307 300
318 316 317 319 317 318 320 319 316 315 313 314 314 315 315 314 313 314 318 318 320 325 327 328 328 328 328 328 327 326 324 322 321 320 318 318 315 312 311 310 308 304 300 299
316 318 316 316 316 316 317 317 316 317 315 316 315 314 315 313 312 313 315 316 318 320 324 326 325 326 326 327 326 322 320 319 319 318 317 315 311 310 309 305 300 299 299 298
315 315 316 318 316 316 318 316 316 315 316 315 315 315 311 312 312 311 313 314 318 320 322 325 325 324 322 323 323 321 320 319 318 317 315 311 308 306 302 299 301 298 297 300
316 315 312 315 312 314 314 314 315 315 314 314 314 312 311 311 310 312 314 316 317 318 318 319 321 322 321 320 319 320 320 318 316 312 310 307 303 300 300 299 299 301 300 297
315 313 308 310 310 312 314 313 313 313 311 310 311 311 311 310 312 313 315 316 317 318 319 319 320 320 320 320 319 319 316 313 310 307 303 300 298 298 297 299 301 299 295 294
315 310 310 312 313 313 316 311 311 312 313 312 311 310 312 313 313 313 313 313 314 315 317 319 320 320 319 318 316 315 311 307 303 300 297 296 297 298 299 300 297 295 293 292
313 311 312 307 313 315 315 313 312 310 311 311 311 311 312 312 308 309 312 312 313 313 313 315 315 316 314 312 310 308 304 301 298 297 297 298 298 300 296 294 293 291 290 290
311 309 313 304 309 311 310 312 311 311 310 312 313 313 312 310 309 312 311 311 311 311 311 310 309 309 307 304 303 302 298 297 297 298 299 301 297 296 294 293 291 290 290 290
315 314 308 306 305 315 312 312 310 309 312 313 314 314 314 313 311 310 308 307 306 306 304 304 303 301 299 299 300 299 300 300 301 301 298 296 294 292 290 290 289 289 289 289
315 313 313 313 312 311 313 312 313 314 314 314 314 315 314 312 309 307 305 303 302 301 301 300 301 299 299 300 300 299 298 297 294 292 291 291 290 290 291 291 290 290 290 290
315 313 312 313 314 313 313 313 313 314 314 314 314 314 314 312 307 304 302 300 299 299 299 299 299 299 299 296 294 294 293 292 291 291 291 291 291 291 291 291 291 291 291 291
314 314 312 312 312 313 313 313 314 313 314 313 313 313 313 311 304 303 300 299 299 299 299 299 299 296 294 293 292 292 292 291 291 291 291 291 291 291 291 290 290 290 290 290
312 312 313 312 313 312 313 311 311 312 312 312 312 309 307 307 303 301 299 299 299 297 295 294 293 293 292 292 292 292 292 291 291 291 290 289 288 288 288 287 286 285 284 284

GFSCGP_850_thetae_060.txt.gz
Theta_e
318 316 317 315 314 316 318 319 319 318 317 317 315 318 317 322 330 331 330 330 329 328 327 324 322 323 322 324 328 329 328 327 325 324 325 326 325 326 327 327 324 319 319 320
316 318 317 317 319 319 319 320 319 318 316 315 316 317 317 318 324 329 331 330 330 329 328 328 326 325 322 324 327 327 328 327 325 324 323 324 325 326 327 325 319 318 318 318
316 317 318 318 319 319 319 319 319 319 316 316 316 315 317 316 321 325 329 329 330 330 327 328 326 325 324 325 325 326 326 326 326 323 324 325 326 326 324 321 319 320 317 314
315 316 318 318 318 317 318 317 318 319 317 316 314 315 314 315 320 321 324 328 330 330 330 325 323 323 325 325 326 327 327 326 325 324 323 324 326 326 324 321 321 319 314 311
316 318 318 318 317 317 317 318 318 319 318 317 317 315 314 316 320 321 321 323 328 329 330 324 322 322 323 325 325 326 326 325 321 321 322 324 327 325 321 321 321 316 312 311
315 317 316 316 317 317 318 319 316 315 316 319 318 316 315 315 318 320 321 321 324 326 329 329 322 322 323 325 325 325 325 324 320 319 321 325 326 322 320 322 321 315 312 312
317 318 317 318 319 317 317 315 316 317 317 319 317 318 317 317 316 316 318 322 325 325 326 329 323 321 322 324 324 324 324 324 323 322 324 327 325 321 322 321 318 315 312 312
316 316 317 317 318 318 319 316 316 318 318 316 316 320 318 317 318 319 318 318 322 321 323 326 323 321 322 323 323 324 324 325 325 324 325 326 324 325 323 318 316 314 313 313
316 316 318 319 319 317 319 318 315 316 315 316 316 315 313 316 319 320 318 318 318 321 321 321 322 321 321 322 323 324 325 325 326 326 326 326 327 325 323 317 315 315 315 315
314 316 318 320 319 318 318 316 318 315 320 320 314 314 315 315 316 318 317 319 321 320 320 321 321 320 320 321 323 325 326 326 327 327 327 327 325 324 323 319 317 316 315 313
314 313 315 319 318 318 317 318 315 315 313 317 316 316 311 313 316 318 317 320 321 323 322 322 321 320 320 322 323 324 326 327 328 328 326 324 324 324 321 320 320 316 314 313
315 312 313 316 317 315 315 317 315 315 316 313 312 313 312 310 312 317 318 321 322 322 323 324 324 323 322 322 324 326 328 329 327 325 324 323 323 322 320 320 319 314 313 309
315 313 314 314 314 317 320 317 315 313 311 315 313 315 312 311 311 314 317 320 322 323 324 326 326 326 326 326 326 327 327 325 326 325 324 323 324 322 320 316 313 312 308 310
315 314 313 315 314 315 319 317 316 315 313 315 313 314 313 312 312 312 315 318 318 321 324 326 326 327 328 327 328 326 325 325 325 325 325 323 317 314 311 309 310 308 305 299
314 316 314 314 315 314 315 316 314 314 314 315 315 313 313 312 311 311 313 315 315 317 319 325 327 328 329 329 328 326 326 326 325 324 323 316 311 309 313 308 306 302 303 300
313 315 314 316 315 316 318 315 314 315 315 313 313 313 310 311 311 311 311 313 317 319 321 321 324 324 324 325 326 325 324 322 319 318 316 311 310 311 307 305 304 300 298 297
314 313 312 316 312 314 314 313 314 314 313 313 314 312 309 311 310 310 313 315 318 318 318 319 321 322 321 320 320 321 320 318 317 314 312 311 308 305 301 299 298 296 299 300
313 311 308 310 309 312 314 313 312 313 312 310 309 311 309 309 311 312 314 315 317 318 318 318 318 319 319 319 318 317 316 315 313 311 308 304 301 299 297 298 299 300 300 298
313 309 311 312 312 312 314 311 311 312 311 309 309 309 310 312 312 309 311 313 314 315 316 317 317 318 319 318 316 315 313 311 309 304 301 298 297 297 298 299 300 296 294 293
311 309 311 307 312 313 312 312 310 310 310 309 310 309 310 310 308 307 309 310 311 312 314 315 315 316 315 313 312 311 308 304 301 298 297 298 299 301 299 295 294 293 292 290
311 308 311 304 309 311 311 311 310 311 312 309 311 311 311 308 307 309 308 309 310 310 311 311 310 311 309 307 306 305 300 298 297 298 300 301 298 295 295 293 291 290 289 289
317 315 310 306 308 317 310 310 311 310 310 311 312 312 312 311 309 308 308 308 307 307 306 305 305 302 300 300 301 298 298 299 300 300 296 294 292 291 290 290 290 290 290 290
317 315 315 314 314 312 312 311 312 311 312 312 313 313 313 311 308 307 306 305 304 303 302 301 300 298 298 298 299 300 299 296 295 292 291 291 291 291 291 291 291 291 290 290
313 311 312 313 313 312 314 313 313 312 313 314 314 314 313 312 308 306 304 302 301 300 299 299 299 298 298 297 297 296 294 292 291 291 291 291 291 290 290 290 289 288 287 286
314 313 312 312 312 312 313 313 312 313 313 314 314 314 313 311 306 305 301 299 299 298 298 298 298 299 298 295 293 292 292 291 291 291 290 290 288 287 287 286 285 284 283 282
312 313 314 316 314 314 313 313 312 313 313 313 313 312 310 309 307 303 299 298 298 298 298 299 297 296 293 292 292 291 291 290 289 288 288 287 286 285 284 284 283 283 282 281

GFSCGP_850_thetae_063.txt.gz
Theta_e
317 319 321 319 316 316 317 319 319 319 319 319 320 319 320 330 330 330 329 328 328 328 327 324 322 323 323 324 326 327 324 324 320 317 317 321 321 322 325 324 325 325 324 321
319 321 319 316 316 319 320 320 321 319 318 318 319 320 318 327 330 330 330 330 329 329 328 327 324 321 322 323 326 327 326 326 324 321 318 322 324 325 325 325 325 324 320 320
319 319 317 318 320 320 320 320 319 319 318 317 317 318 319 318 325 328 330 329 329 328 327 328 325 322 323 321 322 325 326 327 327 325 323 324 324 325 325 325 325 322 319 319
317 315 317 319 320 319 320 318 319 319 320 321 315 319 317 318 320 323 326 329 329 328 328 327 327 327 325 324 322 322 326 327 327 327 326 324 324 324 324 324 324 320 319 319
317 318 318 319 319 318 320 318 319 320 321 319 318 320 320 316 318 320 322 326 329 329 328 327 322 324 324 325 324 324 326 327 327 327 326 325 324 323 324 325 322 319 319 318
315 316 317 319 317 317 317 320 317 317 319 324 320 320 321 319 319 320 320 321 324 327 328 328 328 323 322 323 324 325 325 326 326 326 326 324 324 322 324 324 321 319 320 317
317 318 317 317 319 317 318 318 321 322 323 324 318 319 321 319 318 318 319 320 321 323 327 328 328 329 324 322 322 323 325 326 326 326 325 323 322 324 325 323 320 321 320 316
318 318 318 317 319 320 319 319 324 320 321 321 317 322 321 318 317 318 319 318 317 321 323 326 327 327 328 323 321 322 323 325 324 324 324 324 322 322 325 324 320 322 320 317
317 317 316 318 318 319 320 320 317 319 317 322 319 318 317 316 317 319 320 319 318 317 319 322 324 326 327 328 322 321 321 323 323 324 324 324 323 323 325 323 322 320 318 315
317 317 318 319 319 317 319 318 322 319 322 321 318 317 318 319 318 318 319 319 320 321 320 319 320 321 324 326 323 321 322 322 323 324 324 324 325 325 325 322 323 318 316 314
315 316 316 319 320 321 320 321 317 318 318 322 321 320 317 318 317 319 319 319 320 320 322 322 321 320 320 320 320 320 321 322 324 324 324 325 325 325 325 324 322 320 316 314
316 317 318 319 316 316 318 320 319 324 320 317 318 320 316 316 314 313 318 318 321 321 322 322 323 322 321 321 320 321 322 324 325 326 326 326 323 323 323 322 322 320 316 313
316 316 317 316 317 318 320 317 316 315 316 319 324 321 314 314 315 314 314 316 318 321 322 323 323 324 324 324 323 323 324 325 326 324 324 324 322 322 322 321 320 317 312 310
315 316 317 318 317 318 320 319 317 319 320 321 319 320 318 318 316 316 315 315 316 318 320 323 325 325 325 325 325 325 326 326 325 324 324 324 323 321 320 318 314 310 309 306
318 318 315 315 313 316 318 319 317 318 320 321 321 316 318 317 316 314 312 313 314 315 316 318 324 326 327 327 327 327 326 326 325 324 322 321 320 316 313 310 311 307 306 305
314 318 315 316 315 314 317 316 316 317 316 316 315 316 315 313 312 312 312 313 317 318 319 319 321 323 323 325 325 325 325 324 322 322 320 318 314 309 309 309 307 306 302 300
316 316 317 319 314 315 317 317 316 316 315 317 318 318 312 312 312 312 313 316 317 317 319 320 321 321 321 321 321 321 321 320 317 315 314 310 308 308 307 304 301 299 298 300
315 315 313 317 312 320 318 313 315 316 316 314 312 312 312 312 310 311 313 315 316 316 317 317 318 318 318 318 318 317 316 314 313 310 309 308 307 304 300 299 299 301 300 298
313 313 314 319 318 316 314 313 315 316 316 313 314 311 310 310 310 308 311 313 314 315 316 316 316 317 317 316 315 314 312 312 310 308 305 301 299 299 299 301 300 299 294 293
310 311 318 312 318 320 317 313 310 312 316 312 311 312 312 311 317 314 308 310 312 313 314 314 315 314 314 312 312 312 310 307 303 300 299 298 299 301 300 297 295 294 292 290
315 313 316 312 319 317 313 311 310 318 319 311 311 311 312 312 311 310 308 309 310 310 311 311 312 312 310 308 308 306 302 301 299 298 299 301 299 296 295 293 291 290 290 290
319 318 317 312 316 320 311 309 316 316 311 311 311 311 311 309 308 308 307 307 307 308 307 307 308 305 303 303 304 300 299 299 299 301 299 296 294 292 291 291 290 290 290 290
320 318 319 317 320 315 310 313 312 312 312 311 311 311 311 309 307 305 305 304 304 305 304 303 303 299 298 298 298 299 300 301 297 295 293 291 291 291 291 290 290 288 286 285
314 312 316 316 315 313 313 311 312 312 312 312 312 312 312 311 306 304 303 302 301 300 300 299 299 298 298 298 299 301 297 294 292 291 291 291 290 289 288 286 285 284 283 283
315 314 315 315 314 313 314 315 314 313 312 312 312 312 312 311 306 306 302 300 299 298 298 298 299 299 298 298 297 294 292 291 291 290 289 288 287 286 285 284 283 282 282 281
314 315 317 318 316 316 317 317 316 314 312 312 313 311 310 310 308 304 301 299 299 298 297 298 299 299 296 293 292 291 291 289 288 287 287 286 285 284 283 283 282 282 280 279

GFSCGP_850_thetae_066.txt.gz
Theta_e
321 322 322 320 320 321 320 321 321 321 322 322 323 323 322 326 330 329 331 330 329 328 327 327 327 328 325 325 326 326 327 328 326 324 322 321 322 324 324 325 324 321 321 323
322 323 322 321 321 321 321 321 322 322 321 322 323 322 322 324 329 329 329 330 330 329 329 326 326 327 327 328 327 327 329 329 327 326 323 321 320 323 325 320 323 323 323 324
322 322 321 321 322 322 322 322 322 322 322 323 322 323 322 322 327 330 330 329 330 330 330 329 326 326 327 327 327 328 330 329 328 327 323 323 324 325 324 323 324 323 324 322
321 321 320 321 321 322 322 321 321 322 323 323 321 321 321 322 324 327 329 330 330 330 330 329 329 328 328 327 326 328 330 329 328 327 326 324 324 325 325 324 323 324 324 321
321 320 320 321 321 321 322 321 322 323 324 324 323 322 322 322 322 323 325 328 330 330 330 328 328 328 328 328 327 326 328 329 329 328 328 326 326 326 327 323 323 324 323 320
320 319 321 321 321 321 321 323 323 323 324 324 323 323 321 321 322 323 323 322 326 330 330 330 329 328 328 329 329 327 327 327 328 327 327 327 327 327 325 324 323 324 322 319
320 320 321 320 322 321 322 324 324 326 325 324 322 322 321 321 322 323 323 324 323 324 330 330 330 330 328 329 329 325 325 327 327 326 327 326 326 326 324 322 324 324 323 319
320 320 320 321 321 322 323 323 324 322 322 322 321 321 321 322 321 322 323 324 322 323 325 328 330 330 331 329 327 323 323 325 325 325 326 326 325 323 322 323 324 324 324 319
320 319 319 320 321 322 323 323 322 324 324 324 322 321 321 320 321 322 320 323 324 322 324 325 328 330 330 330 329 322 322 327 328 324 325 323 324 320 321 324 323 323 322 319
319 320 319 321 321 321 323 322 323 324 324 322 321 321 320 320 320 320 321 321 323 325 322 322 323 326 327 329 329 329 328 327 327 326 324 323 324 324 324 323 322 324 322 320
319 320 321 322 322 322 323 323 323 323 323 323 322 321 320 320 320 321 321 321 322 323 325 323 322 322 324 326 327 328 328 327 327 327 324 323 323 324 324 324 324 324 321 320
320 320 320 320 321 321 322 323 324 323 322 323 324 322 320 321 321 320 321 322 321 323 324 326 325 325 325 325 326 326 326 326 326 327 326 324 324 324 324 322 322 323 321 319
320 320 320 320 320 321 321 322 322 322 322 322 326 322 321 320 321 320 320 320 320 322 324 326 326 328 328 327 327 327 327 327 327 326 325 325 325 324 323 321 322 321 317 311
318 319 320 321 319 319 320 320 321 321 323 321 321 321 320 321 321 321 320 320 319 320 322 325 327 327 328 329 328 326 325 325 326 326 326 325 325 323 322 321 319 315 312 310
320 320 320 319 318 318 318 318 319 320 320 320 321 321 320 321 321 321 319 317 317 318 318 321 326 328 328 328 326 325 325 326 326 325 324 322 321 320 319 316 314 311 309 306
319 320 320 320 319 318 318 319 319 320 320 321 321 321 320 320 319 318 318 317 319 321 321 321 323 326 325 324 323 324 323 322 321 321 320 319 317 315 312 311 309 307 306 305
321 320 321 321 319 320 321 320 320 321 321 321 321 320 320 320 320 318 318 318 320 320 320 321 321 321 320 322 321 320 320 319 317 317 316 314 312 310 308 308 307 305 303 303
321 321 322 322 319 328 320 319 320 321 321 321 321 320 320 319 318 316 315 319 317 317 316 316 316 316 316 316 317 316 313 312 313 312 311 309 308 307 306 304 303 303 301 300
320 321 323 327 322 320 320 316 319 320 321 321 321 320 318 316 314 314 312 315 315 313 312 312 312 312 312 311 310 310 311 313 312 309 308 307 306 304 302 303 302 300 299 297
317 318 323 320 323 330 321 319 318 319 321 320 319 319 318 315 320 319 311 310 309 309 309 309 310 310 310 308 308 311 309 308 307 304 302 301 300 302 302 299 297 296 294 293
320 319 324 323 327 323 320 315 315 320 323 320 318 318 317 318 318 314 309 307 307 306 307 307 307 307 307 306 306 305 303 302 301 300 300 300 301 298 297 295 293 292 292 291
322 323 324 321 328 327 315 313 319 322 319 318 317 317 317 315 310 308 307 306 305 304 304 304 304 304 304 304 304 302 301 299 299 299 301 299 296 294 292 291 291 291 290 289
320 321 324 322 323 321 315 319 317 317 319 316 317 316 316 310 308 306 305 304 304 303 303 302 302 301 301 300 300 298 297 299 300 297 295 293 291 291 291 290 288 287 286 286
317 316 321 320 320 319 318 316 315 315 315 315 314 315 313 310 307 306 304 303 303 302 301 300 299 298 297 297 297 299 299 296 294 292 291 291 290 289 288 286 286 285 284 284
319 317 319 320 320 317 317 317 318 315 313 313 312 313 311 309 306 305 304 302 301 300 299 298 297 296 296 298 299 298 295 293 292 291 290 288 287 286 285 284 284 283 283 282
317 319 321 323 321 320 320 318 318 316 315 313 312 311 310 307 306 304 303 301 299 298 297 296 295 297 298 298 296 293 292 291 289 288 287 286 285 284 283 283 283 282 281 280

GFSCGP_850_thetae_069.txt.gz
Theta_e
320 322 323 323 323 322 321 322 322 323 323 322 323 325 323 327 329 329 330 329 329 328 327 327 326 325 322 321 322 324 326 327 327 326 325 322 321 321 323 325 324 325 325 325
323 323 323 323 321 320 321 322 323 324 322 322 323 323 322 326 329 328 329 330 328 328 327 328 328 325 325 325 326 326 326 327 327 326 324 322 321 322 323 325 324 327 323 321
323 323 323 322 322 322 323 323 324 323 324 323 322 322 322 324 327 328 327 328 328 328 328 327 327 328 326 326 327 327 327 326 327 327 325 323 323 323 324 326 325 326 322 323
322 322 322 322 322 323 324 323 323 323 324 325 324 323 324 323 325 328 327 328 329 329 328 328 326 327 328 328 329 329 328 328 329 327 327 324 323 323 325 326 325 325 324 323
321 321 323 322 322 322 322 323 322 324 325 325 323 322 323 322 322 325 327 328 328 328 329 328 329 327 327 328 328 329 329 330 329 329 328 326 325 325 326 327 326 326 323 324
321 321 322 322 322 322 323 323 324 325 325 327 325 323 324 323 322 323 324 325 327 328 328 327 327 328 328 328 329 329 329 329 329 330 330 329 327 326 326 327 327 326 324 322
320 321 321 322 322 322 323 325 327 327 327 327 324 323 323 322 323 322 323 324 324 326 329 329 327 327 327 329 330 330 329 329 330 330 330 330 330 329 328 328 325 325 323 322
321 321 321 322 323 324 323 324 327 327 327 326 322 320 322 322 321 321 322 323 325 325 325 329 329 328 327 328 330 331 330 330 329 330 331 332 331 331 329 328 326 323 322 322
321 321 321 321 322 323 324 325 324 326 325 326 324 323 322 321 320 322 321 321 324 325 325 326 328 330 330 330 329 331 332 331 330 330 332 332 331 331 329 325 325 323 323 322
321 322 320 321 322 322 323 325 325 324 325 326 324 323 323 321 322 321 321 321 322 326 325 326 326 328 330 331 332 331 332 330 330 331 331 331 331 328 326 324 321 323 323 323
321 321 321 322 322 322 322 325 324 324 324 326 325 323 323 321 321 321 321 320 321 322 325 325 325 327 329 331 332 333 332 332 330 330 331 330 330 327 325 324 324 323 323 322
321 321 322 322 321 321 323 323 324 325 324 324 325 325 322 322 322 322 321 321 321 322 323 326 326 325 325 328 330 331 332 332 331 330 330 329 328 328 326 326 323 322 322 319
321 320 323 322 321 322 322 323 324 324 324 324 331 325 322 321 321 321 321 320 321 322 322 324 326 327 327 327 328 329 330 329 329 329 329 328 327 326 325 326 324 322 320 317
320 320 321 323 322 321 321 321 322 323 328 325 323 322 321 321 322 322 321 321 320 321 322 323 326 327 329 329 329 329 330 329 329 328 328 327 326 325 324 323 320 320 317 313
320 321 320 320 320 320 320 320 320 321 322 324 322 321 320 321 321 321 322 322 321 320 320 322 325 327 329 331 331 329 328 327 326 326 326 324 324 322 321 320 318 315 312 311
320 322 321 320 320 320 319 319 319 319 319 319 319 320 321 321 320 320 320 321 320 322 322 321 324 329 330 330 329 324 323 324 324 324 321 321 320 319 317 315 313 311 310 307
321 323 322 322 320 321 323 319 319 320 320 320 321 321 321 321 320 320 319 321 321 323 323 323 325 328 327 326 322 319 320 321 320 319 318 316 316 315 313 311 310 308 306 305
322 322 323 326 324 327 321 320 320 320 320 320 321 320 320 320 320 320 320 320 322 321 322 323 324 323 322 322 319 316 314 315 314 313 311 312 312 309 309 308 306 305 303 302
320 323 327 327 326 321 320 320 320 320 320 320 320 320 320 320 319 319 318 319 320 320 320 320 320 319 318 317 316 315 313 312 310 307 306 305 308 308 305 304 303 302 301 301
320 322 326 325 324 326 320 320 319 320 323 321 321 321 321 320 321 319 317 319 317 316 316 316 316 315 314 313 312 311 310 309 306 304 306 306 304 303 302 302 302 300 298 297
322 322 327 326 326 322 320 320 320 323 324 320 320 320 320 320 320 319 316 315 314 314 314 314 314 313 312 311 310 309 308 306 304 303 303 302 303 301 300 298 297 296 295 295
323 324 327 326 329 327 320 318 321 323 321 321 321 320 320 320 317 316 314 313 312 312 311 312 312 311 310 310 309 307 306 304 302 301 300 299 297 296 296 296 295 294 293 292
321 323 324 323 324 323 319 320 319 320 322 322 321 321 320 319 315 314 313 311 311 310 310 309 309 309 308 308 307 305 302 300 299 299 297 296 294 293 292 292 291 290 289 289
317 317 320 322 321 322 320 319 319 320 320 320 320 320 319 318 314 312 311 310 310 309 308 308 307 306 305 303 302 301 299 298 297 296 294 292 291 290 289 288 288 288 288 288
316 317 318 318 318 318 320 320 320 320 319 318 318 317 318 317 313 311 310 309 308 307 306 305 304 303 301 300 298 297 296 295 294 292 290 290 289 288 287 287 287 285 285 284
316 318 321 321 318 320 319 320 320 321 321 319 317 316 317 315 312 311 309 308 306 305 304 302 301 299 297 296 294 294 293 292 290 289 288 288 287 286 286 286 286 284 283 282

GFSCGP_850_thetae_072.txt.gz
Theta_e
320 321 321 322 324 324 323 322 322 323 324 324 323 324 324 325 326 328 329 328 327 327 328 326 325 324 321 318 317 316 316 319 322 321 323 323 322 320 322 321 322 322 321 324
322 322 321 323 324 321 321 321 322 324 324 322 322 324 324 324 327 327 329 328 328 327 327 327 324 322 318 317 320 322 323 324 324 322 322 321 319 319 321 323 324 323 324 324
322 322 323 323 323 322 322 323 323 324 324 324 324 324 322 324 326 327 329 329 329 328 327 327 325 322 321 320 321 324 325 326 323 324 325 323 322 321 322 324 325 322 323 328
322 322 323 323 323 323 323 323 324 323 323 324 324 326 324 323 324 327 328 330 326 327 327 327 327 326 323 323 324 325 326 328 327 326 326 324 323 322 323 324 325 324 322 327
321 322 322 323 322 322 323 323 324 324 324 325 325 326 324 324 324 326 327 329 328 328 326 328 327 328 325 325 327 326 326 327 326 325 328 325 323 322 322 323 326 326 323 327
321 321 321 321 323 322 322 323 323 323 325 327 325 325 325 324 323 324 326 327 329 330 328 328 328 327 329 328 327 329 328 328 327 329 326 328 326 324 325 327 326 326 325 322
320 320 321 321 322 322 322 324 326 330 329 330 326 326 324 325 324 323 324 326 328 328 330 329 329 327 327 328 328 329 329 328 329 330 330 327 328 326 326 326 326 326 326 325
321 321 321 321 322 323 323 324 329 333 332 329 325 323 320 323 322 322 322 323 325 326 329 328 328 330 328 327 329 328 329 328 329 329 331 330 327 329 328 326 328 326 326 325
322 321 320 322 321 322 324 324 325 328 329 332 326 325 323 322 321 321 321 322 324 325 325 328 329 327 329 329 329 329 329 329 329 330 330 331 331 329 329 329 329 327 326 324
322 323 321 321 322 321 322 324 326 326 329 329 323 323 326 323 322 321 321 322 322 324 325 326 327 329 328 328 329 329 330 331 330 330 330 330 331 331 330 330 328 325 325 325
321 323 323 322 321 321 322 323 326 325 325 328 329 326 324 323 321 322 322 321 321 323 325 325 326 327 330 330 329 329 330 331 332 331 331 330 332 331 330 330 327 326 324 323
321 322 323 322 321 321 322 323 325 328 326 328 330 328 324 324 323 322 322 321 321 321 323 325 325 325 327 330 332 332 331 332 332 331 331 331 332 329 329 328 327 324 324 322
321 322 323 323 322 322 322 322 323 324 325 327 330 326 324 323 322 321 321 321 320 321 321 324 326 326 325 327 330 331 333 333 333 332 331 330 331 329 327 326 325 323 321 319
319 323 323 325 324 323 322 321 322 325 328 327 327 324 324 323 322 322 322 321 322 321 321 322 325 326 327 327 328 329 331 331 332 331 330 330 330 328 325 323 322 321 320 318
321 324 323 321 321 321 321 322 322 322 323 325 327 323 322 322 321 322 321 322 322 321 321 321 322 327 329 329 329 329 330 330 330 329 329 328 327 326 323 321 320 319 318 315
319 322 322 323 321 321 321 322 322 321 321 321 322 322 321 320 320 321 320 320 321 321 323 322 321 328 331 332 331 330 329 329 328 328 327 326 325 323 320 319 318 316 313 311
321 321 321 323 322 320 320 321 321 320 321 320 321 322 321 322 321 321 320 320 320 322 324 323 323 331 331 331 330 329 326 325 324 324 324 323 320 319 317 315 312 311 310 309
321 322 321 324 322 324 321 321 321 321 320 320 320 321 321 321 320 320 321 320 321 323 324 324 328 329 328 327 326 323 320 320 320 320 319 318 317 314 312 311 310 309 307 305
319 323 323 324 324 322 321 321 321 321 321 321 320 321 321 320 321 321 320 319 321 322 323 325 325 325 323 323 321 318 316 315 314 314 313 311 310 310 309 308 307 305 303 302
317 320 324 325 324 325 323 321 320 321 322 321 321 322 322 321 324 322 319 320 322 321 321 322 322 321 320 318 316 314 312 310 309 308 307 307 309 309 307 304 303 302 301 300
320 321 323 323 324 324 321 320 320 322 323 321 321 321 321 322 323 320 319 321 320 319 319 319 318 317 317 315 314 313 311 308 306 306 307 307 305 304 303 302 301 299 297 296
322 322 324 323 324 325 321 320 320 321 321 321 321 321 321 321 320 319 318 318 317 316 316 316 315 314 313 312 311 310 308 306 305 304 304 303 302 301 300 299 296 295 295 294
316 320 324 323 324 324 322 320 320 320 321 322 322 322 322 321 319 318 317 316 315 315 315 314 314 312 311 311 310 308 306 305 303 301 300 299 298 296 296 296 294 292 291 290
317 318 317 316 320 322 322 321 320 320 320 321 321 321 321 321 319 317 316 315 314 313 313 312 311 311 310 309 308 306 303 301 300 299 297 296 294 293 291 290 289 290 289 289
318 317 317 317 317 317 316 318 320 320 320 320 320 319 319 321 318 316 315 313 312 311 311 310 310 309 307 306 304 301 300 300 298 296 294 292 291 290 289 289 289 288 288 286
315 316 320 324 318 319 320 318 319 320 320 322 320 319 318 319 318 315 313 312 311 310 309 308 307 305 302 300 299 298 297 296 294 292 290 290 289 288 288 287 287 286 285 284

GFSCGP_850_thetae_075.txt.gz
Theta_e
319 317 318 316 317 319 320 322 319 320 322 321 320 320 321 324 324 325 326 324 325 324 322 321 322 322 321 321 320 319 318 317 315 314 313 312 314 315 318 321 320 320 319 314
319 319 319 319 319 320 322 319 319 319 323 322 320 319 320 320 325 326 326 326 326 326 325 324 322 322 321 317 316 315 314 314 314 314 315 315 316 317 320 321 321 322 322 320
319 320 320 320 320 321 320 320 319 321 321 321 321 320 321 322 325 327 328 327 326 326 326 325 322 320 318 316 316 318 319 319 318 316 318 321 322 321 320 322 322 322 322 320
317 319 321 321 321 322 321 321 322 323 320 320 321 322 322 322 323 325 328 327 326 327 326 325 323 318 316 317 319 321 322 322 321 320 321 321 321 321 319 318 321 321 323 322
317 319 320 321 322 321 321 322 323 323 321 321 323 325 322 321 323 324 328 328 327 326 326 324 324 324 318 318 320 322 323 325 324 321 322 324 323 322 321 321 322 324 325 324
317 318 318 319 321 321 321 321 321 322 321 322 323 325 321 320 321 323 326 328 328 327 327 327 326 325 323 322 321 324 323 324 327 326 325 326 325 322 321 323 322 323 324 325
318 317 318 319 319 320 320 321 323 325 323 324 324 325 323 322 321 321 324 329 326 326 327 327 327 325 325 325 324 325 326 326 327 326 326 326 327 324 322 321 322 323 323 325
317 318 318 319 319 320 319 320 324 328 328 329 326 326 320 322 322 321 322 327 328 327 327 328 327 327 327 327 327 326 326 326 326 327 327 326 327 326 324 323 324 326 326 325
317 318 319 319 320 320 322 321 322 327 326 327 325 323 322 320 318 319 320 321 327 328 328 326 328 328 328 327 327 327 327 328 328 326 328 329 328 327 327 324 325 326 326 326
319 321 320 319 319 319 320 322 322 323 327 329 325 323 323 321 322 319 317 320 322 324 327 329 328 328 328 328 327 327 327 327 327 327 327 329 330 328 327 327 327 326 325 325
317 318 320 320 319 320 320 320 321 324 324 322 322 322 321 321 320 318 317 321 321 322 323 323 326 328 329 328 328 327 327 328 328 328 327 329 330 330 329 329 329 329 326 325
316 320 320 319 319 320 320 320 321 325 325 323 320 321 321 319 320 319 319 320 322 324 324 323 322 325 328 329 329 328 328 328 327 327 329 328 329 330 328 329 329 326 325 326
318 319 320 320 319 320 319 320 320 322 322 323 321 324 322 321 319 320 320 321 321 322 324 324 323 320 325 328 329 329 329 329 329 327 330 330 330 330 328 327 326 326 326 324
318 320 320 320 320 321 320 320 320 320 320 321 322 323 322 321 320 318 319 320 321 321 321 324 324 323 320 327 330 330 332 331 331 331 330 330 329 329 328 327 327 325 323 323
318 319 318 319 320 321 321 321 319 319 321 325 322 323 322 319 318 319 321 321 321 321 321 321 324 325 325 324 324 330 333 332 331 331 330 330 330 329 327 327 325 324 322 320
317 318 318 319 320 319 320 320 319 319 320 319 319 322 320 320 319 320 320 321 321 321 320 321 324 326 327 327 325 326 329 330 330 330 329 329 327 327 326 323 322 321 319 317
318 318 319 319 320 320 318 317 320 319 320 319 318 317 317 317 318 319 319 320 321 322 321 321 325 328 328 329 328 328 328 329 329 328 326 325 324 323 321 320 319 317 315 312
319 321 319 319 318 321 319 319 319 319 319 318 318 318 317 317 319 320 320 320 321 321 321 323 325 329 330 330 330 329 328 327 326 325 324 322 321 320 318 317 315 313 312 310
317 320 319 320 320 320 320 319 319 319 318 318 318 318 317 319 320 320 320 320 320 321 323 324 328 330 330 330 328 326 324 322 321 321 320 319 319 317 315 313 311 310 308 306
317 317 318 318 321 320 320 319 319 319 318 319 319 318 318 319 316 316 320 319 321 322 322 324 326 327 327 326 324 322 319 319 318 317 316 314 313 312 310 309 308 306 304 302
314 315 318 315 320 319 320 319 319 319 316 319 320 319 318 317 318 320 319 320 320 321 322 323 324 324 323 321 319 317 316 314 313 312 311 310 309 309 308 306 304 302 301 301
317 316 317 317 320 323 319 319 319 317 319 319 320 321 321 320 320 319 319 320 320 320 320 321 322 321 319 317 315 312 311 308 308 307 307 308 306 304 303 302 301 300 299 299
318 318 319 320 317 318 321 319 320 320 320 321 320 322 322 319 319 319 319 319 318 318 318 319 318 317 316 314 313 312 310 308 306 305 304 303 303 303 302 300 299 297 296 296
315 314 316 314 315 315 320 318 319 320 320 320 320 320 320 320 319 318 318 317 316 316 317 316 315 314 312 312 311 310 307 305 304 303 301 300 299 298 297 297 295 294 292 291
314 314 315 315 313 314 316 317 316 317 318 319 319 320 319 320 320 318 317 316 315 315 315 314 312 311 310 310 307 306 304 303 301 299 298 297 296 294 293 292 291 290 290 289
313 314 315 314 314 315 316 316 316 316 319 319 321 320 319 318 320 317 316 315 314 313 312 311 310 308 304 304 302 301 300 300 299 296 294 292 291 290 289 289 288 288 286 285

GFSCGP_850_thetae_078.txt.gz
Theta_e
318 315 316 315 315 317 317 318 318 319 317 322 321 320 318 323 324 322 325 325 321 319 321 322 322 322 321 321 321 321 322 321 321 318 315 317 321 314 314 314 318 316 316 315
317 318 316 316 316 317 318 318 319 318 319 320 319 317 317 322 324 323 324 324 321 321 321 321 322 322 321 321 320 320 321 322 322 321 318 318 320 316 314 314 315 315 312 312
317 319 318 318 318 319 319 318 318 318 319 319 320 318 319 320 323 324 325 325 323 324 321 319 322 321 321 320 320 319 318 318 318 318 316 315 314 314 314 314 314 314 314 320
313 316 318 319 319 319 319 318 320 321 320 320 319 320 319 320 323 325 325 324 325 325 323 319 319 318 317 316 315 315 315 316 315 314 313 313 314 314 316 318 319 320 320 321
314 316 317 318 319 319 319 320 321 322 321 319 320 321 319 319 323 326 325 326 325 326 326 323 319 317 317 316 316 316 315 313 314 314 314 315 315 316 318 319 319 320 321 320
313 315 316 318 319 319 319 320 320 320 319 321 320 322 320 319 320 325 325 326 325 325 326 325 324 319 317 317 318 318 319 320 318 315 316 319 320 319 317 316 318 318 318 320
313 314 315 316 317 317 318 318 320 321 321 322 323 323 322 321 318 322 326 325 326 326 326 326 325 323 318 317 317 319 320 322 322 321 320 319 319 318 320 319 319 319 319 321
316 317 315 316 316 318 317 318 320 324 324 325 324 325 321 318 320 321 324 326 325 325 326 326 325 325 324 320 319 319 321 323 324 325 325 322 323 323 324 323 322 321 321 321
316 316 316 316 317 318 319 319 320 323 325 323 324 322 320 318 318 318 321 327 326 325 326 326 326 325 326 325 323 322 321 323 324 324 325 326 326 324 324 326 324 322 321 321
316 317 316 317 317 317 319 319 321 322 327 327 324 323 321 320 319 317 317 324 326 326 326 326 326 326 326 326 326 324 323 321 323 325 326 326 326 326 326 325 326 323 322 322
316 316 317 317 316 317 318 319 320 321 323 323 322 321 318 320 319 316 315 322 325 326 326 326 326 327 327 327 326 326 325 325 324 325 326 326 326 326 328 327 326 325 324 325
315 316 317 317 317 317 318 319 319 321 323 321 319 322 317 318 316 315 316 321 321 323 324 325 327 327 327 327 327 327 326 326 326 326 326 326 326 327 327 328 327 326 326 321
314 316 317 317 317 317 318 318 319 320 321 322 322 322 319 317 319 318 317 319 320 322 322 322 324 325 326 327 327 327 327 327 327 328 328 329 329 328 328 327 327 327 324 320
317 317 317 317 318 318 319 319 319 320 320 320 320 320 321 321 319 319 318 319 320 321 324 323 323 323 321 321 326 328 327 327 327 327 327 328 329 327 328 328 327 327 326 323
317 318 318 317 319 319 319 319 319 320 319 320 319 320 319 319 319 319 320 318 320 321 323 324 324 323 323 323 326 328 328 328 328 328 328 328 327 329 330 329 328 326 325 324
316 316 318 319 319 319 319 319 320 319 317 318 320 320 319 320 320 318 319 320 320 320 319 320 321 324 325 323 322 324 328 329 330 330 330 329 330 330 328 326 325 325 322 321
316 317 317 318 319 319 319 319 320 319 318 318 318 317 317 317 316 315 318 319 320 321 320 320 320 320 324 325 325 325 327 330 331 331 329 329 326 325 326 325 323 321 319 318
314 315 315 316 316 322 318 317 319 319 318 317 316 316 315 315 318 318 319 320 320 321 321 321 320 322 325 326 326 327 329 329 328 327 326 324 324 324 322 321 320 319 318 317
314 316 315 317 318 319 319 318 317 318 317 316 316 316 316 317 318 318 319 319 320 321 321 321 322 324 326 327 327 327 326 326 325 325 324 323 322 322 321 319 318 316 314 312
316 315 316 315 318 317 317 317 317 317 318 317 316 316 317 316 315 314 320 320 321 321 320 319 321 325 328 328 328 327 326 325 322 320 320 320 319 318 317 315 314 312 310 308
313 314 315 313 318 317 318 317 318 320 316 316 318 318 317 315 316 319 320 320 320 318 319 321 323 325 328 328 327 324 322 320 318 317 316 315 314 313 312 310 309 308 307 305
315 315 317 316 318 320 316 319 318 316 317 318 320 320 320 320 320 320 319 319 320 320 322 323 323 324 324 323 321 319 317 316 314 312 311 310 310 309 309 308 306 304 303 302
314 317 317 315 315 316 316 318 317 319 319 320 321 321 320 319 319 319 319 320 321 322 322 322 322 321 320 319 317 315 313 311 308 307 306 307 307 305 304 303 302 301 301 299
314 315 316 315 316 316 316 316 317 317 318 319 319 319 319 319 318 319 320 320 320 320 320 320 319 318 317 316 315 313 311 309 307 307 305 304 303 303 302 300 298 297 295 295
310 313 314 313 312 313 314 316 314 316 317 319 320 320 319 319 319 319 319 318 318 318 318 317 316 314 311 311 310 309 308 307 305 303 300 299 299 297 296 295 293 292 292 290
311 312 311 311 312 313 314 314 314 315 315 317 318 319 318 318 319 318 317 316 316 316 314 314 312 311 309 308 307 305 304 304 303 301 297 295 294 293 292 291 290 289 288 287

GFSCGP_850_thetae_081.txt.gz
Theta_e
315 314 316 315 313 316 316 317 316 316 316 317 317 319 317 321 323 323 325 324 321 318 319 322 321 319 321 321 322 322 321 322 319 317 316 321 319 317 315 319 319 317 318 317
315 317 316 314 314 315 316 316 316 316 316 317 317 318 314 319 321 322 323 324 321 318 318 321 321 322 321 322 323 321 322 322 320 317 317 320 318 316 320 317 315 315 315 316
314 316 316 316 316 317 316 317 317 316 317 316 318 317 317 320 322 323 322 324 323 319 319 322 321 322 321 321 320 320 321 321 320 318 317 318 317 316 318 314 315 316 316 317
312 314 316 316 317 317 318 317 318 317 317 320 318 319 317 318 322 323 323 324 324 320 321 319 322 321 321 321 320 320 320 320 320 319 313 312 314 319 315 314 314 317 316 315
312 313 314 316 318 317 318 318 318 318 318 318 319 319 317 319 322 322 323 324 324 323 323 321 319 318 317 320 320 319 319 320 321 321 319 317 317 319 315 314 314 315 314 314
311 314 314 315 316 317 318 318 318 317 317 320 319 319 318 316 319 323 323 324 324 324 324 324 320 317 316 316 314 314 316 317 318 319 319 319 318 318 318 315 314 314 314 314
312 312 313 316 316 316 317 317 318 319 319 320 319 321 320 318 317 321 324 324 326 325 325 325 324 319 317 316 315 314 313 314 316 315 315 315 315 314 314 314 315 315 314 314
315 314 312 312 315 316 316 317 318 322 321 320 323 325 322 318 317 319 324 325 326 325 326 326 326 324 319 317 316 317 317 316 314 313 314 315 315 315 315 316 316 314 313 313
315 314 314 313 315 316 316 317 317 319 322 322 322 321 319 317 317 317 321 324 325 326 326 326 326 326 323 319 317 317 317 318 318 318 317 317 317 317 318 318 318 318 318 318
315 316 315 315 314 315 316 317 320 320 324 326 322 322 322 319 317 315 318 323 325 325 325 325 326 326 326 324 321 318 317 317 318 320 321 321 321 320 320 320 321 322 323 323
313 314 316 315 315 315 317 318 318 319 319 321 322 319 316 319 317 315 314 323 324 325 325 326 326 326 326 325 325 323 321 319 319 320 322 323 324 325 325 325 325 325 324 325
317 314 315 315 315 315 315 317 319 319 321 319 319 320 317 316 316 316 315 319 324 324 324 325 326 327 326 326 325 325 325 324 322 321 321 321 323 324 325 325 325 326 326 327
316 316 315 316 315 315 316 317 317 318 318 320 321 320 317 316 316 315 315 317 319 323 325 325 326 326 326 325 326 326 326 326 326 326 324 322 322 323 324 325 326 326 326 326
315 318 319 317 315 315 317 317 317 319 318 318 321 320 319 318 317 317 319 319 318 321 323 325 325 325 324 325 325 325 326 326 326 326 326 326 325 325 325 325 326 326 327 327
316 317 317 316 315 318 318 318 318 318 317 318 318 320 320 318 317 317 321 321 319 317 320 322 322 323 323 324 324 324 324 325 326 327 327 326 326 327 328 328 327 327 328 327
312 316 316 317 315 316 318 320 319 318 318 317 317 318 317 317 318 318 320 319 319 319 320 321 322 323 322 322 321 323 323 325 326 326 326 327 327 327 328 327 323 326 325 326
308 313 314 317 318 319 320 319 319 319 317 316 318 317 317 317 316 316 319 320 318 319 320 320 323 323 322 323 322 322 322 324 326 326 327 327 327 327 327 326 325 325 323 323
310 310 313 313 314 321 318 316 317 318 318 317 316 316 316 315 319 321 320 320 320 319 320 321 321 320 321 323 324 324 324 326 327 328 328 329 327 325 324 323 323 322 321 321
311 311 314 317 316 315 317 317 317 318 318 317 315 315 314 316 315 316 319 318 319 319 319 320 320 320 320 322 324 326 327 328 329 329 326 324 323 324 324 323 321 320 319 318
312 312 313 315 319 316 314 315 316 317 319 316 316 315 314 315 315 314 319 318 319 319 320 320 321 321 322 323 325 325 326 326 325 323 322 322 320 320 320 319 318 317 315 314
313 312 315 316 318 314 314 316 317 320 317 317 317 317 315 315 316 318 319 319 319 320 321 321 320 320 323 325 325 325 325 325 322 319 317 317 317 317 316 315 314 312 311 309
312 313 314 315 317 317 315 318 318 316 317 316 318 319 317 319 319 319 319 320 320 321 321 320 321 325 326 326 326 325 323 319 317 315 315 314 313 312 312 311 310 308 307 305
313 312 314 315 314 313 315 317 317 316 316 318 319 320 320 319 318 319 317 319 321 321 322 324 325 325 324 322 320 319 316 313 312 311 310 310 309 308 307 306 306 305 303 302
310 312 313 313 313 313 314 314 316 316 318 317 319 319 319 318 318 318 319 320 322 323 323 323 322 321 319 317 315 313 312 309 307 306 306 306 306 305 304 302 302 301 300 297
309 313 314 313 312 313 314 315 315 315 316 318 318 319 319 319 319 319 319 321 321 321 321 320 320 318 315 313 312 310 310 309 309 307 306 304 303 303 302 300 297 295 294 293
310 311 312 312 312 312 312 313 313 313 314 315 318 319 319 318 318 319 317 318 318 318 317 317 316 315 311 311 309 308 307 306 306 305 301 300 298 295 294 294 293 292 291 289

GFSCGP_850_thetae_084.txt.gz
Theta_e
313 312 314 314 313 313 314 316 316 314 314 316 314 313 314 318 322 322 325 326 325 320 319 321 321 321 322 323 323 322 323 323 322 320 319 317 317 317 316 315 316 318 320 317
314 314 314 313 313 314 315 316 315 314 314 315 315 315 315 316 320 322 323 325 325 321 318 321 322 320 321 321 322 322 322 322 323 321 319 316 314 319 320 321 319 318 317 316
314 315 315 314 314 315 314 315 315 314 314 314 315 315 315 317 320 322 322 323 324 323 319 320 321 320 320 321 321 320 320 321 321 320 318 320 317 317 321 319 316 318 318 318
312 313 314 315 315 315 315 314 315 316 316 317 316 318 316 316 316 321 321 322 323 325 319 319 318 320 321 320 321 319 319 321 321 320 318 317 317 316 320 318 317 320 318 317
312 312 313 314 316 315 316 315 316 317 316 316 317 318 316 317 318 318 320 322 323 325 322 321 320 318 319 320 320 321 321 321 321 320 318 318 319 315 315 316 320 319 318 316
310 312 311 312 315 315 317 317 317 316 316 318 317 317 316 316 317 319 319 322 323 323 325 322 322 318 317 319 320 320 319 320 320 320 320 319 319 317 316 316 318 315 314 315
312 311 312 314 314 314 316 315 317 319 319 320 316 318 318 317 315 316 317 321 322 324 325 324 324 320 317 317 318 318 319 319 320 320 320 318 316 317 316 315 315 314 314 314
308 309 311 311 314 316 315 315 317 322 321 319 319 321 320 318 317 318 318 319 323 323 324 325 324 323 318 317 316 315 315 317 318 319 320 320 320 318 317 317 318 315 314 314
314 312 312 312 313 314 314 317 316 317 319 321 319 319 318 318 316 315 316 322 324 324 325 325 325 325 322 317 316 315 315 314 314 315 316 317 318 318 318 317 317 318 316 314
311 315 314 314 312 312 314 315 318 317 321 323 320 321 320 320 318 315 316 320 323 324 324 325 325 326 325 323 318 316 315 316 316 314 314 314 314 314 314 314 314 314 314 315
315 311 311 312 313 313 314 315 317 317 317 320 321 319 315 318 317 317 313 318 322 323 324 324 325 325 325 325 324 321 318 316 316 317 316 316 316 316 315 315 316 317 317 318
315 316 314 313 312 312 313 314 315 317 319 317 317 318 316 315 316 315 315 317 321 321 322 323 324 325 325 325 326 325 322 320 318 317 317 317 317 319 320 321 322 322 323 324
312 317 318 314 314 314 313 314 315 317 316 318 320 318 316 315 315 316 316 319 318 320 322 323 324 324 324 325 325 325 325 325 323 320 320 319 318 318 320 321 322 323 323 324
312 314 317 319 317 316 316 314 315 317 317 318 319 318 319 317 317 315 316 317 318 319 320 322 323 324 324 324 324 324 324 324 324 324 324 323 323 322 322 322 321 322 322 323
313 313 313 314 316 316 317 316 315 316 316 317 317 317 317 316 316 316 320 319 319 318 319 322 323 322 322 323 323 322 322 324 324 324 325 325 325 324 324 324 323 323 323 324
310 311 312 313 311 315 316 316 316 316 316 316 315 315 315 316 318 316 318 320 319 319 319 320 321 321 321 321 321 322 322 323 324 324 324 325 325 325 325 325 325 326 325 325
310 312 312 312 312 314 316 314 317 317 316 316 317 315 314 315 314 315 318 319 319 321 321 320 319 320 321 321 322 323 322 323 324 325 325 325 325 325 325 326 326 326 325 323
308 310 309 314 314 321 317 314 315 316 316 314 315 314 314 314 317 318 319 319 320 321 321 320 319 320 322 322 322 323 323 323 324 325 325 325 325 325 325 325 323 322 322 322
308 310 312 314 316 316 315 316 316 316 317 315 315 314 314 317 314 314 318 319 321 321 320 320 319 319 320 322 322 323 323 324 324 325 325 324 324 323 323 322 322 322 321 320
309 309 311 314 316 317 315 313 315 316 317 315 314 314 315 314 313 312 318 318 318 318 318 318 318 319 320 320 322 324 325 325 325 324 323 321 321 321 321 320 321 320 318 316
310 311 312 313 316 315 315 314 314 317 315 315 315 315 315 314 314 318 317 317 317 317 317 317 318 320 320 322 323 324 324 322 321 321 320 318 316 316 316 315 314 314 313 312
309 312 313 314 316 316 312 313 318 315 316 317 317 318 317 318 319 317 316 317 319 319 320 321 322 322 323 323 323 323 320 318 317 315 314 314 314 313 312 311 310 309 309 308
308 309 310 312 314 312 310 312 311 312 317 316 317 318 318 319 319 317 317 319 321 321 322 323 323 322 321 323 323 322 316 314 313 312 312 311 311 310 309 308 308 307 305 305
306 309 310 311 310 310 310 310 311 314 315 316 316 316 318 317 316 317 317 319 320 321 320 321 323 322 319 318 316 315 312 310 309 308 307 307 307 307 306 305 304 303 302 301
305 307 308 310 311 312 312 312 311 312 313 315 314 315 317 318 316 316 318 319 320 320 319 319 319 317 313 313 312 311 310 309 308 307 306 305 305 304 303 302 300 298 296 293
306 306 308 308 309 309 309 309 311 313 314 313 316 316 317 317 317 317 316 318 318 318 316 318 315 313 310 311 310 308 306 306 307 306 303 301 300 298 297 296 294 292 293 292

GFSCGP_850_thetae_087.txt.gz
Theta_e
314 316 318 318 317 315 315 316 317 317 316 316 317 317 318 317 320 322 323 325 325 324 321 321 321 321 322 323 323 324 324 324 323 322 321 321 319 318 319 318 316 321 316 317
314 316 316 315 315 317 316 317 317 316 315 316 318 319 319 317 320 321 323 325 325 323 320 320 320 320 321 322 322 323 323 323 322 322 320 320 319 320 320 318 315 319 318 318
315 315 315 315 315 317 317 318 317 317 316 316 317 320 320 318 319 321 322 323 324 324 321 320 322 321 320 321 322 322 322 323 322 321 320 319 316 319 318 318 318 316 316 315
313 313 315 315 316 316 317 316 316 316 317 316 318 322 320 320 319 321 322 322 323 324 323 320 320 319 319 320 320 321 321 321 322 322 321 321 316 317 317 316 316 317 316 316
314 313 314 315 316 315 316 316 317 317 318 318 319 320 321 317 320 321 320 322 322 322 324 320 320 318 320 320 320 319 320 320 321 321 321 320 316 316 317 317 316 317 318 317
312 311 313 314 314 315 316 317 317 317 319 322 320 320 321 321 321 321 320 321 322 322 323 323 321 319 318 319 319 320 319 320 320 321 320 318 316 316 318 320 319 317 316 318
312 312 312 314 314 315 317 318 320 322 322 322 319 320 322 320 319 319 321 320 321 322 323 324 321 322 318 318 319 320 319 320 321 320 320 319 318 317 317 316 320 317 316 318
309 309 312 312 315 316 317 319 320 319 323 322 318 322 321 320 320 319 318 317 318 321 323 324 324 323 319 317 317 317 318 319 320 321 321 320 318 318 315 315 316 315 315 320
315 310 312 312 314 316 316 317 317 318 320 323 322 322 320 320 320 318 317 319 321 322 322 323 325 324 323 317 316 316 316 317 318 319 320 321 320 319 319 317 315 316 316 319
315 314 313 313 312 313 316 316 318 318 318 320 321 322 321 321 321 320 319 319 322 322 323 323 324 325 325 323 317 316 315 315 315 317 319 320 320 319 318 318 318 317 316 316
314 315 314 313 313 314 314 315 317 318 319 320 321 322 321 322 321 320 321 317 319 322 323 323 324 325 325 325 323 318 316 315 315 315 315 315 316 317 318 318 317 317 317 317
314 316 319 316 315 314 313 314 315 317 317 321 321 321 317 321 319 320 319 319 317 319 322 323 323 324 324 325 325 324 319 317 316 315 315 315 315 314 314 314 314 314 314 314
308 313 311 316 314 315 316 315 315 316 317 318 321 320 317 317 317 317 318 319 321 318 319 321 323 323 324 324 325 325 325 323 319 318 317 316 316 315 315 315 315 316 318 319
311 312 308 310 317 315 314 315 316 318 319 318 319 318 320 319 319 319 318 319 319 319 317 320 322 322 323 323 324 324 325 325 324 322 319 318 319 319 317 317 317 318 319 320
312 312 312 313 312 313 314 314 315 317 319 317 317 317 318 319 320 320 320 319 319 320 320 318 319 321 322 323 323 323 324 324 324 324 324 323 320 319 318 318 318 318 319 320
311 312 311 311 312 313 313 313 314 317 318 318 316 317 317 318 317 317 317 318 318 320 321 321 319 320 321 320 321 321 322 323 324 323 323 323 323 322 322 321 320 320 321 322
306 308 310 312 312 312 313 314 316 317 317 317 318 318 317 317 317 316 317 317 318 319 320 321 322 321 321 320 321 321 322 323 323 323 323 323 323 323 323 323 322 323 323 324
307 307 308 309 311 312 311 313 316 316 317 317 317 317 317 317 318 318 318 317 318 318 318 319 320 321 320 319 321 322 322 323 323 323 323 324 324 324 324 323 323 323 323 322
305 306 307 309 310 312 310 316 316 317 319 317 316 317 316 316 316 316 316 316 317 317 319 319 319 320 319 318 320 321 322 322 323 323 324 323 323 323 323 322 322 321 321 321
305 306 308 309 312 314 313 316 314 316 320 316 317 317 317 316 318 319 317 316 317 317 316 318 318 318 316 318 320 322 322 323 322 322 323 322 320 320 321 320 320 320 319 317
308 308 308 308 308 310 315 314 316 318 317 312 313 316 317 317 316 315 315 316 316 317 315 314 316 316 318 319 321 322 321 322 322 322 321 321 319 319 318 317 316 316 315 312
310 311 310 309 310 312 312 314 315 314 312 312 312 315 316 317 316 316 317 318 318 318 316 317 318 318 317 318 321 320 321 319 318 319 318 316 314 314 314 313 312 311 309 308
308 311 313 312 313 312 310 312 311 311 312 312 312 314 316 317 315 316 317 318 319 318 315 316 317 318 318 319 320 319 316 314 313 312 311 311 311 310 309 308 307 306 305 304
306 307 311 311 310 311 310 310 311 311 311 311 312 314 316 316 315 315 316 315 315 318 316 313 315 316 315 316 315 313 311 310 310 309 308 308 307 306 304 304 303 302 301 300
306 308 309 309 309 309 308 311 310 309 310 313 313 314 315 316 315 314 313 314 314 313 312 314 316 313 311 311 311 309 309 309 308 307 305 305 304 303 301 300 298 298 295 294
306 308 309 310 308 308 308 309 308 308 312 313 314 315 315 316 316 316 316 316 315 312 312 314 312 311 310 310 309 307 307 307 307 305 303 301 299 298 297 296 294 293 292 292

GFSCGP_850_thetae_090.txt.gz
Theta_e
314 317 318 318 318 318 318 319 319 319 319 319 318 319 322 322 322 324 325 327 328 329 327 325 324 321 321 324 324 325 325 324 324 326 326 325 323 320 319 319 317 315 315 316
317 317 316 317 318 318 318 317 318 319 319 318 319 320 322 323 323 324 325 327 328 328 326 325 324 321 322 324 324 323 324 324 324 324 325 325 323 319 318 318 318 315 316 316
317 317 316 317 317 317 318 319 319 319 319 319 319 320 321 322 322 323 324 325 327 328 327 325 324 323 322 323 323 324 323 325 323 322 323 323 321 320 321 320 319 315 314 314
315 315 316 316 316 316 317 318 318 318 319 320 319 320 322 323 323 323 323 325 326 328 327 325 324 322 321 321 322 322 323 323 323 322 322 321 321 320 318 319 316 317 315 318
315 315 315 316 317 315 317 317 317 318 320 320 319 318 321 322 322 323 324 324 326 327 327 325 325 322 321 322 321 322 322 323 323 322 321 320 320 322 319 317 315 317 319 317
315 314 315 315 316 317 318 318 319 319 320 322 320 319 321 323 322 323 323 324 325 327 327 326 325 323 322 322 322 320 320 322 322 322 321 320 320 319 319 319 315 315 317 316
311 312 314 314 315 315 317 317 320 322 323 322 319 320 321 323 323 323 323 323 325 326 327 327 325 324 322 320 320 320 320 320 321 322 322 321 321 319 320 318 317 318 317 316
310 310 310 313 314 316 317 317 322 323 323 322 321 322 322 323 322 323 324 324 324 326 327 327 326 325 323 321 319 319 319 321 321 321 322 321 322 320 321 319 319 317 317 318
314 310 313 312 313 314 317 319 319 321 319 322 323 323 323 323 323 323 323 322 323 326 327 327 327 326 325 322 321 319 319 320 321 320 320 321 321 322 321 320 321 321 320 320
314 316 314 315 314 314 314 317 319 320 320 321 322 323 323 322 322 322 322 323 324 326 327 327 328 327 326 324 321 318 318 319 321 321 321 321 321 321 321 320 320 320 320 319
313 317 315 315 316 316 316 317 318 319 320 321 322 322 322 322 322 322 323 323 324 326 327 327 327 328 327 326 323 318 316 317 318 321 321 321 322 321 320 321 320 319 319 319
308 315 317 317 316 316 316 317 317 320 320 321 322 322 321 322 323 323 323 322 322 325 327 327 327 327 327 327 325 323 318 316 316 320 321 320 321 321 321 321 321 321 320 320
308 314 314 314 316 317 317 318 318 319 319 319 323 321 320 319 320 321 321 322 322 322 324 326 327 327 327 327 327 325 324 320 317 317 317 318 317 317 318 319 319 319 319 320
306 309 308 310 312 314 314 316 316 317 321 320 320 319 319 319 319 321 321 322 322 322 322 325 326 327 327 327 327 326 326 324 322 319 318 317 316 316 316 315 316 317 316 316
308 307 309 310 310 311 311 312 314 316 316 320 320 320 319 319 319 318 318 320 321 320 319 323 325 326 327 327 327 326 326 325 324 323 321 319 318 317 317 316 316 316 316 316
311 311 310 311 311 311 311 311 311 313 315 316 317 319 319 318 317 318 319 320 321 321 322 321 321 324 326 325 323 323 323 324 324 324 323 322 321 320 319 318 318 318 319 320
308 310 309 309 311 312 312 313 312 312 314 317 320 319 319 319 318 318 319 320 320 321 320 320 321 320 323 321 323 326 323 323 323 323 323 323 323 322 321 321 321 321 320 320
307 308 308 309 308 308 308 311 313 313 316 317 320 319 319 319 318 318 319 319 320 320 319 319 320 321 320 319 322 323 324 323 323 323 323 323 323 322 322 321 320 320 321 322
307 308 308 310 309 308 309 312 311 316 316 319 319 320 320 318 318 319 319 318 318 317 318 318 319 319 320 320 318 320 322 322 323 323 323 323 323 323 323 322 323 322 322 322
308 308 309 309 309 310 315 313 315 316 317 317 317 318 318 319 323 320 318 318 318 317 316 317 318 317 317 317 318 319 321 321 322 322 322 322 322 323 323 322 321 321 320 318
308 307 308 309 309 310 309 309 313 317 317 314 315 315 316 318 319 320 319 320 317 316 318 316 317 318 319 318 318 319 320 321 321 321 322 322 321 321 320 319 318 317 315 314
310 310 310 310 311 311 310 313 315 314 312 312 313 313 313 314 317 318 319 317 316 316 316 316 316 315 316 317 318 318 319 319 320 320 319 318 317 316 315 314 313 312 310 308
309 311 312 311 311 311 311 310 309 311 312 311 311 313 313 313 315 317 315 313 314 314 315 314 314 315 315 316 319 320 316 316 315 315 314 313 312 311 310 310 309 307 305 305
308 307 310 310 309 309 308 310 310 312 311 309 311 313 315 314 316 314 313 311 312 312 311 314 316 315 312 315 315 315 313 313 312 310 309 307 308 306 307 306 303 302 301 300
308 308 308 309 309 308 308 308 308 309 309 310 310 311 314 316 314 315 312 309 307 311 313 314 314 313 310 311 309 309 310 310 308 307 306 305 304 304 302 300 298 298 296 295
308 308 309 310 309 309 309 308 310 309 310 310 309 311 316 317 315 314 308 301 300 306 310 312 311 310 309 309 308 307 307 306 306 305 303 302 300 300 299 298 295 293 293 292

GFSCGP_850_thetae_093.txt.gz
Theta_e
312 315 317 317 318 319 320 321 323 323 323 321 322 322 321 322 323 324 324 325 327 330 330 330 328 326 325 324 325 325 326 324 324 325 326 326 325 325 326 324 318 317 317 319
313 315 316 319 319 320 320 321 322 322 322 321 321 322 321 321 322 323 323 325 326 329 330 329 328 325 325 325 324 325 324 324 325 326 325 325 326 325 324 320 317 315 316 316
315 315 317 317 319 319 320 321 322 321 322 321 321 322 321 321 321 322 323 323 325 328 330 329 328 326 325 324 324 324 325 324 324 326 326 325 324 322 318 317 314 313 314 314
317 316 317 318 318 319 322 320 319 320 322 323 323 323 322 323 324 324 324 323 324 326 330 329 328 326 324 325 323 324 324 323 324 324 325 325 324 320 316 314 314 314 315 316
316 316 316 317 318 318 320 319 318 319 321 322 321 322 322 323 323 323 323 323 324 326 329 328 328 326 326 325 326 323 324 324 323 323 324 324 323 320 318 318 316 315 316 314
316 316 317 316 317 317 318 318 319 320 321 323 323 323 323 323 324 324 324 324 325 326 329 329 328 325 326 325 325 325 322 323 322 322 322 322 323 320 318 318 316 316 316 315
314 316 316 316 316 318 318 320 322 325 327 325 323 323 323 324 323 324 324 323 326 327 329 329 328 326 325 325 324 325 323 322 323 323 321 321 321 320 320 316 317 317 315 314
311 312 315 316 317 318 318 320 321 323 327 328 324 322 322 324 324 323 323 323 326 327 329 329 328 327 325 325 324 324 323 323 322 323 323 322 321 322 321 319 318 317 316 318
315 312 313 313 313 315 317 319 319 321 323 325 325 323 323 323 324 323 323 324 325 327 328 329 329 329 326 325 325 325 323 323 323 322 323 322 321 320 320 321 320 318 315 317
317 319 315 312 313 314 314 317 319 320 323 325 324 323 323 323 324 323 323 323 323 325 328 329 329 329 328 326 325 324 323 323 323 323 323 323 322 322 321 321 321 320 318 317
314 318 317 316 316 315 314 315 316 319 320 322 325 323 323 323 323 324 324 324 324 326 328 328 329 329 330 328 326 325 324 323 324 323 323 323 323 322 322 322 322 321 322 322
312 317 318 317 317 317 318 317 316 319 320 321 322 323 323 322 322 325 324 324 323 327 328 328 328 329 329 329 327 325 324 324 323 324 324 323 324 323 323 323 322 322 322 322
310 314 317 315 316 317 318 318 318 319 320 321 325 324 322 321 320 320 321 322 323 324 327 328 328 329 330 330 329 327 325 324 323 324 324 324 324 324 324 323 323 323 322 321
308 311 313 313 314 314 317 318 318 318 321 321 320 319 320 320 320 320 319 320 322 324 324 326 327 328 329 330 330 328 327 325 324 323 324 324 324 324 324 324 323 323 323 323
310 309 310 310 309 311 312 313 314 315 317 319 319 320 320 321 320 320 319 319 319 321 322 323 326 328 329 329 330 330 329 327 325 324 324 324 324 325 324 324 324 324 324 323
311 311 309 309 310 310 310 310 311 311 313 316 317 317 317 318 318 318 318 318 319 320 320 323 323 326 328 329 330 330 329 329 327 326 325 324 324 324 324 324 324 323 323 323
310 311 311 310 309 311 313 312 312 311 311 312 315 316 316 319 319 319 318 318 318 319 321 322 322 322 324 327 329 329 329 329 329 327 326 325 324 324 323 323 323 322 322 322
309 310 310 311 311 310 309 310 311 311 314 313 312 314 319 319 318 318 318 318 318 320 321 321 321 321 322 323 327 329 329 329 329 328 327 326 325 324 324 323 323 323 322 322
308 309 311 312 312 310 310 312 316 313 313 319 320 319 319 319 320 321 319 319 321 321 320 320 320 320 321 322 324 327 329 329 328 327 327 326 325 325 324 324 323 323 322 322
308 308 311 310 311 312 315 312 311 314 316 316 316 318 318 318 321 322 320 321 321 321 321 321 321 320 320 323 324 326 327 327 326 326 325 324 323 323 322 322 320 320 320 320
310 311 311 312 311 311 311 311 310 316 318 314 314 314 315 317 316 317 316 318 321 320 319 320 320 321 322 323 324 325 326 326 325 324 323 321 320 321 320 321 320 319 317 315
312 312 311 310 312 311 310 313 314 314 312 313 313 313 312 314 316 315 315 318 317 315 316 319 321 321 322 322 322 322 321 320 320 320 320 320 320 319 318 317 315 314 312 311
312 310 312 311 311 311 312 312 311 311 311 312 312 311 312 313 314 316 314 318 315 313 313 314 316 317 317 318 318 316 315 316 318 318 317 315 315 314 311 311 310 309 306 305
309 310 311 311 311 311 311 309 309 309 310 311 310 311 311 311 314 315 315 314 311 311 309 310 311 312 311 311 312 316 313 314 316 316 313 311 311 309 306 305 303 301 301 299
309 310 310 310 310 310 309 309 309 309 310 310 311 309 310 313 316 316 311 310 309 307 306 305 306 308 306 306 309 310 310 311 312 310 309 308 308 307 303 301 299 297 295 295
309 310 310 311 310 310 310 309 310 310 310 310 308 308 314 314 311 309 309 307 307 306 301 300 301 303 303 303 305 306 307 309 309 307 304 302 303 302 298 298 294 292 292 293

GFSCGP_850_thetae_096.txt.gz
Theta_e
311 310 312 315 317 317 320 321 322 322 323 324 324 323 322 323 322 323 324 324 324 328 330 332 330 328 327 325 324 326 326 325 324 325 325 326 326 325 326 325 326 323 324 324
314 311 313 314 316 318 318 319 321 322 322 323 323 322 322 323 323 322 321 323 325 327 332 331 329 327 325 328 326 326 325 324 324 325 326 327 326 326 325 326 325 324 323 323
314 314 314 314 314 316 320 321 322 322 322 323 323 323 322 322 323 322 321 323 324 327 331 331 330 327 325 326 327 327 324 324 324 323 324 326 325 324 325 324 324 324 322 318
317 317 316 315 316 315 317 320 321 322 322 322 322 325 324 324 323 323 322 322 323 323 331 331 330 328 325 327 326 325 325 323 324 324 325 324 324 324 325 325 324 316 315 313
316 316 316 316 316 318 318 319 320 322 322 322 322 324 323 323 323 323 324 325 324 324 331 330 329 328 326 325 325 324 325 324 324 324 325 325 325 325 325 323 316 314 314 314
313 314 315 316 317 317 318 319 319 319 321 323 322 324 324 323 324 324 324 324 324 325 330 330 329 328 327 325 325 324 326 324 323 323 324 324 322 323 322 319 316 314 314 314
311 312 314 316 317 317 317 318 321 323 325 326 323 324 325 324 324 324 325 325 325 326 330 330 329 327 327 326 326 324 323 324 324 323 324 323 322 321 319 318 316 314 314 314
312 311 311 315 317 317 317 318 322 323 328 326 327 326 325 323 323 323 323 323 325 327 330 329 329 327 327 327 323 325 323 324 324 323 323 323 322 321 319 317 316 316 314 315
316 316 313 314 316 316 317 319 319 321 322 327 326 326 326 323 324 324 324 323 326 327 329 330 329 327 326 327 324 323 324 322 324 323 322 322 322 321 320 318 315 315 316 315
319 319 314 314 315 316 316 318 319 320 322 323 323 326 326 325 325 325 324 324 325 326 329 330 330 329 326 327 325 323 324 323 322 325 323 322 322 322 321 321 319 318 316 315
315 316 318 313 312 313 313 314 315 316 319 321 324 325 324 325 324 325 325 324 324 324 328 329 330 330 327 327 326 326 325 324 324 324 322 323 323 322 322 321 321 319 316 316
313 313 319 318 317 317 318 315 315 317 318 320 321 322 322 323 322 323 323 322 323 325 327 329 329 330 330 327 326 325 325 324 324 324 324 322 322 322 322 321 321 321 321 319
310 313 316 316 316 317 317 319 317 316 317 320 323 322 323 323 320 320 321 320 321 324 327 328 329 330 331 329 327 326 324 324 325 324 324 324 323 324 322 322 321 322 321 320
309 309 311 316 314 314 317 318 319 319 321 320 321 320 322 322 321 321 320 320 320 320 323 327 328 329 330 331 329 327 326 324 324 325 324 324 324 323 323 323 321 322 323 323
309 307 308 309 310 310 310 313 315 316 318 319 319 319 320 320 319 318 318 319 319 319 320 322 325 327 329 331 331 330 328 326 325 324 325 325 324 323 324 323 323 323 323 322
310 310 310 309 309 308 309 310 311 312 313 313 316 317 317 317 317 318 318 318 318 318 319 319 321 324 327 329 331 330 329 328 327 324 324 325 325 325 324 325 324 323 323 323
310 310 311 311 310 309 311 310 309 309 310 310 312 314 315 317 317 318 319 319 319 319 318 318 320 322 325 328 329 331 330 330 328 327 325 324 325 325 325 325 325 324 324 324
310 310 311 311 311 312 311 310 310 311 312 312 317 314 312 316 318 318 319 321 321 323 323 322 322 321 322 323 328 329 330 330 330 328 326 326 325 325 325 325 325 325 324 324
307 308 312 310 311 310 310 311 312 316 317 318 319 319 319 318 318 317 319 318 318 319 322 322 321 321 321 320 321 327 330 330 330 330 328 327 326 325 325 324 324 323 323 322
307 309 311 312 311 312 314 312 311 312 316 315 315 315 315 315 319 318 316 316 317 318 319 319 319 320 320 320 321 324 328 330 330 330 329 328 326 325 325 324 323 322 321 321
309 311 311 312 313 312 312 311 311 313 318 314 314 314 314 314 314 314 315 317 316 318 316 317 318 321 322 322 322 324 327 330 329 329 328 327 326 326 325 324 322 322 320 319
310 312 312 311 311 312 311 311 314 314 312 312 313 313 312 313 313 313 313 316 316 316 313 314 316 319 322 323 324 325 326 327 328 327 326 324 323 324 323 322 319 317 316 313
312 310 311 310 310 311 311 313 313 311 310 310 312 312 312 311 311 312 316 316 316 314 311 311 312 313 315 318 321 322 321 319 320 321 321 320 319 319 317 317 315 313 309 309
311 310 310 312 312 312 312 312 310 310 310 311 311 311 309 309 312 315 314 313 313 312 309 307 307 309 310 312 314 317 318 316 316 318 317 315 315 312 308 306 303 300 299 299
310 310 311 312 311 311 311 311 311 311 311 311 311 310 309 313 313 311 312 311 311 310 304 303 303 304 304 304 306 307 308 310 312 311 307 304 303 302 301 299 296 297 294 296
309 311 312 312 311 311 311 310 310 310 311 311 309 308 310 309 308 308 309 309 305 304 300 300 300 299 298 299 300 299 300 302 304 303 301 299 298 296 295 295 293 290 291 291

GFSCGP_850_thetae_099.txt.gz
Theta_e
309 306 306 307 313 315 316 317 318 318 318 320 319 319 319 318 319 318 323 323 323 324 331 331 331 330 329 325 321 325 325 326 326 325 325 326 326 327 327 328 328 326 327 324
309 308 308 309 310 314 315 316 315 316 317 319 320 319 319 318 319 320 320 320 322 329 332 331 331 330 329 321 324 325 326 325 323 323 324 326 325 326 326 326 324 324 325 324
315 315 311 310 310 311 312 314 316 316 318 320 320 321 318 320 320 321 321 321 322 330 331 330 330 330 325 320 323 324 324 324 324 323 327 326 326 325 327 325 325 323 322 323
316 316 315 310 311 312 312 313 315 318 320 321 321 323 320 320 320 320 320 321 321 330 331 330 330 328 322 319 325 326 324 325 325 324 325 325 326 326 326 326 325 324 324 322
313 314 315 315 315 313 313 314 315 316 318 319 321 322 319 320 322 321 317 321 320 331 330 330 330 328 323 320 326 325 324 323 324 324 325 325 325 325 325 325 325 324 324 324
309 311 311 313 314 314 316 316 317 317 318 321 322 321 319 320 322 322 321 322 321 330 330 330 330 328 325 321 326 323 324 323 322 323 324 324 325 324 324 323 323 324 323 323
309 309 309 311 311 313 314 314 319 321 319 319 320 321 320 320 321 321 322 322 323 330 330 330 329 328 327 323 323 324 324 323 322 323 323 324 324 324 324 324 324 323 322 321
309 310 309 311 311 314 315 315 319 321 323 322 321 326 323 322 322 322 322 323 326 330 330 330 329 328 327 325 322 323 323 323 322 322 323 323 324 324 325 325 324 322 320 321
314 313 316 311 310 314 316 316 315 319 320 324 324 322 322 323 323 323 321 324 328 329 330 329 329 328 327 326 324 322 322 322 322 322 322 322 323 323 323 324 323 320 317 316
317 318 317 317 311 312 315 316 317 318 319 320 321 325 327 323 323 324 323 321 326 329 329 329 329 328 328 326 326 322 323 322 323 321 322 322 321 322 322 321 322 319 317 315
314 315 317 317 312 313 314 315 314 317 318 319 320 321 322 324 322 321 321 320 321 328 329 329 329 328 328 326 325 321 322 322 322 322 322 321 321 321 321 320 319 319 318 316
309 312 318 318 316 316 314 314 313 315 314 317 318 318 321 321 321 320 321 321 320 320 328 329 329 328 328 327 326 324 321 323 321 321 323 323 322 322 321 321 320 319 318 318
308 311 315 320 316 316 317 317 318 313 314 315 317 318 320 321 319 320 321 320 319 319 320 329 329 329 328 328 327 326 322 322 323 323 321 324 324 322 322 322 321 321 320 319
309 308 308 311 314 313 311 312 318 316 315 314 314 315 321 321 321 319 318 317 319 318 318 320 329 330 329 329 328 328 326 322 323 324 323 321 323 323 322 322 321 321 321 320
308 309 309 309 309 308 308 308 312 314 317 320 319 317 318 320 319 317 316 320 321 321 321 320 319 328 330 329 329 328 328 327 321 324 324 323 322 322 321 322 321 321 321 321
308 310 311 310 311 310 309 308 308 309 310 311 312 312 313 315 316 315 321 321 321 322 323 323 322 321 325 330 330 329 329 328 326 322 324 325 324 323 323 323 322 322 320 322
309 309 310 312 311 311 310 309 309 309 309 308 308 310 311 310 316 318 318 317 318 319 320 320 321 321 320 323 330 330 330 329 328 326 323 325 325 324 323 323 322 322 321 321
309 309 310 312 310 312 310 311 310 310 312 312 316 317 316 316 317 316 316 316 317 318 318 318 318 319 320 320 321 330 330 330 329 328 327 324 325 325 325 324 324 324 323 322
305 309 310 311 310 311 310 311 314 315 317 315 315 314 313 314 316 315 314 314 316 317 317 316 317 317 318 319 320 321 325 330 330 329 328 326 324 325 326 325 325 326 324 323
305 306 308 309 310 311 314 313 310 311 318 314 314 314 313 312 313 313 313 314 316 316 316 316 316 315 318 319 321 320 322 330 329 329 328 327 325 324 325 325 325 325 323 324
305 306 308 308 312 312 311 311 311 312 315 314 312 313 312 312 312 312 312 314 315 316 316 315 315 314 314 318 322 322 322 328 330 330 328 327 326 325 325 325 325 325 323 323
306 308 307 308 308 310 310 311 313 313 312 311 313 312 312 311 311 311 314 314 313 314 312 312 313 313 312 314 317 320 320 323 326 328 328 328 327 326 325 324 323 319 319 319
310 309 310 309 308 309 310 311 312 311 310 311 311 311 310 308 310 314 314 312 313 312 311 311 309 310 311 312 313 315 317 317 319 319 321 322 321 319 318 319 319 314 310 308
310 310 310 310 310 311 310 311 312 311 311 311 311 310 309 312 314 312 310 310 311 310 311 310 304 304 307 308 311 312 312 314 315 318 317 315 315 313 311 310 307 306 303 298
309 310 311 312 311 310 310 310 310 310 311 310 309 308 309 310 311 309 308 308 308 307 308 308 301 301 302 303 304 306 306 308 311 313 311 309 306 304 301 299 296 296 294 294
308 310 311 311 310 310 310 309 310 310 310 310 309 306 306 306 307 307 305 305 302 301 303 303 300 298 299 299 299 300 302 303 305 304 299 298 297 296 295 294 292 292 292 291

GFSCGP_850_thetae_102.txt.gz
Theta_e
308 305 306 306 313 315 316 316 316 316 316 315 315 314 315 316 317 315 318 320 321 321 330 332 332 331 330 329 327 320 324 326 326 326 325 325 326 326 328 330 327 329 328 328
309 307 307 307 307 310 314 315 315 315 314 314 314 316 315 317 316 318 318 319 321 320 330 332 331 330 330 329 323 321 325 324 325 326 326 325 325 326 326 328 327 329 326 326
315 312 309 308 307 308 310 313 314 314 314 314 314 317 318 318 318 320 320 319 318 322 329 331 330 330 330 329 320 322 324 324 325 324 324 323 325 325 327 327 327 327 325 323
314 315 315 311 308 308 307 309 310 312 313 314 318 320 318 318 319 319 319 320 319 323 328 331 330 330 330 328 320 323 325 324 324 323 324 324 325 325 326 327 328 327 326 326
309 315 316 316 314 309 309 310 311 312 312 315 317 319 317 318 319 319 319 320 319 323 327 330 330 330 329 323 320 323 324 324 322 324 325 323 325 325 326 326 326 327 325 323
308 309 310 313 314 312 310 310 311 312 313 317 319 320 318 317 319 319 320 321 321 321 327 329 330 330 328 320 321 321 323 323 323 323 324 323 323 326 325 326 326 325 324 323
308 308 308 308 308 309 311 312 314 316 317 317 317 319 318 318 319 319 319 320 321 321 328 329 329 329 326 320 320 321 322 322 323 323 324 325 322 323 324 326 326 326 325 323
308 308 307 308 308 309 311 312 314 317 320 318 317 320 321 321 321 322 321 321 322 326 328 329 329 328 325 320 319 320 322 322 323 323 323 323 323 323 323 325 325 325 324 322
312 309 313 308 309 309 311 314 313 315 319 319 319 320 320 322 322 322 321 319 324 328 328 328 329 328 326 322 318 318 320 321 322 322 323 323 323 323 323 323 324 325 324 323
313 316 315 316 313 309 312 313 315 314 316 317 318 320 321 323 324 321 321 319 324 328 327 328 329 329 327 324 321 318 317 318 322 322 322 322 322 323 323 323 324 323 324 322
309 314 315 316 314 310 310 312 314 316 316 316 318 317 321 322 321 321 321 321 319 320 327 327 329 329 328 326 323 320 318 317 321 323 322 322 322 322 322 323 323 323 322 320
309 310 315 317 315 314 316 314 316 317 317 316 317 317 320 319 321 322 320 321 321 319 321 326 327 328 328 327 325 323 320 318 318 322 322 322 322 322 321 322 322 322 322 322
307 311 313 317 316 315 312 313 318 316 314 316 317 315 320 320 318 318 319 320 319 321 321 327 326 326 326 327 326 325 322 317 317 321 322 322 322 322 321 322 322 321 321 321
306 309 307 311 316 314 310 310 315 316 314 315 314 314 321 321 320 318 318 319 318 321 321 320 325 326 326 325 327 326 324 319 317 318 321 322 322 321 322 322 321 321 320 319
307 310 309 309 310 310 309 308 309 315 314 315 317 319 320 320 320 320 319 320 318 321 320 320 319 323 322 326 326 325 325 324 319 319 319 320 322 322 321 322 322 322 321 320
308 310 309 310 309 310 311 310 309 310 312 311 310 309 313 317 317 317 317 318 318 319 318 317 317 318 321 322 326 326 326 324 323 321 319 320 320 320 323 323 322 322 321 321
308 308 309 310 310 311 308 309 309 309 310 311 309 316 315 318 317 316 316 316 318 317 316 316 316 316 317 319 321 323 325 326 325 324 323 322 321 322 321 320 321 322 321 321
306 307 306 309 309 310 310 309 309 315 315 313 314 313 315 315 314 313 313 316 316 316 316 315 314 314 315 317 319 321 327 326 326 326 324 323 323 323 323 322 321 321 322 321
304 306 304 307 308 309 308 311 311 314 315 314 314 313 312 313 314 312 315 315 315 315 315 314 314 314 315 315 317 319 320 323 325 328 327 324 324 324 324 324 323 323 323 322
302 304 304 306 308 309 311 312 311 310 316 313 313 313 312 312 311 311 315 314 313 313 314 313 313 313 314 314 314 317 321 322 325 325 325 325 324 324 324 325 324 324 323 322
302 302 305 305 306 310 310 310 310 311 312 313 312 311 311 311 310 314 314 312 312 313 313 313 312 312 311 312 312 315 319 322 326 325 324 324 324 324 325 325 325 325 324 324
304 302 301 304 305 307 309 311 311 312 311 311 311 311 310 309 309 312 312 311 310 312 312 312 311 311 311 311 311 312 314 318 321 323 323 324 324 324 324 325 325 324 324 322
308 305 306 306 306 307 309 310 312 311 310 310 310 309 309 309 312 312 310 308 308 309 308 306 305 306 307 309 309 309 310 311 315 316 319 320 322 323 323 322 323 319 315 313
308 307 309 308 309 310 310 311 311 310 310 310 309 309 307 308 310 308 308 308 308 307 305 303 300 300 302 304 305 305 307 309 311 313 313 314 313 313 312 313 312 311 306 303
306 307 310 311 310 310 310 310 310 310 309 309 308 306 306 305 306 306 308 307 305 305 305 302 298 298 298 300 301 301 302 303 307 309 309 306 307 306 302 301 298 301 297 296
307 306 308 310 309 308 310 309 310 309 308 308 307 305 304 304 303 302 302 303 303 303 302 301 296 296 297 297 298 298 298 298 301 302 302 300 297 297 296 294 292 292 293 293

GFSCGP_850_thetae_105.txt.gz
Theta_e
307 304 305 307 310 312 313 314 314 316 315 315 313 313 313 312 314 314 318 320 320 319 319 321 326 329 331 332 331 328 324 320 325 324 324 325 328 326 328 328 327 326 326 326
310 307 305 305 306 310 312 314 315 314 314 314 314 315 314 312 314 316 318 319 320 319 320 326 327 330 332 331 329 328 322 322 325 324 325 325 325 328 327 328 329 326 326 326
308 311 311 306 306 306 307 310 312 314 314 312 311 313 313 313 315 318 319 319 319 320 319 323 329 330 332 330 329 328 320 324 325 324 324 325 325 324 327 326 328 327 327 327
307 309 311 307 306 306 306 306 308 310 312 312 312 314 314 316 316 316 317 319 319 319 320 322 327 331 331 330 329 327 320 324 324 325 325 324 325 325 325 326 327 327 328 327
304 314 312 312 313 306 307 308 307 308 308 309 309 315 314 316 317 317 317 318 318 319 320 322 324 329 330 329 329 324 321 324 324 324 323 323 324 323 326 326 326 327 327 327
304 308 311 313 314 311 309 308 308 309 308 310 310 313 312 313 316 317 317 318 318 319 320 323 324 328 330 329 328 321 322 324 324 323 322 325 324 326 324 326 326 326 327 323
305 306 306 308 307 308 310 309 311 314 315 313 313 317 315 315 316 317 319 319 319 319 320 323 325 327 329 329 326 320 323 324 323 323 324 324 325 325 325 325 326 327 324 322
304 304 306 306 307 307 308 309 312 315 316 316 316 317 316 316 320 320 321 319 323 323 323 323 325 326 329 329 325 319 322 323 323 323 323 324 323 323 325 325 326 326 325 323
308 307 307 306 307 308 309 309 310 312 316 317 316 317 316 319 321 320 320 320 319 327 327 326 325 326 329 329 324 318 321 322 322 322 323 323 322 323 323 323 325 326 325 325
310 313 312 314 307 306 309 310 312 313 315 317 315 318 316 318 322 322 320 320 320 318 324 327 326 326 327 328 323 319 321 321 321 322 322 322 323 323 323 322 324 324 325 324
307 310 313 315 313 310 307 310 312 313 312 315 316 314 314 316 321 321 321 320 321 320 320 323 327 327 326 325 323 319 320 321 321 322 323 322 322 322 322 322 321 322 324 324
306 308 311 314 314 313 313 309 310 314 316 314 313 313 316 317 320 319 321 320 320 319 320 325 326 327 327 325 324 322 322 320 319 321 322 322 323 322 322 322 322 320 322 321
306 309 311 314 314 313 312 310 315 314 314 316 316 315 318 317 317 319 320 321 320 320 319 323 325 326 326 326 325 323 322 322 321 320 321 322 322 322 322 321 322 321 321 321
306 308 309 311 310 314 312 309 314 315 313 315 313 316 320 321 320 319 319 318 319 320 317 317 321 323 324 326 326 326 324 322 322 320 321 322 322 322 321 321 321 321 321 321
305 308 308 309 309 312 313 309 309 315 314 314 313 312 318 319 317 319 319 319 319 318 317 316 317 320 322 324 325 326 326 326 324 321 321 321 322 322 322 321 321 321 321 321
308 309 308 309 310 310 312 311 310 311 314 315 316 310 314 316 316 316 318 320 319 316 316 315 315 315 318 321 322 324 325 325 325 325 322 321 320 321 321 321 320 321 321 321
307 309 309 307 309 308 309 310 310 310 311 314 315 314 316 315 315 315 317 317 317 316 315 314 314 313 314 316 320 321 322 324 326 325 325 323 322 321 320 321 321 320 321 321
304 306 308 310 308 307 310 310 312 315 313 312 314 316 314 313 313 314 316 316 316 315 314 313 314 314 313 314 315 319 321 323 325 325 325 326 326 323 322 321 321 323 321 321
302 305 307 309 309 307 309 311 310 314 315 313 312 313 313 312 313 314 315 313 312 312 311 311 311 311 312 313 314 314 317 320 323 326 326 325 326 325 323 323 322 321 321 321
302 302 306 306 307 305 306 309 310 311 315 313 313 312 312 312 312 311 314 311 311 311 309 309 309 308 310 310 312 313 314 317 322 322 324 324 325 325 325 323 323 322 321 320
301 301 304 304 303 306 307 309 308 312 314 312 311 311 310 309 308 313 310 309 309 310 310 308 307 308 309 310 310 311 313 315 319 323 323 324 324 324 324 324 324 324 322 321
305 301 298 301 303 306 307 310 310 310 310 312 310 309 309 313 312 308 307 306 307 307 308 307 307 305 303 305 307 309 309 310 313 316 319 322 323 323 323 324 324 324 323 322
307 304 304 303 303 304 308 310 311 310 309 310 309 309 310 310 308 306 305 305 306 306 305 305 304 303 301 301 301 303 306 308 309 310 315 318 320 322 323 323 324 323 323 321
305 305 307 305 305 309 310 310 311 310 309 309 309 308 306 306 305 305 305 304 304 305 305 304 303 301 297 297 298 299 302 305 307 308 311 312 313 314 315 316 317 315 313 311
304 303 309 309 309 309 310 309 309 310 309 307 306 305 304 303 302 301 299 299 300 301 300 299 298 297 296 296 296 296 297 300 302 303 304 305 306 307 308 306 304 304 301 301
304 304 307 307 305 308 309 307 308 308 306 305 305 304 303 303 302 301 300 299 299 299 299 298 297 296 294 294 294 294 293 294 298 300 298 298 297 297 297 296 294 294 296 293

GFSCGP_850_thetae_108.txt.gz
Theta_e
305 303 304 305 306 308 310 311 312 314 314 314 313 313 311 311 312 311 314 315 316 318 320 321 320 319 319 324 328 330 332 330 325 322 324 329 326 325 327 325 325 327 325 325
308 305 305 303 305 308 309 310 311 312 313 314 314 315 314 311 310 312 314 315 316 319 320 320 320 320 320 326 329 331 331 328 323 322 324 327 326 325 326 327 328 328 326 324
306 308 309 306 305 306 307 310 311 312 313 311 312 312 310 309 310 313 314 316 318 319 319 320 321 320 324 327 330 331 330 327 321 324 324 324 325 324 326 326 328 328 325 326
305 306 307 308 307 305 306 306 308 309 310 308 309 310 311 311 312 314 315 317 317 318 318 319 320 320 323 328 330 331 329 326 321 325 324 324 324 324 324 325 326 326 326 325
305 305 305 307 308 305 306 306 306 306 307 307 308 306 307 311 315 314 314 317 319 319 318 319 319 321 322 328 330 330 328 324 322 324 323 324 324 324 324 324 326 327 327 326
302 306 306 307 307 307 306 307 307 306 306 308 307 307 307 309 312 316 318 318 321 321 318 318 319 321 323 328 330 329 328 322 323 323 323 323 323 323 323 325 326 325 326 325
300 302 304 307 307 309 308 308 311 311 309 311 308 309 310 312 313 319 319 319 318 322 323 318 320 321 323 326 329 329 327 322 322 324 323 321 324 324 325 324 326 323 323 323
300 301 303 304 306 307 309 311 312 315 316 314 312 311 313 312 316 319 319 319 319 320 322 325 323 324 325 325 328 328 327 321 323 323 323 324 322 324 325 324 324 325 326 326
305 303 304 304 305 307 307 309 309 309 314 314 312 315 314 317 318 318 319 319 319 320 320 324 325 325 325 325 327 327 325 321 322 322 322 323 322 323 323 324 325 325 325 326
309 312 311 309 305 305 307 308 310 309 313 314 312 316 316 320 320 319 318 318 319 319 320 325 324 325 324 325 326 326 323 321 322 322 322 322 322 323 323 324 325 326 326 325
307 309 311 313 310 305 305 307 309 310 310 313 313 312 312 314 318 319 319 319 319 318 321 324 323 324 324 324 325 325 322 321 321 322 322 322 322 322 322 322 323 324 325 325
307 308 310 311 313 312 310 308 308 311 312 312 312 312 315 317 317 317 318 321 319 317 319 323 324 324 323 324 324 323 322 322 322 321 322 322 322 322 322 321 322 323 323 324
306 308 311 313 312 311 310 310 313 309 311 313 314 313 316 317 317 318 319 319 319 316 316 319 320 324 324 325 325 325 323 320 320 322 322 322 322 322 321 321 321 320 321 322
306 309 308 310 309 309 313 309 308 310 310 311 313 318 319 318 318 318 319 319 319 318 319 315 318 319 321 324 325 325 325 325 322 321 322 322 322 322 321 320 320 321 320 320
306 309 308 307 308 310 312 313 310 314 312 312 313 311 312 319 318 317 318 318 318 317 319 316 314 315 318 323 324 325 325 325 324 323 322 320 320 321 321 321 320 319 319 320
306 306 308 307 306 305 311 311 310 311 313 314 312 314 315 315 318 318 320 319 317 317 316 316 316 314 313 316 319 322 324 325 325 325 324 323 321 320 320 320 320 320 320 319
304 307 307 307 307 307 309 310 310 311 311 312 312 314 315 315 317 317 316 316 316 316 315 313 313 316 313 313 313 317 320 323 323 324 325 324 323 322 320 320 320 319 320 320
303 304 306 309 308 304 307 310 309 311 313 311 313 314 313 313 314 316 316 315 314 313 312 310 311 311 311 312 314 316 318 321 321 324 323 324 325 324 322 321 320 320 319 318
301 304 305 308 309 307 309 311 310 311 314 312 314 313 313 315 315 314 312 312 312 311 310 309 309 309 309 310 311 312 314 319 321 321 322 324 324 325 324 323 322 321 321 319
301 302 304 306 307 307 305 307 307 310 314 313 313 313 314 312 313 314 310 309 309 309 309 308 307 307 308 308 309 310 312 313 316 319 320 322 322 323 325 324 323 323 321 322
302 301 303 305 306 307 305 306 307 312 311 312 312 311 312 309 309 311 308 306 306 306 306 305 305 305 304 303 304 306 307 309 309 313 317 320 322 321 324 324 324 323 322 321
306 304 299 301 302 304 304 308 310 309 310 311 311 310 310 311 311 309 307 305 304 305 305 305 305 304 303 303 304 303 304 306 306 308 311 316 319 320 321 323 323 323 322 321
303 305 304 303 302 302 306 309 310 310 308 309 308 312 312 308 306 304 302 303 303 302 302 302 302 302 302 300 300 301 301 302 306 308 309 312 316 318 319 320 321 322 322 321
304 301 305 304 305 306 308 309 309 308 309 309 310 310 307 305 304 301 299 299 300 301 301 300 300 301 301 301 300 300 300 301 301 302 305 309 310 313 313 314 315 315 314 314
303 302 305 306 306 308 308 308 308 306 306 305 304 303 302 302 300 299 297 297 297 298 299 300 300 298 296 296 297 297 299 301 302 300 301 303 304 304 305 305 304 305 304 303
304 304 305 307 304 306 304 304 306 305 304 303 301 301 301 301 301 300 299 297 296 297 297 297 297 297 296 295 295 295 296 296 297 296 295 294 296 297 297 297 296 295 296 296

GFSCGP_850_thetae_111.txt.gz
Theta_e
305 306 306 307 308 309 309 311 313 314 315 316 317 317 317 315 315 314 316 316 315 314 316 317 319 319 320 319 318 319 326 330 332 332 328 326 325 325 326 326 327 328 327 328
307 308 308 306 307 308 308 309 309 310 312 313 314 315 315 315 315 315 315 314 314 315 316 317 319 319 320 321 320 320 327 330 332 331 327 323 324 327 326 325 326 327 326 326
308 309 309 306 305 306 307 308 308 309 311 313 314 313 312 312 313 312 312 313 314 314 316 318 318 319 319 321 322 322 327 331 332 330 324 322 325 325 324 325 327 326 327 327
304 306 308 308 308 307 307 307 307 309 311 310 310 311 311 312 313 314 315 316 319 322 321 319 318 318 319 321 324 326 329 331 331 329 321 323 326 325 324 325 326 326 326 328
304 306 307 308 309 307 309 308 308 309 310 310 309 310 310 311 314 314 320 319 320 323 322 320 320 318 318 320 322 327 330 331 330 327 321 324 328 323 324 324 325 325 325 326
302 301 306 307 307 308 307 307 307 307 308 308 308 308 310 312 313 321 320 319 320 321 322 322 318 318 318 319 322 327 331 331 329 323 322 324 325 324 324 322 323 324 326 325
302 301 302 308 307 307 307 308 309 311 311 312 310 309 311 313 317 321 321 320 320 320 322 323 324 321 321 322 323 327 330 330 327 322 323 323 322 322 322 322 323 325 325 325
306 305 301 303 307 308 308 309 310 309 311 311 310 311 312 313 315 320 319 320 320 320 323 324 324 325 324 324 325 326 329 328 325 323 323 323 321 322 323 324 325 325 325 324
309 303 302 302 305 311 310 310 311 312 314 315 315 314 316 317 321 320 320 320 319 321 324 324 324 324 325 324 324 325 328 327 324 323 323 321 322 323 323 324 324 324 323 322
309 311 310 308 304 306 310 312 312 312 313 314 314 316 316 321 322 321 321 319 318 321 324 324 324 325 324 324 322 325 326 326 323 322 322 322 323 321 322 322 323 324 324 322
306 309 311 311 306 304 305 310 311 313 313 312 312 314 315 317 321 322 321 318 318 319 322 322 323 324 323 323 321 322 325 324 321 322 322 321 323 321 322 322 324 324 324 324
307 309 311 310 313 312 307 307 311 313 313 314 314 314 317 319 320 319 320 317 317 316 319 320 322 322 322 322 321 322 325 323 322 321 321 321 323 322 321 321 322 324 324 323
306 310 312 311 312 311 312 310 310 310 312 312 315 313 318 319 319 320 320 318 318 317 316 315 317 319 320 322 322 323 324 322 323 321 320 320 321 321 321 321 320 321 323 323
304 309 310 311 310 310 312 313 313 312 310 311 314 319 320 319 320 320 319 319 319 317 317 316 315 314 317 321 322 323 323 322 321 320 318 317 321 321 320 320 320 320 320 321
306 307 308 308 307 310 311 312 312 313 312 310 311 313 320 319 320 319 319 319 318 318 317 316 315 315 315 315 318 321 321 322 322 322 320 320 319 321 321 320 320 320 320 320
303 308 307 308 307 306 307 312 312 310 314 314 314 317 316 317 318 319 318 318 318 317 315 314 314 314 314 313 313 316 320 321 321 322 323 322 322 320 320 320 319 319 319 320
303 305 306 306 307 307 309 311 311 310 310 313 314 317 318 319 319 318 317 316 315 313 311 310 311 312 314 314 313 313 317 321 322 322 323 323 323 322 320 320 320 319 319 319
303 303 305 308 308 308 307 311 310 310 310 312 315 316 316 316 316 315 314 313 311 310 308 308 307 308 309 309 310 308 311 316 320 322 323 323 323 323 323 321 320 320 320 319
302 303 306 307 307 306 310 309 310 310 314 313 315 315 316 314 313 312 309 308 306 308 308 307 306 306 306 308 309 306 309 312 314 318 320 320 321 321 323 324 323 321 319 319
301 302 305 304 307 306 306 306 307 310 315 314 314 315 314 312 315 314 309 308 308 308 307 306 307 306 305 305 305 308 309 309 309 311 315 317 321 320 321 322 323 324 322 320
305 304 304 304 305 305 305 305 308 313 313 313 313 313 312 311 309 307 308 306 305 304 304 304 305 304 303 303 303 305 306 308 308 309 310 314 316 317 318 320 322 322 323 321
305 305 304 304 305 304 304 308 311 310 310 311 311 310 311 307 307 307 303 302 302 303 302 302 302 302 301 301 301 302 303 304 306 307 308 310 313 318 320 321 321 321 321 321
305 305 305 304 304 303 307 308 308 308 309 309 310 310 308 305 301 300 301 301 300 301 301 300 301 300 300 299 298 299 299 301 303 306 307 309 311 315 317 319 320 320 319 319
302 303 306 305 306 306 306 307 306 306 307 309 310 309 306 302 300 299 298 298 299 300 300 299 299 298 298 297 297 296 296 297 300 303 303 305 308 308 310 311 313 313 313 313
301 302 304 304 305 305 301 304 304 303 308 305 304 303 300 299 296 295 295 296 297 298 298 298 297 297 296 295 294 295 295 296 297 299 300 300 301 302 302 303 303 303 304 304
302 301 301 304 298 301 297 298 300 300 300 300 302 299 298 299 298 297 295 293 294 295 296 296 295 295 294 294 293 293 293 293 293 295 296 296 297 297 297 297 297 296 297 297

GFSCGP_850_thetae_117.txt.gz
Theta_e
308 308 310 309 310 310 309 309 310 313 315 316 317 317 318 320 321 321 321 322 322 323 323 322 322 322 322 322 326 328 330 337 339 338 338 336 332 331 332 332 328 324 328 329
308 308 308 309 310 310 309 308 310 311 312 313 314 315 318 318 318 319 320 321 321 321 322 322 322 322 322 323 329 329 332 336 338 337 338 333 334 332 333 331 328 324 324 327
307 308 308 308 308 309 309 309 310 310 311 312 313 313 314 315 316 316 316 317 319 320 320 320 320 321 321 326 330 331 332 335 337 337 337 335 335 334 333 330 326 328 326 327
306 307 306 307 307 308 308 310 310 309 309 310 313 313 314 316 317 318 318 317 317 317 318 318 319 320 322 324 330 332 332 334 336 334 333 336 334 331 331 330 326 328 327 326
308 307 306 307 308 308 307 309 311 310 310 311 311 311 313 316 316 318 318 317 318 320 322 323 323 323 323 323 329 333 333 334 336 334 335 335 336 333 332 330 330 329 328 327
306 306 308 306 307 308 308 308 310 311 311 311 312 312 313 315 316 318 320 319 321 324 325 325 326 328 325 328 332 334 333 335 335 334 336 335 335 333 331 330 330 330 328 327
306 307 307 308 307 307 308 308 309 311 313 313 312 312 313 315 316 318 322 324 324 326 327 327 328 329 327 330 333 329 330 333 334 334 334 335 334 332 331 330 329 329 330 328
306 308 306 306 307 307 307 308 310 310 311 311 311 311 313 315 316 318 322 324 325 326 328 328 329 330 330 331 331 329 331 331 332 334 334 333 333 331 329 328 328 328 326 326
307 306 306 308 309 309 307 309 309 311 311 311 312 312 314 315 316 322 324 324 326 327 329 329 330 330 329 328 327 326 327 329 329 333 332 331 331 329 327 327 327 329 326 325
306 308 307 308 311 311 308 308 309 311 311 311 311 313 314 315 316 321 323 324 326 328 328 328 328 327 327 325 324 325 325 327 327 330 330 330 330 328 327 326 328 326 324 326
306 308 307 308 311 310 308 308 308 309 311 311 311 312 315 316 317 319 322 324 326 327 327 325 324 323 323 324 323 323 323 325 326 329 328 329 328 327 326 327 325 325 324 324
306 307 308 307 310 312 314 308 309 309 309 310 310 312 319 318 319 320 324 324 325 325 324 323 322 321 322 322 322 322 322 323 324 327 326 326 326 326 325 325 325 324 324 324
304 306 308 309 310 310 312 311 309 310 310 309 312 312 319 319 321 324 324 323 323 322 322 321 320 317 318 321 320 320 321 322 324 324 324 324 325 325 324 324 324 323 323 324
304 306 307 309 311 309 311 313 311 311 314 310 311 312 321 319 319 325 322 322 322 322 321 320 318 315 313 314 317 320 320 321 322 322 322 323 323 322 323 324 323 322 322 323
304 306 306 305 306 308 311 314 311 313 314 314 313 312 317 320 321 323 322 322 321 321 320 318 316 314 312 312 313 315 318 320 322 322 321 321 321 322 324 324 322 322 322 323
305 306 305 306 308 309 313 315 313 311 311 312 312 313 313 316 318 321 322 322 321 319 318 315 314 313 312 312 312 312 313 314 318 321 322 323 321 323 323 323 323 322 322 322
306 307 307 306 307 309 315 313 314 315 315 312 314 314 319 316 315 322 321 320 318 317 315 313 312 310 309 309 311 311 312 312 313 318 322 323 323 321 322 323 322 322 322 322
306 306 306 306 308 314 312 310 313 314 314 314 314 315 317 320 317 316 316 315 314 314 312 310 309 308 307 307 308 309 311 311 312 312 315 319 321 322 322 321 322 321 321 321
306 307 308 307 307 309 310 309 309 311 314 316 315 317 317 314 314 311 310 311 310 310 309 308 306 305 304 304 304 304 309 310 311 310 310 313 315 321 322 322 321 320 320 320
306 307 308 307 306 309 308 308 308 310 316 312 313 317 316 315 317 310 309 308 307 306 306 306 304 303 302 301 302 302 302 307 308 309 309 311 312 317 320 321 321 321 320 320
306 308 308 308 308 306 308 308 309 315 314 311 306 312 312 311 307 306 306 306 305 304 303 304 302 301 299 298 300 300 299 304 305 307 306 305 310 312 316 319 320 321 321 321
305 307 310 308 308 309 307 307 310 309 309 306 308 310 309 308 306 305 303 303 303 303 302 301 301 298 297 296 296 297 296 298 301 305 309 308 309 310 311 315 318 320 321 321
307 305 306 306 307 305 303 303 305 305 306 304 310 312 309 306 304 303 301 301 300 299 299 298 298 297 295 294 293 294 292 294 298 300 302 305 307 309 310 313 316 318 319 319
303 304 304 304 305 302 298 297 298 300 300 301 304 307 306 304 302 301 299 298 298 297 296 296 295 294 293 292 291 291 291 292 296 298 301 302 303 306 308 311 312 312 312 314
302 303 302 303 302 300 299 296 296 296 299 299 300 302 302 301 299 299 297 296 296 295 294 293 293 292 291 290 289 289 289 290 293 294 294 296 298 300 301 304 304 305 305 305
301 301 301 302 297 297 298 295 295 295 295 297 297 298 298 298 297 296 294 292 291 291 290 290 289 288 288 287 288 291 291 291 291 292 292 292 292 294 295 295 296 296 297 298

GFSCGP_850_thetae_120.txt.gz
Theta_e
308 309 309 309 310 311 310 310 309 310 311 313 314 315 317 318 319 320 321 322 322 323 323 323 323 323 322 322 322 323 328 332 334 339 341 341 338 339 337 338 332 331 329 327
307 308 309 309 309 309 309 309 310 311 311 310 311 312 314 315 317 319 320 320 322 322 322 324 323 323 323 323 323 323 324 327 334 335 340 341 338 339 338 335 334 333 331 327
307 307 308 307 307 308 309 309 309 310 310 311 311 311 312 314 315 316 317 316 316 320 322 322 322 323 323 323 323 324 327 327 333 338 341 340 338 337 336 337 336 332 328 327
308 308 308 308 308 308 308 308 309 309 310 308 310 310 312 313 314 316 316 315 316 317 318 321 321 322 321 322 323 322 326 329 334 338 340 338 336 334 335 335 334 331 328 324
306 306 305 306 306 306 308 309 309 308 308 311 310 309 310 313 314 315 316 317 317 316 317 318 319 319 320 321 322 322 326 331 334 337 339 336 335 333 335 335 332 331 329 327
305 305 306 306 307 308 308 308 307 309 309 309 311 310 310 311 313 315 318 318 318 319 322 323 323 323 324 326 325 326 330 332 334 335 337 336 334 336 333 333 333 331 328 328
304 305 306 307 306 307 307 309 307 309 310 310 311 311 312 313 314 314 319 323 324 325 325 326 326 328 327 330 332 334 334 334 335 335 336 333 335 336 334 332 331 331 329 329
304 306 305 306 306 308 310 309 309 308 310 309 311 311 312 314 314 315 322 325 325 325 327 329 330 330 330 333 334 333 331 332 336 337 335 335 333 335 334 332 331 330 328 328
306 304 305 306 307 307 312 309 308 309 310 311 311 312 313 314 314 315 325 325 325 327 328 330 331 330 330 330 330 329 326 329 333 333 332 334 335 333 332 331 331 329 329 328
305 306 305 306 307 310 311 311 310 309 308 309 310 312 313 313 314 316 325 325 327 329 329 329 328 326 326 325 325 324 325 326 328 329 332 334 333 332 330 329 328 327 327 327
306 306 305 306 309 311 312 314 311 309 309 309 312 313 314 316 315 321 324 325 327 328 327 325 324 322 322 323 323 323 323 324 325 327 330 332 331 330 329 327 326 326 327 327
305 306 305 306 308 308 309 310 312 309 308 310 312 312 314 319 319 321 322 325 327 327 325 323 322 319 321 322 322 321 323 323 325 326 329 331 330 329 327 326 325 326 325 324
304 303 307 305 307 306 307 308 310 312 314 311 313 313 313 316 320 319 325 326 326 323 322 320 317 316 318 319 320 321 322 323 324 325 327 329 327 326 325 324 325 325 325 324
303 305 306 307 307 307 307 309 311 314 313 311 310 311 311 317 318 324 323 320 320 322 320 319 317 315 313 315 318 318 320 321 323 324 325 326 326 324 324 324 323 324 323 323
305 306 306 306 305 306 309 310 313 314 313 315 312 311 312 317 319 322 321 323 322 320 319 318 316 314 312 313 313 315 317 319 321 322 323 323 323 323 323 323 325 324 322 322
305 306 307 307 306 307 307 312 314 313 312 311 313 313 316 316 314 317 316 321 321 318 316 315 314 313 312 311 312 312 313 316 317 319 321 321 322 322 323 323 325 323 322 322
306 306 307 308 306 307 312 312 311 312 315 316 316 315 315 319 318 314 309 314 317 316 314 313 311 310 309 310 309 311 312 312 313 314 317 320 322 323 324 324 324 324 322 321
306 307 307 309 308 311 311 309 308 311 311 313 313 316 317 314 313 314 311 311 312 312 311 309 308 307 306 306 306 306 308 311 311 312 312 313 319 321 320 322 324 322 322 322
306 307 308 308 308 307 310 309 309 309 312 309 312 312 314 312 311 310 310 310 310 309 308 307 305 304 303 304 304 303 302 306 309 311 311 311 310 315 320 321 321 323 322 321
306 307 308 309 309 308 309 307 308 310 314 309 309 310 312 314 310 309 307 307 306 306 306 305 303 301 300 300 302 300 299 301 306 308 308 309 311 310 313 318 320 321 321 322
306 307 308 309 309 310 305 307 308 307 308 307 302 305 305 304 307 306 306 305 304 304 303 303 301 299 297 297 299 298 296 296 298 301 306 307 309 310 310 311 318 321 322 321
305 306 307 307 308 309 301 304 306 305 304 303 301 306 307 305 305 304 303 302 302 301 300 300 299 297 295 295 295 295 294 293 296 299 302 305 307 308 309 310 313 317 320 321
306 305 308 307 306 302 299 298 297 299 300 300 298 305 305 304 303 301 301 300 299 298 297 297 296 295 294 293 292 293 292 292 295 297 299 301 303 306 309 309 311 311 314 317
302 303 304 303 303 300 298 297 296 296 297 298 300 302 302 301 300 299 298 297 296 295 294 294 294 293 291 291 290 289 290 292 296 297 296 298 299 301 302 306 304 305 310 310
304 303 302 303 301 299 299 296 295 295 295 296 298 299 299 299 298 296 294 293 292 292 291 291 290 290 289 288 287 289 291 292 295 295 294 295 294 295 297 300 304 305 306 301
303 302 301 300 298 297 298 296 294 295 294 294 295 296 296 296 295 292 290 288 288 288 287 289 288 288 288 289 289 289 289 291 292 293 294 293 294 294 293 292 292 291 294 296

GFSCGP_850_thetae_123.txt.gz
Theta_e
306 303 303 304 305 306 305 306 306 307 308 308 308 308 308 311 313 312 315 318 319 321 322 322 322 321 321 321 320 321 325 330 333 334 333 337 335 339 336 334 336 334 333 335
303 303 305 307 307 306 306 305 306 306 307 307 308 308 308 309 310 312 312 312 315 318 321 322 322 323 323 323 321 322 323 329 331 331 331 333 332 336 336 335 336 336 334 336
305 306 307 306 305 306 307 306 306 306 306 306 306 307 307 309 310 311 312 312 313 316 317 317 321 323 323 323 322 322 324 328 329 333 335 338 339 340 339 336 337 336 335 338
305 306 305 304 304 304 304 306 307 307 307 305 306 305 307 308 310 311 311 312 313 314 314 315 316 321 323 322 323 324 324 327 329 331 335 335 334 337 339 337 335 334 333 333
305 305 303 303 304 305 306 306 306 307 307 306 306 305 306 308 309 309 310 312 313 314 314 314 315 319 322 322 322 323 324 325 327 331 332 333 336 338 338 335 334 333 332 334
305 305 303 303 305 304 305 307 307 307 307 307 306 306 305 307 309 310 311 312 313 314 314 315 316 318 321 321 322 325 324 324 327 331 332 335 336 338 335 334 332 332 333 333
304 304 304 304 303 304 305 308 309 308 307 307 306 307 307 309 310 310 311 313 322 318 317 325 326 328 329 327 326 326 328 330 331 332 332 335 337 339 335 333 332 333 332 331
305 305 303 303 303 305 305 306 309 312 308 307 306 307 307 309 311 311 311 323 325 328 330 330 331 333 333 333 333 332 332 334 335 334 333 335 336 336 334 334 333 332 332 330
304 304 303 303 304 305 308 311 310 312 310 309 307 307 308 308 310 311 312 324 327 330 330 330 330 330 330 331 331 331 331 331 332 335 336 336 334 333 335 336 333 331 331 330
304 303 303 304 304 306 307 309 313 309 308 308 307 308 308 309 311 311 316 323 329 329 328 328 327 326 325 326 326 326 325 324 330 334 336 334 334 334 334 334 332 330 330 329
303 303 303 303 304 304 307 309 310 312 310 307 308 307 308 311 311 316 320 328 327 325 326 324 322 322 324 323 323 322 323 324 325 327 329 330 333 334 334 333 332 330 329 327
303 301 303 302 303 305 307 306 308 312 313 310 308 307 309 310 318 321 324 327 324 323 321 321 320 320 320 321 321 321 321 323 324 325 326 328 333 333 333 331 329 327 326 325
302 299 303 304 304 306 305 306 306 311 312 311 311 309 310 317 321 321 324 324 321 318 317 316 318 318 318 319 319 320 321 322 323 325 326 328 329 331 330 329 327 326 325 324
303 303 305 304 303 304 306 306 307 310 314 312 310 312 315 318 320 320 315 313 320 318 317 314 313 313 314 316 318 319 320 321 323 324 325 326 328 328 329 327 325 324 324 324
301 300 301 303 305 305 306 308 311 312 313 313 313 313 315 317 318 318 316 312 318 317 315 314 312 311 311 312 313 315 317 319 321 322 323 324 324 324 324 324 324 323 322 323
300 301 303 305 305 306 307 310 311 312 312 314 314 314 314 314 312 312 310 309 308 315 313 312 311 310 309 309 310 312 313 315 317 320 321 322 322 322 323 322 323 324 323 322
300 301 303 305 306 306 311 310 309 309 309 310 311 314 315 315 312 309 309 309 309 308 309 307 307 307 306 306 306 308 311 312 313 314 316 319 321 322 323 324 324 323 323 322
301 301 304 306 306 308 308 306 306 309 307 306 306 309 313 313 312 312 311 310 310 307 305 304 304 304 304 304 304 304 305 309 311 312 312 313 316 319 322 324 323 324 324 323
305 305 306 307 308 307 305 303 306 306 309 305 305 305 308 310 308 308 308 307 306 305 303 302 302 301 302 301 301 301 302 305 308 309 310 311 311 313 316 319 321 323 323 323
305 305 304 307 309 310 303 302 302 306 309 304 302 304 305 309 307 306 305 305 303 303 302 301 299 299 300 298 298 299 299 300 302 303 306 308 310 311 312 314 318 320 321 323
303 303 305 306 307 307 300 301 302 304 304 301 299 303 300 301 301 301 301 300 300 299 299 299 297 295 296 296 296 296 295 296 297 299 301 305 307 309 310 311 312 317 320 321
303 303 302 305 306 302 298 300 301 299 299 299 297 301 303 301 300 299 299 297 297 297 296 295 294 293 293 294 295 293 292 293 295 297 300 302 304 306 307 309 310 313 315 319
304 302 302 302 303 300 297 297 296 296 296 297 298 299 300 299 298 297 295 294 294 294 293 293 292 292 292 292 292 291 291 293 295 297 299 300 302 303 305 307 308 311 311 308
302 302 300 301 300 299 296 296 295 295 295 295 297 298 298 297 296 294 293 293 292 291 291 291 291 290 290 289 289 290 291 293 295 297 298 298 300 301 302 304 305 307 309 308
299 299 298 300 299 298 298 294 294 295 294 294 295 296 296 295 293 292 290 289 288 288 290 289 289 288 287 288 288 290 291 292 293 294 295 295 297 297 298 299 298 299 299 300
301 295 294 293 297 297 297 295 293 294 295 294 294 294 294 294 292 290 288 288 289 289 288 289 288 287 287 288 288 288 290 291 291 291 291 292 293 293 293 293 295 295 297 298

GFSCGP_850_thetae_126.txt.gz
Theta_e
304 301 302 302 303 304 304 304 304 305 306 304 304 305 305 306 307 307 308 310 313 313 316 318 319 320 320 321 321 320 319 321 330 338 337 339 336 335 335 334 335 338 338 335
301 303 305 304 304 303 303 303 303 304 305 306 305 305 305 306 306 307 308 309 311 313 313 314 316 318 322 322 321 321 319 319 323 332 330 336 334 333 335 337 336 338 338 336
302 304 305 304 303 303 303 302 303 304 305 305 305 305 305 306 306 307 308 308 309 310 312 314 314 314 319 322 322 321 321 320 320 326 335 339 337 337 338 339 338 336 335 334
304 304 304 303 303 302 302 305 305 304 304 305 304 306 306 306 306 306 308 309 309 310 311 312 313 314 315 321 323 322 321 321 322 328 333 335 334 333 332 334 336 335 334 333
303 303 303 302 302 303 304 303 304 305 306 305 305 305 305 305 305 306 307 308 309 310 311 312 313 313 314 318 323 323 322 322 325 328 331 333 335 330 332 334 336 337 334 333
303 303 303 302 303 302 302 304 304 305 307 308 306 306 305 305 305 307 307 308 310 310 311 312 312 317 317 314 321 322 323 325 326 329 334 332 331 331 334 336 337 337 334 333
302 303 303 303 302 302 302 304 307 306 306 307 306 306 305 305 306 307 308 309 310 311 311 315 316 315 316 315 317 326 327 327 333 336 334 331 331 332 333 335 337 334 332 331
304 303 302 302 302 302 303 307 310 311 310 309 309 308 305 305 306 308 309 309 313 324 324 327 327 329 329 329 328 328 328 330 334 334 332 333 335 336 336 337 337 333 332 331
303 303 302 302 302 302 307 307 306 311 312 311 309 305 306 306 307 308 309 309 327 325 326 328 329 330 330 332 332 332 332 333 334 335 337 337 335 336 335 339 337 334 331 332
302 302 302 302 302 304 306 305 308 309 313 312 306 305 305 306 307 309 313 315 319 321 324 325 326 327 327 326 327 327 328 328 332 334 335 336 336 334 334 335 334 334 332 331
301 301 302 301 301 301 302 306 306 308 310 314 311 307 313 316 320 322 324 320 315 322 318 320 321 322 322 322 321 322 322 323 326 331 333 335 334 333 333 333 334 335 333 330
301 299 301 301 301 302 303 303 306 310 308 310 312 310 312 313 317 315 316 320 319 317 316 318 319 320 320 320 320 321 321 322 324 325 327 330 331 334 333 334 333 332 331 330
300 298 301 300 301 303 302 304 305 308 309 311 311 311 312 314 317 315 313 314 317 315 315 317 318 316 319 319 319 320 321 321 322 323 324 326 327 331 330 331 332 331 329 328
301 300 297 300 301 301 302 304 307 310 312 310 312 312 314 316 316 314 313 311 317 314 313 314 313 313 315 316 317 319 320 320 322 324 324 325 326 327 329 327 329 328 328 326
299 298 298 299 300 302 304 307 307 310 309 310 310 314 313 313 314 312 311 309 309 311 312 311 310 311 310 311 313 315 317 318 320 322 323 324 324 326 326 326 328 327 326 324
298 298 300 301 302 304 306 307 306 309 307 306 306 310 307 311 311 311 310 309 308 306 304 308 307 307 306 306 310 311 312 314 316 318 321 322 322 323 324 325 325 325 324 322
298 299 301 302 302 304 310 305 305 307 305 306 306 306 304 313 312 311 310 309 307 306 304 302 303 304 303 303 303 305 310 312 313 314 316 318 320 321 322 322 323 324 324 324
299 299 300 302 304 304 304 303 302 304 305 304 303 303 304 308 305 305 307 308 305 302 303 302 301 301 300 299 300 301 304 308 311 312 312 313 315 318 320 322 323 323 323 325
302 304 304 307 306 305 302 301 301 302 305 302 301 301 302 305 303 301 300 301 300 298 298 298 299 298 298 298 298 299 301 303 305 307 310 311 311 313 314 317 320 321 323 324
303 304 304 304 306 307 300 300 300 300 305 300 299 301 301 301 301 300 297 296 297 296 295 296 296 296 296 295 296 298 298 299 299 300 302 306 308 311 312 312 316 318 321 322
302 301 303 304 304 302 299 298 298 303 300 298 298 299 300 300 299 297 297 295 295 294 293 294 293 293 292 293 294 293 294 295 295 297 300 301 304 306 309 309 311 313 317 318
301 302 298 301 301 300 297 298 298 297 296 297 297 298 299 298 296 295 294 295 295 294 293 293 293 292 292 292 292 292 293 294 295 296 297 299 301 302 305 307 308 311 313 316
296 297 297 298 299 299 297 296 296 295 295 295 296 298 297 296 295 294 293 292 292 292 292 291 291 291 290 289 290 291 292 294 296 297 298 299 301 301 302 304 307 309 310 309
297 301 297 299 299 298 296 296 294 295 294 295 295 296 295 294 293 291 291 291 290 290 290 289 289 287 287 288 289 290 292 294 296 297 298 298 299 300 302 303 304 305 305 304
295 296 295 298 299 298 296 296 294 295 294 294 294 294 294 293 292 291 289 288 289 288 288 287 285 285 286 287 288 290 291 292 294 295 295 295 296 297 297 299 300 301 300 300
299 294 293 294 297 295 297 294 293 294 294 294 293 293 293 292 290 290 289 287 287 288 288 289 287 287 286 286 287 288 290 291 292 292 292 293 293 293 293 292 293 293 295 296

GFSCGP_850_thetae_132.txt.gz
Theta_e
302 301 301 301 302 302 301 300 299 299 299 299 300 302 302 302 302 302 303 303 304 303 305 304 304 305 306 308 309 312 316 317 320 330 336 337 336 331 328 325 324 323 323 323
300 301 302 302 302 301 300 300 299 300 301 301 300 300 301 302 302 304 304 303 303 304 304 304 304 305 306 307 308 311 317 318 319 324 325 335 336 334 332 328 327 326 324 324
300 302 303 301 300 300 300 300 300 301 301 300 300 301 302 303 304 305 306 306 305 304 304 304 304 304 304 306 308 309 310 315 318 318 326 336 338 337 337 334 330 329 328 326
302 302 301 301 301 300 299 300 300 300 300 300 301 302 303 304 305 306 308 309 307 306 305 304 304 304 304 306 308 309 310 312 314 318 321 325 327 336 334 334 333 332 331 330
302 302 301 301 301 300 299 300 300 300 300 301 302 302 302 305 306 306 310 311 311 306 305 305 305 305 305 306 308 309 310 312 313 315 318 322 326 325 328 335 335 334 333 332
301 301 301 301 301 300 300 300 301 303 302 304 303 303 304 305 306 309 313 313 314 315 305 305 305 306 305 307 308 309 313 315 316 319 320 324 329 324 330 334 337 335 333 331
301 301 301 301 300 300 299 302 303 304 304 304 303 305 305 306 306 313 314 313 312 315 319 317 314 309 306 308 308 311 314 315 316 318 324 329 330 327 324 329 335 334 331 331
300 301 301 300 300 300 302 303 301 300 305 303 304 306 306 306 309 312 313 312 314 314 318 317 319 322 318 311 309 315 315 316 317 321 329 335 332 332 333 334 334 334 330 328
301 301 301 300 300 299 299 301 302 298 304 306 305 303 304 310 311 313 313 312 312 316 316 314 314 317 318 324 322 317 316 319 320 326 332 336 334 334 337 336 336 336 332 329
300 300 300 300 300 300 301 301 300 304 305 306 304 304 308 309 310 310 313 313 312 311 311 311 311 312 318 322 324 326 323 322 321 329 332 334 335 335 334 333 334 334 333 332
299 299 300 299 297 298 299 298 301 303 304 307 308 306 306 308 308 308 313 311 309 307 307 308 307 307 312 321 324 326 322 325 330 332 328 328 330 331 330 330 330 330 332 334
298 299 300 298 298 299 299 300 302 303 302 307 308 307 306 304 307 306 309 307 305 303 302 302 304 303 307 316 318 322 325 326 327 328 328 323 324 323 323 328 329 331 332 334
299 297 297 297 297 297 300 299 300 301 304 307 307 306 304 304 305 306 309 306 303 300 301 300 300 298 300 311 315 317 321 322 323 326 327 328 327 326 327 328 329 330 330 331
300 298 292 291 293 297 298 299 299 304 305 307 306 305 304 303 303 309 307 305 300 298 297 297 297 296 296 302 308 311 316 319 320 322 324 326 328 328 328 327 329 329 329 330
296 295 297 298 298 298 299 298 303 299 303 306 304 304 304 303 301 303 302 300 299 296 295 295 294 295 296 298 304 306 308 308 312 318 320 321 324 324 327 328 329 329 329 329
295 295 297 299 298 298 300 304 302 302 305 302 303 302 301 300 299 298 298 297 297 296 294 293 293 294 295 295 297 300 303 305 309 313 314 316 319 322 323 324 326 327 327 327
296 297 299 301 300 301 302 302 300 297 301 301 301 302 302 303 299 296 296 296 295 294 292 292 292 293 294 294 294 296 299 302 305 307 311 313 315 317 320 321 324 325 326 326
297 298 299 301 302 299 299 300 300 299 301 299 300 300 299 300 299 296 295 294 293 292 291 291 291 293 294 293 293 295 297 298 301 302 304 307 310 313 315 318 319 322 324 324
296 298 299 301 305 303 300 301 299 299 299 297 297 299 299 298 299 298 294 293 292 290 290 290 290 291 291 291 292 293 295 296 297 298 299 301 304 309 311 313 316 318 319 321
296 299 303 303 304 299 298 299 297 297 300 296 297 297 298 297 297 297 294 292 290 289 290 290 290 290 290 291 291 292 294 295 296 296 297 298 300 302 306 308 310 312 314 317
301 301 302 302 301 300 298 297 297 302 296 296 296 296 297 297 296 294 292 290 289 288 288 289 290 288 289 290 291 293 294 294 295 296 298 298 299 300 301 304 307 308 310 312
300 298 295 299 300 299 297 297 299 295 296 295 295 296 296 295 294 292 290 289 288 287 287 289 289 288 289 290 291 292 293 293 295 296 298 299 299 300 300 302 305 306 308 309
296 296 296 297 296 296 296 296 295 294 295 295 294 295 295 294 292 290 289 289 288 288 287 288 288 288 288 289 289 291 291 293 295 296 297 298 299 300 301 302 302 305 304 304
296 298 296 299 296 297 297 296 296 294 294 294 294 294 294 292 291 290 288 288 287 287 287 288 288 287 287 288 288 290 291 292 293 294 294 294 295 296 298 299 301 302 302 302
292 295 293 297 297 298 297 296 296 294 293 294 294 292 292 291 290 289 288 287 287 287 287 287 287 286 286 286 287 288 290 291 292 293 293 293 292 292 292 292 293 295 296 297
294 290 291 291 295 296 297 296 295 293 293 293 293 291 290 289 289 288 288 287 286 286 286 287 286 286 286 286 286 287 288 290 291 291 292 291 291 290 291 291 290 290 291 293